<?xml version="1.0" encoding="UTF-8" standalone="no" ?>
<gpx xmlns="http://www.topografix.com/GPX/1/1" xmlns:xsi="http://www.w3.org/2001/XMLSchema-instance" xsi:schemaLocation="http://www.topografix.com/GPX/1/1 http://www.topografix.com/GPX/1/1/gpx.xsd" version="1.1" creator="VisuGPX - https://www.visugpx.com">
  <metadata>
    <name>130126ROBDolmenParacoleCyriaque</name>
    <desc><![CDATA[Froid - Ensoleillé]]></desc>
  </metadata>
  <trk>
    <name><![CDATA[130126ROBDolmenParacoleCyriaque]]></name>
    <trkseg>
      <trkpt lat="43.40402" lon="6.06536">
        <ele>231.60000610352</ele>
        <time>2013-01-26T13:07:04Z</time>
      </trkpt>
      <trkpt lat="43.40402" lon="6.06536">
        <ele>233.39999389648</ele>
        <time>2013-01-26T13:07:12Z</time>
      </trkpt>
      <trkpt lat="43.40402" lon="6.06536">
        <ele>231.39999389648</ele>
        <time>2013-01-26T13:07:25Z</time>
      </trkpt>
      <trkpt lat="43.40405" lon="6.06522">
        <ele>231.39999389648</ele>
        <time>2013-01-26T13:07:30Z</time>
      </trkpt>
      <trkpt lat="43.40406" lon="6.06507">
        <ele>232.19999694824</ele>
        <time>2013-01-26T13:07:33Z</time>
      </trkpt>
      <trkpt lat="43.40407" lon="6.06503">
        <ele>232.60000610352</ele>
        <time>2013-01-26T13:07:35Z</time>
      </trkpt>
      <trkpt lat="43.40408" lon="6.06495">
        <ele>233.39999389648</ele>
        <time>2013-01-26T13:07:37Z</time>
      </trkpt>
      <trkpt lat="43.40413" lon="6.06484">
        <ele>233.39999389648</ele>
        <time>2013-01-26T13:07:40Z</time>
      </trkpt>
      <trkpt lat="43.40419" lon="6.06481">
        <ele>233.39999389648</ele>
        <time>2013-01-26T13:07:42Z</time>
      </trkpt>
      <trkpt lat="43.40443" lon="6.06488">
        <ele>233.39999389648</ele>
        <time>2013-01-26T13:07:48Z</time>
      </trkpt>
      <trkpt lat="43.4046" lon="6.06493">
        <ele>233</ele>
        <time>2013-01-26T13:07:52Z</time>
      </trkpt>
      <trkpt lat="43.40464" lon="6.06495">
        <ele>232.39999389648</ele>
        <time>2013-01-26T13:07:53Z</time>
      </trkpt>
      <trkpt lat="43.40469" lon="6.06496">
        <ele>232</ele>
        <time>2013-01-26T13:07:54Z</time>
      </trkpt>
      <trkpt lat="43.40478" lon="6.06498">
        <ele>231</ele>
        <time>2013-01-26T13:07:56Z</time>
      </trkpt>
      <trkpt lat="43.40491" lon="6.06502">
        <ele>231</ele>
        <time>2013-01-26T13:08:00Z</time>
      </trkpt>
      <trkpt lat="43.40495" lon="6.06504">
        <ele>231</ele>
        <time>2013-01-26T13:08:03Z</time>
      </trkpt>
      <trkpt lat="43.405" lon="6.06505">
        <ele>230.60000610352</ele>
        <time>2013-01-26T13:08:05Z</time>
      </trkpt>
      <trkpt lat="43.40508" lon="6.06508">
        <ele>229.80000305176</ele>
        <time>2013-01-26T13:08:07Z</time>
      </trkpt>
      <trkpt lat="43.40512" lon="6.06509">
        <ele>229.19999694824</ele>
        <time>2013-01-26T13:08:08Z</time>
      </trkpt>
      <trkpt lat="43.40536" lon="6.06517">
        <ele>228.80000305176</ele>
        <time>2013-01-26T13:08:13Z</time>
      </trkpt>
      <trkpt lat="43.40541" lon="6.06518">
        <ele>228.80000305176</ele>
        <time>2013-01-26T13:08:14Z</time>
      </trkpt>
      <trkpt lat="43.40557" lon="6.06523">
        <ele>228.80000305176</ele>
        <time>2013-01-26T13:08:17Z</time>
      </trkpt>
      <trkpt lat="43.40568" lon="6.06525">
        <ele>228.39999389648</ele>
        <time>2013-01-26T13:08:19Z</time>
      </trkpt>
      <trkpt lat="43.40574" lon="6.06526">
        <ele>228</ele>
        <time>2013-01-26T13:08:20Z</time>
      </trkpt>
      <trkpt lat="43.40584" lon="6.06528">
        <ele>227.19999694824</ele>
        <time>2013-01-26T13:08:22Z</time>
      </trkpt>
      <trkpt lat="43.40588" lon="6.06529">
        <ele>226.80000305176</ele>
        <time>2013-01-26T13:08:23Z</time>
      </trkpt>
      <trkpt lat="43.40592" lon="6.06531">
        <ele>226.80000305176</ele>
        <time>2013-01-26T13:08:24Z</time>
      </trkpt>
      <trkpt lat="43.40596" lon="6.06532">
        <ele>226.39999389648</ele>
        <time>2013-01-26T13:08:26Z</time>
      </trkpt>
      <trkpt lat="43.40598" lon="6.06532">
        <ele>226</ele>
        <time>2013-01-26T13:08:27Z</time>
      </trkpt>
      <trkpt lat="43.40601" lon="6.06533">
        <ele>225.60000610352</ele>
        <time>2013-01-26T13:08:28Z</time>
      </trkpt>
      <trkpt lat="43.40605" lon="6.06534">
        <ele>224.80000305176</ele>
        <time>2013-01-26T13:08:30Z</time>
      </trkpt>
      <trkpt lat="43.40609" lon="6.06535">
        <ele>224.80000305176</ele>
        <time>2013-01-26T13:08:33Z</time>
      </trkpt>
      <trkpt lat="43.40613" lon="6.06533">
        <ele>224.80000305176</ele>
        <time>2013-01-26T13:08:35Z</time>
      </trkpt>
      <trkpt lat="43.40615" lon="6.0653">
        <ele>224.80000305176</ele>
        <time>2013-01-26T13:08:36Z</time>
      </trkpt>
      <trkpt lat="43.40622" lon="6.06518">
        <ele>224.19999694824</ele>
        <time>2013-01-26T13:08:39Z</time>
      </trkpt>
      <trkpt lat="43.40627" lon="6.06506">
        <ele>223</ele>
        <time>2013-01-26T13:08:42Z</time>
      </trkpt>
      <trkpt lat="43.4063" lon="6.06502">
        <ele>222.60000610352</ele>
        <time>2013-01-26T13:08:43Z</time>
      </trkpt>
      <trkpt lat="43.40638" lon="6.06492">
        <ele>222.60000610352</ele>
        <time>2013-01-26T13:08:46Z</time>
      </trkpt>
      <trkpt lat="43.40646" lon="6.06482">
        <ele>222.19999694824</ele>
        <time>2013-01-26T13:08:49Z</time>
      </trkpt>
      <trkpt lat="43.4066" lon="6.06468">
        <ele>220.39999389648</ele>
        <time>2013-01-26T13:08:53Z</time>
      </trkpt>
      <trkpt lat="43.40673" lon="6.06454">
        <ele>220.39999389648</ele>
        <time>2013-01-26T13:08:56Z</time>
      </trkpt>
      <trkpt lat="43.40683" lon="6.06445">
        <ele>220.39999389648</ele>
        <time>2013-01-26T13:08:58Z</time>
      </trkpt>
      <trkpt lat="43.40688" lon="6.0644">
        <ele>220</ele>
        <time>2013-01-26T13:08:59Z</time>
      </trkpt>
      <trkpt lat="43.40694" lon="6.06437">
        <ele>219.60000610352</ele>
        <time>2013-01-26T13:09:00Z</time>
      </trkpt>
      <trkpt lat="43.40701" lon="6.06434">
        <ele>219.19999694824</ele>
        <time>2013-01-26T13:09:01Z</time>
      </trkpt>
      <trkpt lat="43.40714" lon="6.06431">
        <ele>218.39999389648</ele>
        <time>2013-01-26T13:09:03Z</time>
      </trkpt>
      <trkpt lat="43.40721" lon="6.06431">
        <ele>218.39999389648</ele>
        <time>2013-01-26T13:09:04Z</time>
      </trkpt>
      <trkpt lat="43.40726" lon="6.0643">
        <ele>218</ele>
        <time>2013-01-26T13:09:05Z</time>
      </trkpt>
      <trkpt lat="43.40729" lon="6.0643">
        <ele>217.60000610352</ele>
        <time>2013-01-26T13:09:06Z</time>
      </trkpt>
      <trkpt lat="43.40731" lon="6.06431">
        <ele>217.19999694824</ele>
        <time>2013-01-26T13:09:07Z</time>
      </trkpt>
      <trkpt lat="43.40732" lon="6.06431">
        <ele>216.60000610352</ele>
        <time>2013-01-26T13:09:08Z</time>
      </trkpt>
      <trkpt lat="43.40732" lon="6.06431">
        <ele>216.19999694824</ele>
        <time>2013-01-26T13:09:18Z</time>
      </trkpt>
      <trkpt lat="43.40732" lon="6.06431">
        <ele>216.19999694824</ele>
        <time>2013-01-26T13:09:24Z</time>
      </trkpt>
      <trkpt lat="43.40733" lon="6.06431">
        <ele>216.19999694824</ele>
        <time>2013-01-26T13:09:25Z</time>
      </trkpt>
      <trkpt lat="43.40744" lon="6.06429">
        <ele>216.19999694824</ele>
        <time>2013-01-26T13:09:29Z</time>
      </trkpt>
      <trkpt lat="43.40747" lon="6.06428">
        <ele>216.19999694824</ele>
        <time>2013-01-26T13:09:30Z</time>
      </trkpt>
      <trkpt lat="43.40752" lon="6.06427">
        <ele>216.19999694824</ele>
        <time>2013-01-26T13:09:31Z</time>
      </trkpt>
      <trkpt lat="43.40761" lon="6.06425">
        <ele>215.80000305176</ele>
        <time>2013-01-26T13:09:33Z</time>
      </trkpt>
      <trkpt lat="43.4077" lon="6.06422">
        <ele>215</ele>
        <time>2013-01-26T13:09:35Z</time>
      </trkpt>
      <trkpt lat="43.40774" lon="6.06421">
        <ele>214.60000610352</ele>
        <time>2013-01-26T13:09:36Z</time>
      </trkpt>
      <trkpt lat="43.40778" lon="6.06419">
        <ele>214.19999694824</ele>
        <time>2013-01-26T13:09:37Z</time>
      </trkpt>
      <trkpt lat="43.40783" lon="6.06417">
        <ele>214.19999694824</ele>
        <time>2013-01-26T13:09:38Z</time>
      </trkpt>
      <trkpt lat="43.40796" lon="6.06413">
        <ele>214.19999694824</ele>
        <time>2013-01-26T13:09:41Z</time>
      </trkpt>
      <trkpt lat="43.40825" lon="6.06422">
        <ele>214.19999694824</ele>
        <time>2013-01-26T13:09:47Z</time>
      </trkpt>
      <trkpt lat="43.40839" lon="6.06418">
        <ele>214.19999694824</ele>
        <time>2013-01-26T13:09:50Z</time>
      </trkpt>
      <trkpt lat="43.40852" lon="6.0641">
        <ele>214.19999694824</ele>
        <time>2013-01-26T13:09:53Z</time>
      </trkpt>
      <trkpt lat="43.40868" lon="6.06396">
        <ele>214.19999694824</ele>
        <time>2013-01-26T13:09:57Z</time>
      </trkpt>
      <trkpt lat="43.40872" lon="6.06391">
        <ele>214.19999694824</ele>
        <time>2013-01-26T13:09:58Z</time>
      </trkpt>
      <trkpt lat="43.40908" lon="6.06346">
        <ele>214.19999694824</ele>
        <time>2013-01-26T13:10:08Z</time>
      </trkpt>
      <trkpt lat="43.40929" lon="6.06319">
        <ele>214.19999694824</ele>
        <time>2013-01-26T13:10:14Z</time>
      </trkpt>
      <trkpt lat="43.40953" lon="6.06298">
        <ele>214.19999694824</ele>
        <time>2013-01-26T13:10:20Z</time>
      </trkpt>
      <trkpt lat="43.40961" lon="6.06302">
        <ele>214.19999694824</ele>
        <time>2013-01-26T13:10:22Z</time>
      </trkpt>
      <trkpt lat="43.40967" lon="6.06319">
        <ele>214.19999694824</ele>
        <time>2013-01-26T13:10:25Z</time>
      </trkpt>
      <trkpt lat="43.40968" lon="6.06326">
        <ele>214.19999694824</ele>
        <time>2013-01-26T13:10:26Z</time>
      </trkpt>
      <trkpt lat="43.40971" lon="6.06339">
        <ele>214.19999694824</ele>
        <time>2013-01-26T13:10:28Z</time>
      </trkpt>
      <trkpt lat="43.40976" lon="6.06356">
        <ele>214.19999694824</ele>
        <time>2013-01-26T13:10:31Z</time>
      </trkpt>
      <trkpt lat="43.40979" lon="6.06362">
        <ele>214.19999694824</ele>
        <time>2013-01-26T13:10:32Z</time>
      </trkpt>
      <trkpt lat="43.40993" lon="6.06393">
        <ele>214.19999694824</ele>
        <time>2013-01-26T13:10:37Z</time>
      </trkpt>
      <trkpt lat="43.41023" lon="6.06434">
        <ele>214.19999694824</ele>
        <time>2013-01-26T13:10:45Z</time>
      </trkpt>
      <trkpt lat="43.41052" lon="6.06471">
        <ele>214.19999694824</ele>
        <time>2013-01-26T13:10:53Z</time>
      </trkpt>
      <trkpt lat="43.41068" lon="6.06492">
        <ele>214.19999694824</ele>
        <time>2013-01-26T13:10:58Z</time>
      </trkpt>
      <trkpt lat="43.41084" lon="6.06509">
        <ele>214.19999694824</ele>
        <time>2013-01-26T13:11:03Z</time>
      </trkpt>
      <trkpt lat="43.411" lon="6.06528">
        <ele>214.19999694824</ele>
        <time>2013-01-26T13:11:09Z</time>
      </trkpt>
      <trkpt lat="43.41106" lon="6.06537">
        <ele>214.19999694824</ele>
        <time>2013-01-26T13:11:11Z</time>
      </trkpt>
      <trkpt lat="43.41116" lon="6.06551">
        <ele>214.19999694824</ele>
        <time>2013-01-26T13:11:14Z</time>
      </trkpt>
      <trkpt lat="43.41135" lon="6.06571">
        <ele>214.19999694824</ele>
        <time>2013-01-26T13:11:19Z</time>
      </trkpt>
      <trkpt lat="43.41165" lon="6.06606">
        <ele>214.19999694824</ele>
        <time>2013-01-26T13:11:27Z</time>
      </trkpt>
      <trkpt lat="43.41181" lon="6.06626">
        <ele>214.19999694824</ele>
        <time>2013-01-26T13:11:31Z</time>
      </trkpt>
      <trkpt lat="43.41202" lon="6.06651">
        <ele>214.19999694824</ele>
        <time>2013-01-26T13:11:36Z</time>
      </trkpt>
      <trkpt lat="43.4121" lon="6.0666">
        <ele>214.19999694824</ele>
        <time>2013-01-26T13:11:38Z</time>
      </trkpt>
      <trkpt lat="43.41217" lon="6.0667">
        <ele>214.19999694824</ele>
        <time>2013-01-26T13:11:40Z</time>
      </trkpt>
      <trkpt lat="43.4123" lon="6.06684">
        <ele>214.19999694824</ele>
        <time>2013-01-26T13:11:43Z</time>
      </trkpt>
      <trkpt lat="43.41258" lon="6.06721">
        <ele>214.19999694824</ele>
        <time>2013-01-26T13:11:51Z</time>
      </trkpt>
      <trkpt lat="43.41272" lon="6.0675">
        <ele>214.19999694824</ele>
        <time>2013-01-26T13:11:57Z</time>
      </trkpt>
      <trkpt lat="43.41282" lon="6.0677">
        <ele>214.60000610352</ele>
        <time>2013-01-26T13:12:01Z</time>
      </trkpt>
      <trkpt lat="43.41288" lon="6.06778">
        <ele>215.60000610352</ele>
        <time>2013-01-26T13:12:03Z</time>
      </trkpt>
      <trkpt lat="43.41293" lon="6.06785">
        <ele>216.39999389648</ele>
        <time>2013-01-26T13:12:05Z</time>
      </trkpt>
      <trkpt lat="43.41311" lon="6.06802">
        <ele>216.39999389648</ele>
        <time>2013-01-26T13:12:11Z</time>
      </trkpt>
      <trkpt lat="43.41326" lon="6.06812">
        <ele>216.39999389648</ele>
        <time>2013-01-26T13:12:17Z</time>
      </trkpt>
      <trkpt lat="43.41336" lon="6.06819">
        <ele>216.80000305176</ele>
        <time>2013-01-26T13:12:21Z</time>
      </trkpt>
      <trkpt lat="43.41337" lon="6.0682">
        <ele>217.19999694824</ele>
        <time>2013-01-26T13:12:22Z</time>
      </trkpt>
      <trkpt lat="43.41338" lon="6.06821">
        <ele>217.60000610352</ele>
        <time>2013-01-26T13:12:23Z</time>
      </trkpt>
      <trkpt lat="43.41338" lon="6.06821">
        <ele>218</ele>
        <time>2013-01-26T13:12:24Z</time>
      </trkpt>
      <trkpt lat="43.41338" lon="6.06821">
        <ele>218.39999389648</ele>
        <time>2013-01-26T13:12:36Z</time>
      </trkpt>
      <trkpt lat="43.41338" lon="6.06821">
        <ele>218.39999389648</ele>
        <time>2013-01-26T13:12:58Z</time>
      </trkpt>
      <trkpt lat="43.41339" lon="6.06821">
        <ele>218.39999389648</ele>
        <time>2013-01-26T13:13:05Z</time>
      </trkpt>
      <trkpt lat="43.41355" lon="6.06827">
        <ele>218.39999389648</ele>
        <time>2013-01-26T13:13:12Z</time>
      </trkpt>
      <trkpt lat="43.41363" lon="6.0683">
        <ele>218.39999389648</ele>
        <time>2013-01-26T13:13:17Z</time>
      </trkpt>
      <trkpt lat="43.41365" lon="6.06831">
        <ele>218.39999389648</ele>
        <time>2013-01-26T13:13:19Z</time>
      </trkpt>
      <trkpt lat="43.41365" lon="6.06831">
        <ele>218.39999389648</ele>
        <time>2013-01-26T13:13:47Z</time>
      </trkpt>
      <trkpt lat="43.41365" lon="6.06831">
        <ele>218.39999389648</ele>
        <time>2013-01-26T13:14:23Z</time>
      </trkpt>
      <trkpt lat="43.41365" lon="6.06831">
        <ele>218.39999389648</ele>
        <time>2013-01-26T13:14:44Z</time>
      </trkpt>
      <trkpt lat="43.41365" lon="6.06831">
        <ele>218.39999389648</ele>
        <time>2013-01-26T13:14:53Z</time>
      </trkpt>
      <trkpt lat="43.41365" lon="6.06832">
        <ele>218.39999389648</ele>
        <time>2013-01-26T13:15:09Z</time>
      </trkpt>
      <trkpt lat="43.41374" lon="6.06836">
        <ele>218.39999389648</ele>
        <time>2013-01-26T13:15:14Z</time>
      </trkpt>
      <trkpt lat="43.41386" lon="6.06845">
        <ele>218.39999389648</ele>
        <time>2013-01-26T13:15:18Z</time>
      </trkpt>
      <trkpt lat="43.41396" lon="6.06853">
        <ele>218.39999389648</ele>
        <time>2013-01-26T13:15:22Z</time>
      </trkpt>
      <trkpt lat="43.41411" lon="6.06876">
        <ele>218.39999389648</ele>
        <time>2013-01-26T13:15:29Z</time>
      </trkpt>
      <trkpt lat="43.41415" lon="6.06891">
        <ele>218.39999389648</ele>
        <time>2013-01-26T13:15:32Z</time>
      </trkpt>
      <trkpt lat="43.4142" lon="6.06908">
        <ele>218.39999389648</ele>
        <time>2013-01-26T13:15:35Z</time>
      </trkpt>
      <trkpt lat="43.41434" lon="6.06922">
        <ele>218.39999389648</ele>
        <time>2013-01-26T13:15:39Z</time>
      </trkpt>
      <trkpt lat="43.41452" lon="6.06916">
        <ele>218.39999389648</ele>
        <time>2013-01-26T13:15:43Z</time>
      </trkpt>
      <trkpt lat="43.41459" lon="6.06909">
        <ele>218.39999389648</ele>
        <time>2013-01-26T13:15:45Z</time>
      </trkpt>
      <trkpt lat="43.4147" lon="6.06896">
        <ele>218.39999389648</ele>
        <time>2013-01-26T13:15:48Z</time>
      </trkpt>
      <trkpt lat="43.41475" lon="6.0688">
        <ele>218.39999389648</ele>
        <time>2013-01-26T13:15:51Z</time>
      </trkpt>
      <trkpt lat="43.41474" lon="6.06844">
        <ele>218.39999389648</ele>
        <time>2013-01-26T13:15:58Z</time>
      </trkpt>
      <trkpt lat="43.41475" lon="6.06838">
        <ele>218.39999389648</ele>
        <time>2013-01-26T13:15:59Z</time>
      </trkpt>
      <trkpt lat="43.4149" lon="6.06792">
        <ele>218.39999389648</ele>
        <time>2013-01-26T13:16:09Z</time>
      </trkpt>
      <trkpt lat="43.41494" lon="6.06764">
        <ele>218.39999389648</ele>
        <time>2013-01-26T13:16:15Z</time>
      </trkpt>
      <trkpt lat="43.41495" lon="6.06759">
        <ele>218.39999389648</ele>
        <time>2013-01-26T13:16:16Z</time>
      </trkpt>
      <trkpt lat="43.41497" lon="6.06727">
        <ele>218.39999389648</ele>
        <time>2013-01-26T13:16:23Z</time>
      </trkpt>
      <trkpt lat="43.41498" lon="6.06688">
        <ele>219.60000610352</ele>
        <time>2013-01-26T13:16:31Z</time>
      </trkpt>
      <trkpt lat="43.41499" lon="6.06678">
        <ele>220.39999389648</ele>
        <time>2013-01-26T13:16:33Z</time>
      </trkpt>
      <trkpt lat="43.41504" lon="6.06639">
        <ele>220.39999389648</ele>
        <time>2013-01-26T13:16:41Z</time>
      </trkpt>
      <trkpt lat="43.4151" lon="6.06608">
        <ele>220.39999389648</ele>
        <time>2013-01-26T13:16:48Z</time>
      </trkpt>
      <trkpt lat="43.41515" lon="6.06573">
        <ele>220.39999389648</ele>
        <time>2013-01-26T13:16:56Z</time>
      </trkpt>
      <trkpt lat="43.4152" lon="6.06543">
        <ele>220.39999389648</ele>
        <time>2013-01-26T13:17:03Z</time>
      </trkpt>
      <trkpt lat="43.41526" lon="6.06512">
        <ele>220.39999389648</ele>
        <time>2013-01-26T13:17:10Z</time>
      </trkpt>
      <trkpt lat="43.41541" lon="6.06484">
        <ele>221.19999694824</ele>
        <time>2013-01-26T13:17:19Z</time>
      </trkpt>
      <trkpt lat="43.41546" lon="6.06474">
        <ele>222.39999389648</ele>
        <time>2013-01-26T13:17:22Z</time>
      </trkpt>
      <trkpt lat="43.41545" lon="6.06456">
        <ele>222.39999389648</ele>
        <time>2013-01-26T13:17:26Z</time>
      </trkpt>
      <trkpt lat="43.41546" lon="6.06431">
        <ele>222.39999389648</ele>
        <time>2013-01-26T13:17:32Z</time>
      </trkpt>
      <trkpt lat="43.4155" lon="6.06407">
        <ele>223</ele>
        <time>2013-01-26T13:17:39Z</time>
      </trkpt>
      <trkpt lat="43.41552" lon="6.06396">
        <ele>224.19999694824</ele>
        <time>2013-01-26T13:17:42Z</time>
      </trkpt>
      <trkpt lat="43.41555" lon="6.06382">
        <ele>224.60000610352</ele>
        <time>2013-01-26T13:17:46Z</time>
      </trkpt>
      <trkpt lat="43.41559" lon="6.06364">
        <ele>225.39999389648</ele>
        <time>2013-01-26T13:17:51Z</time>
      </trkpt>
      <trkpt lat="43.4156" lon="6.06357">
        <ele>226.19999694824</ele>
        <time>2013-01-26T13:17:53Z</time>
      </trkpt>
      <trkpt lat="43.41573" lon="6.06334">
        <ele>227</ele>
        <time>2013-01-26T13:18:01Z</time>
      </trkpt>
      <trkpt lat="43.41585" lon="6.06314">
        <ele>228.60000610352</ele>
        <time>2013-01-26T13:18:08Z</time>
      </trkpt>
      <trkpt lat="43.41587" lon="6.0629">
        <ele>228.60000610352</ele>
        <time>2013-01-26T13:18:15Z</time>
      </trkpt>
      <trkpt lat="43.41585" lon="6.06276">
        <ele>229</ele>
        <time>2013-01-26T13:18:19Z</time>
      </trkpt>
      <trkpt lat="43.41584" lon="6.06273">
        <ele>229.60000610352</ele>
        <time>2013-01-26T13:18:20Z</time>
      </trkpt>
      <trkpt lat="43.41589" lon="6.06265">
        <ele>230.80000305176</ele>
        <time>2013-01-26T13:18:23Z</time>
      </trkpt>
      <trkpt lat="43.41597" lon="6.06258">
        <ele>230.80000305176</ele>
        <time>2013-01-26T13:18:27Z</time>
      </trkpt>
      <trkpt lat="43.41602" lon="6.06254">
        <ele>230.80000305176</ele>
        <time>2013-01-26T13:18:29Z</time>
      </trkpt>
      <trkpt lat="43.41603" lon="6.06247">
        <ele>230.80000305176</ele>
        <time>2013-01-26T13:18:31Z</time>
      </trkpt>
      <trkpt lat="43.41605" lon="6.06233">
        <ele>230.80000305176</ele>
        <time>2013-01-26T13:18:35Z</time>
      </trkpt>
      <trkpt lat="43.41607" lon="6.0622">
        <ele>230.80000305176</ele>
        <time>2013-01-26T13:18:40Z</time>
      </trkpt>
      <trkpt lat="43.41607" lon="6.06214">
        <ele>230.80000305176</ele>
        <time>2013-01-26T13:18:42Z</time>
      </trkpt>
      <trkpt lat="43.4161" lon="6.06207">
        <ele>230.80000305176</ele>
        <time>2013-01-26T13:18:45Z</time>
      </trkpt>
      <trkpt lat="43.41612" lon="6.06208">
        <ele>230.80000305176</ele>
        <time>2013-01-26T13:18:46Z</time>
      </trkpt>
      <trkpt lat="43.41621" lon="6.06223">
        <ele>231.60000610352</ele>
        <time>2013-01-26T13:18:52Z</time>
      </trkpt>
      <trkpt lat="43.41626" lon="6.0623">
        <ele>233</ele>
        <time>2013-01-26T13:18:55Z</time>
      </trkpt>
      <trkpt lat="43.41632" lon="6.06235">
        <ele>233</ele>
        <time>2013-01-26T13:18:58Z</time>
      </trkpt>
      <trkpt lat="43.41647" lon="6.06241">
        <ele>233</ele>
        <time>2013-01-26T13:19:04Z</time>
      </trkpt>
      <trkpt lat="43.41668" lon="6.06247">
        <ele>234.60000610352</ele>
        <time>2013-01-26T13:19:13Z</time>
      </trkpt>
      <trkpt lat="43.41679" lon="6.06249">
        <ele>235</ele>
        <time>2013-01-26T13:19:17Z</time>
      </trkpt>
      <trkpt lat="43.41696" lon="6.0625">
        <ele>235</ele>
        <time>2013-01-26T13:19:23Z</time>
      </trkpt>
      <trkpt lat="43.41719" lon="6.0625">
        <ele>235</ele>
        <time>2013-01-26T13:19:31Z</time>
      </trkpt>
      <trkpt lat="43.41739" lon="6.06251">
        <ele>235</ele>
        <time>2013-01-26T13:19:39Z</time>
      </trkpt>
      <trkpt lat="43.41757" lon="6.06256">
        <ele>235</ele>
        <time>2013-01-26T13:19:46Z</time>
      </trkpt>
      <trkpt lat="43.41766" lon="6.06259">
        <ele>235.39999389648</ele>
        <time>2013-01-26T13:19:50Z</time>
      </trkpt>
      <trkpt lat="43.41773" lon="6.06263">
        <ele>236.60000610352</ele>
        <time>2013-01-26T13:19:53Z</time>
      </trkpt>
      <trkpt lat="43.41775" lon="6.06264">
        <ele>237</ele>
        <time>2013-01-26T13:19:54Z</time>
      </trkpt>
      <trkpt lat="43.41785" lon="6.06273">
        <ele>237</ele>
        <time>2013-01-26T13:19:59Z</time>
      </trkpt>
      <trkpt lat="43.418" lon="6.06286">
        <ele>238.19999694824</ele>
        <time>2013-01-26T13:20:06Z</time>
      </trkpt>
      <trkpt lat="43.41805" lon="6.0629">
        <ele>239</ele>
        <time>2013-01-26T13:20:08Z</time>
      </trkpt>
      <trkpt lat="43.41816" lon="6.06293">
        <ele>239</ele>
        <time>2013-01-26T13:20:12Z</time>
      </trkpt>
      <trkpt lat="43.41835" lon="6.06292">
        <ele>239</ele>
        <time>2013-01-26T13:20:19Z</time>
      </trkpt>
      <trkpt lat="43.4185" lon="6.06292">
        <ele>240.39999389648</ele>
        <time>2013-01-26T13:20:25Z</time>
      </trkpt>
      <trkpt lat="43.41885" lon="6.06293">
        <ele>243.19999694824</ele>
        <time>2013-01-26T13:20:39Z</time>
      </trkpt>
      <trkpt lat="43.41903" lon="6.06294">
        <ele>244</ele>
        <time>2013-01-26T13:20:47Z</time>
      </trkpt>
      <trkpt lat="43.41907" lon="6.06293">
        <ele>245</ele>
        <time>2013-01-26T13:20:49Z</time>
      </trkpt>
      <trkpt lat="43.41912" lon="6.06293">
        <ele>245.39999389648</ele>
        <time>2013-01-26T13:20:51Z</time>
      </trkpt>
      <trkpt lat="43.41929" lon="6.06291">
        <ele>245.39999389648</ele>
        <time>2013-01-26T13:20:59Z</time>
      </trkpt>
      <trkpt lat="43.41951" lon="6.06284">
        <ele>246.19999694824</ele>
        <time>2013-01-26T13:21:08Z</time>
      </trkpt>
      <trkpt lat="43.41956" lon="6.06282">
        <ele>247</ele>
        <time>2013-01-26T13:21:10Z</time>
      </trkpt>
      <trkpt lat="43.41958" lon="6.06282">
        <ele>247.39999389648</ele>
        <time>2013-01-26T13:21:11Z</time>
      </trkpt>
      <trkpt lat="43.41972" lon="6.06277">
        <ele>247.39999389648</ele>
        <time>2013-01-26T13:21:17Z</time>
      </trkpt>
      <trkpt lat="43.41979" lon="6.06274">
        <ele>247.80000305176</ele>
        <time>2013-01-26T13:21:21Z</time>
      </trkpt>
      <trkpt lat="43.41987" lon="6.06271">
        <ele>249.39999389648</ele>
        <time>2013-01-26T13:21:25Z</time>
      </trkpt>
      <trkpt lat="43.41993" lon="6.0627">
        <ele>249.39999389648</ele>
        <time>2013-01-26T13:21:28Z</time>
      </trkpt>
      <trkpt lat="43.41998" lon="6.06267">
        <ele>250.19999694824</ele>
        <time>2013-01-26T13:21:31Z</time>
      </trkpt>
      <trkpt lat="43.42014" lon="6.06262">
        <ele>251.80000305176</ele>
        <time>2013-01-26T13:21:39Z</time>
      </trkpt>
      <trkpt lat="43.42024" lon="6.0626">
        <ele>253.60000610352</ele>
        <time>2013-01-26T13:21:44Z</time>
      </trkpt>
      <trkpt lat="43.42029" lon="6.06258">
        <ele>254</ele>
        <time>2013-01-26T13:21:46Z</time>
      </trkpt>
      <trkpt lat="43.42036" lon="6.06255">
        <ele>255.60000610352</ele>
        <time>2013-01-26T13:21:50Z</time>
      </trkpt>
      <trkpt lat="43.42046" lon="6.06253">
        <ele>256</ele>
        <time>2013-01-26T13:21:55Z</time>
      </trkpt>
      <trkpt lat="43.42048" lon="6.06253">
        <ele>256.60000610352</ele>
        <time>2013-01-26T13:21:56Z</time>
      </trkpt>
      <trkpt lat="43.42055" lon="6.06249">
        <ele>257.79998779297</ele>
        <time>2013-01-26T13:22:00Z</time>
      </trkpt>
      <trkpt lat="43.42064" lon="6.06246">
        <ele>258.79998779297</ele>
        <time>2013-01-26T13:22:05Z</time>
      </trkpt>
      <trkpt lat="43.42083" lon="6.06238">
        <ele>261.20001220703</ele>
        <time>2013-01-26T13:22:15Z</time>
      </trkpt>
      <trkpt lat="43.42101" lon="6.06231">
        <ele>263</ele>
        <time>2013-01-26T13:22:25Z</time>
      </trkpt>
      <trkpt lat="43.42107" lon="6.0623">
        <ele>264.20001220703</ele>
        <time>2013-01-26T13:22:28Z</time>
      </trkpt>
      <trkpt lat="43.42125" lon="6.06223">
        <ele>265.60000610352</ele>
        <time>2013-01-26T13:22:39Z</time>
      </trkpt>
      <trkpt lat="43.42136" lon="6.0622">
        <ele>266.39999389648</ele>
        <time>2013-01-26T13:22:45Z</time>
      </trkpt>
      <trkpt lat="43.42142" lon="6.06216">
        <ele>266.39999389648</ele>
        <time>2013-01-26T13:22:50Z</time>
      </trkpt>
      <trkpt lat="43.42142" lon="6.06216">
        <ele>266.39999389648</ele>
        <time>2013-01-26T13:22:51Z</time>
      </trkpt>
      <trkpt lat="43.42146" lon="6.0621">
        <ele>266.39999389648</ele>
        <time>2013-01-26T13:22:55Z</time>
      </trkpt>
      <trkpt lat="43.42147" lon="6.06194">
        <ele>266.39999389648</ele>
        <time>2013-01-26T13:23:00Z</time>
      </trkpt>
      <trkpt lat="43.42141" lon="6.06178">
        <ele>266.39999389648</ele>
        <time>2013-01-26T13:23:04Z</time>
      </trkpt>
      <trkpt lat="43.42135" lon="6.06165">
        <ele>266.39999389648</ele>
        <time>2013-01-26T13:23:07Z</time>
      </trkpt>
      <trkpt lat="43.42133" lon="6.06159">
        <ele>266.39999389648</ele>
        <time>2013-01-26T13:23:08Z</time>
      </trkpt>
      <trkpt lat="43.42128" lon="6.06142">
        <ele>266.39999389648</ele>
        <time>2013-01-26T13:23:11Z</time>
      </trkpt>
      <trkpt lat="43.42125" lon="6.06132">
        <ele>266.39999389648</ele>
        <time>2013-01-26T13:23:13Z</time>
      </trkpt>
      <trkpt lat="43.42118" lon="6.06099">
        <ele>266.39999389648</ele>
        <time>2013-01-26T13:23:19Z</time>
      </trkpt>
      <trkpt lat="43.42115" lon="6.06074">
        <ele>266.39999389648</ele>
        <time>2013-01-26T13:23:25Z</time>
      </trkpt>
      <trkpt lat="43.42112" lon="6.06057">
        <ele>266.79998779297</ele>
        <time>2013-01-26T13:23:29Z</time>
      </trkpt>
      <trkpt lat="43.42111" lon="6.06049">
        <ele>267.60000610352</ele>
        <time>2013-01-26T13:23:31Z</time>
      </trkpt>
      <trkpt lat="43.4211" lon="6.06045">
        <ele>268.20001220703</ele>
        <time>2013-01-26T13:23:32Z</time>
      </trkpt>
      <trkpt lat="43.42109" lon="6.06041">
        <ele>268.60000610352</ele>
        <time>2013-01-26T13:23:33Z</time>
      </trkpt>
      <trkpt lat="43.42105" lon="6.06025">
        <ele>268.60000610352</ele>
        <time>2013-01-26T13:23:38Z</time>
      </trkpt>
      <trkpt lat="43.42101" lon="6.06014">
        <ele>268.60000610352</ele>
        <time>2013-01-26T13:23:41Z</time>
      </trkpt>
      <trkpt lat="43.42098" lon="6.06002">
        <ele>268.60000610352</ele>
        <time>2013-01-26T13:23:44Z</time>
      </trkpt>
      <trkpt lat="43.42093" lon="6.05982">
        <ele>268.60000610352</ele>
        <time>2013-01-26T13:23:49Z</time>
      </trkpt>
      <trkpt lat="43.42086" lon="6.05952">
        <ele>268.60000610352</ele>
        <time>2013-01-26T13:23:57Z</time>
      </trkpt>
      <trkpt lat="43.4208" lon="6.0592">
        <ele>268.60000610352</ele>
        <time>2013-01-26T13:24:03Z</time>
      </trkpt>
      <trkpt lat="43.42073" lon="6.0589">
        <ele>268.60000610352</ele>
        <time>2013-01-26T13:24:09Z</time>
      </trkpt>
      <trkpt lat="43.42064" lon="6.05852">
        <ele>268.60000610352</ele>
        <time>2013-01-26T13:24:16Z</time>
      </trkpt>
      <trkpt lat="43.42057" lon="6.0582">
        <ele>268</ele>
        <time>2013-01-26T13:24:20Z</time>
      </trkpt>
      <trkpt lat="43.42055" lon="6.05811">
        <ele>267.39999389648</ele>
        <time>2013-01-26T13:24:21Z</time>
      </trkpt>
      <trkpt lat="43.42053" lon="6.05802">
        <ele>267</ele>
        <time>2013-01-26T13:24:22Z</time>
      </trkpt>
      <trkpt lat="43.42051" lon="6.05793">
        <ele>266.39999389648</ele>
        <time>2013-01-26T13:24:23Z</time>
      </trkpt>
      <trkpt lat="43.4205" lon="6.05784">
        <ele>265.79998779297</ele>
        <time>2013-01-26T13:24:24Z</time>
      </trkpt>
      <trkpt lat="43.42047" lon="6.05768">
        <ele>265.79998779297</ele>
        <time>2013-01-26T13:24:26Z</time>
      </trkpt>
      <trkpt lat="43.42037" lon="6.05717">
        <ele>265.39999389648</ele>
        <time>2013-01-26T13:24:33Z</time>
      </trkpt>
      <trkpt lat="43.42033" lon="6.05697">
        <ele>264.20001220703</ele>
        <time>2013-01-26T13:24:36Z</time>
      </trkpt>
      <trkpt lat="43.4203" lon="6.05675">
        <ele>263.79998779297</ele>
        <time>2013-01-26T13:24:40Z</time>
      </trkpt>
      <trkpt lat="43.42027" lon="6.05663">
        <ele>263.79998779297</ele>
        <time>2013-01-26T13:24:42Z</time>
      </trkpt>
      <trkpt lat="43.42026" lon="6.05652">
        <ele>263.79998779297</ele>
        <time>2013-01-26T13:24:44Z</time>
      </trkpt>
      <trkpt lat="43.42023" lon="6.0563">
        <ele>264.20001220703</ele>
        <time>2013-01-26T13:24:48Z</time>
      </trkpt>
      <trkpt lat="43.42021" lon="6.05619">
        <ele>265</ele>
        <time>2013-01-26T13:24:50Z</time>
      </trkpt>
      <trkpt lat="43.42016" lon="6.05592">
        <ele>267</ele>
        <time>2013-01-26T13:24:55Z</time>
      </trkpt>
      <trkpt lat="43.42011" lon="6.05564">
        <ele>268.39999389648</ele>
        <time>2013-01-26T13:25:02Z</time>
      </trkpt>
      <trkpt lat="43.42009" lon="6.05551">
        <ele>269.60000610352</ele>
        <time>2013-01-26T13:25:05Z</time>
      </trkpt>
      <trkpt lat="43.42007" lon="6.05534">
        <ele>270</ele>
        <time>2013-01-26T13:25:09Z</time>
      </trkpt>
      <trkpt lat="43.42004" lon="6.05509">
        <ele>271.60000610352</ele>
        <time>2013-01-26T13:25:15Z</time>
      </trkpt>
      <trkpt lat="43.42003" lon="6.05505">
        <ele>272</ele>
        <time>2013-01-26T13:25:16Z</time>
      </trkpt>
      <trkpt lat="43.42001" lon="6.05498">
        <ele>272</ele>
        <time>2013-01-26T13:25:18Z</time>
      </trkpt>
      <trkpt lat="43.41995" lon="6.05471">
        <ele>272</ele>
        <time>2013-01-26T13:25:25Z</time>
      </trkpt>
      <trkpt lat="43.4199" lon="6.05456">
        <ele>272</ele>
        <time>2013-01-26T13:25:28Z</time>
      </trkpt>
      <trkpt lat="43.41985" lon="6.0544">
        <ele>272</ele>
        <time>2013-01-26T13:25:31Z</time>
      </trkpt>
      <trkpt lat="43.41982" lon="6.05426">
        <ele>272</ele>
        <time>2013-01-26T13:25:33Z</time>
      </trkpt>
      <trkpt lat="43.41977" lon="6.05411">
        <ele>272</ele>
        <time>2013-01-26T13:25:35Z</time>
      </trkpt>
      <trkpt lat="43.41969" lon="6.05377">
        <ele>272</ele>
        <time>2013-01-26T13:25:39Z</time>
      </trkpt>
      <trkpt lat="43.41966" lon="6.05368">
        <ele>271.20001220703</ele>
        <time>2013-01-26T13:25:40Z</time>
      </trkpt>
      <trkpt lat="43.41964" lon="6.05359">
        <ele>270.79998779297</ele>
        <time>2013-01-26T13:25:41Z</time>
      </trkpt>
      <trkpt lat="43.41962" lon="6.05349">
        <ele>270.39999389648</ele>
        <time>2013-01-26T13:25:42Z</time>
      </trkpt>
      <trkpt lat="43.41959" lon="6.05339">
        <ele>269.79998779297</ele>
        <time>2013-01-26T13:25:43Z</time>
      </trkpt>
      <trkpt lat="43.41954" lon="6.05319">
        <ele>269.39999389648</ele>
        <time>2013-01-26T13:25:45Z</time>
      </trkpt>
      <trkpt lat="43.41949" lon="6.05298">
        <ele>268.60000610352</ele>
        <time>2013-01-26T13:25:47Z</time>
      </trkpt>
      <trkpt lat="43.41947" lon="6.05287">
        <ele>268.20001220703</ele>
        <time>2013-01-26T13:25:48Z</time>
      </trkpt>
      <trkpt lat="43.41945" lon="6.05276">
        <ele>267.60000610352</ele>
        <time>2013-01-26T13:25:49Z</time>
      </trkpt>
      <trkpt lat="43.41943" lon="6.05266">
        <ele>267.20001220703</ele>
        <time>2013-01-26T13:25:50Z</time>
      </trkpt>
      <trkpt lat="43.41942" lon="6.05256">
        <ele>266.60000610352</ele>
        <time>2013-01-26T13:25:51Z</time>
      </trkpt>
      <trkpt lat="43.4194" lon="6.05247">
        <ele>266.20001220703</ele>
        <time>2013-01-26T13:25:52Z</time>
      </trkpt>
      <trkpt lat="43.4194" lon="6.05237">
        <ele>265.60000610352</ele>
        <time>2013-01-26T13:25:53Z</time>
      </trkpt>
      <trkpt lat="43.41939" lon="6.05228">
        <ele>265.20001220703</ele>
        <time>2013-01-26T13:25:54Z</time>
      </trkpt>
      <trkpt lat="43.41938" lon="6.05218">
        <ele>264.60000610352</ele>
        <time>2013-01-26T13:25:55Z</time>
      </trkpt>
      <trkpt lat="43.41937" lon="6.05199">
        <ele>263.60000610352</ele>
        <time>2013-01-26T13:25:57Z</time>
      </trkpt>
      <trkpt lat="43.41936" lon="6.0519">
        <ele>263.60000610352</ele>
        <time>2013-01-26T13:25:58Z</time>
      </trkpt>
      <trkpt lat="43.41936" lon="6.05182">
        <ele>263.20001220703</ele>
        <time>2013-01-26T13:25:59Z</time>
      </trkpt>
      <trkpt lat="43.41936" lon="6.05174">
        <ele>262.79998779297</ele>
        <time>2013-01-26T13:26:00Z</time>
      </trkpt>
      <trkpt lat="43.41936" lon="6.05167">
        <ele>262.39999389648</ele>
        <time>2013-01-26T13:26:01Z</time>
      </trkpt>
      <trkpt lat="43.41936" lon="6.05161">
        <ele>261.79998779297</ele>
        <time>2013-01-26T13:26:02Z</time>
      </trkpt>
      <trkpt lat="43.41938" lon="6.05155">
        <ele>261.20001220703</ele>
        <time>2013-01-26T13:26:03Z</time>
      </trkpt>
      <trkpt lat="43.41941" lon="6.05151">
        <ele>260.60000610352</ele>
        <time>2013-01-26T13:26:04Z</time>
      </trkpt>
      <trkpt lat="43.41945" lon="6.05148">
        <ele>259.39999389648</ele>
        <time>2013-01-26T13:26:05Z</time>
      </trkpt>
      <trkpt lat="43.41948" lon="6.05145">
        <ele>258.79998779297</ele>
        <time>2013-01-26T13:26:06Z</time>
      </trkpt>
      <trkpt lat="43.41954" lon="6.05142">
        <ele>258.79998779297</ele>
        <time>2013-01-26T13:26:08Z</time>
      </trkpt>
      <trkpt lat="43.41963" lon="6.05138">
        <ele>258.79998779297</ele>
        <time>2013-01-26T13:26:11Z</time>
      </trkpt>
      <trkpt lat="43.41972" lon="6.05134">
        <ele>258.79998779297</ele>
        <time>2013-01-26T13:26:14Z</time>
      </trkpt>
      <trkpt lat="43.41981" lon="6.05131">
        <ele>258.79998779297</ele>
        <time>2013-01-26T13:26:17Z</time>
      </trkpt>
      <trkpt lat="43.41994" lon="6.0513">
        <ele>258.79998779297</ele>
        <time>2013-01-26T13:26:22Z</time>
      </trkpt>
      <trkpt lat="43.42012" lon="6.05124">
        <ele>260.60000610352</ele>
        <time>2013-01-26T13:26:28Z</time>
      </trkpt>
      <trkpt lat="43.42019" lon="6.05122">
        <ele>261</ele>
        <time>2013-01-26T13:26:30Z</time>
      </trkpt>
      <trkpt lat="43.42033" lon="6.05118">
        <ele>261</ele>
        <time>2013-01-26T13:26:35Z</time>
      </trkpt>
      <trkpt lat="43.42051" lon="6.05115">
        <ele>261</ele>
        <time>2013-01-26T13:26:42Z</time>
      </trkpt>
      <trkpt lat="43.42065" lon="6.05113">
        <ele>261</ele>
        <time>2013-01-26T13:26:47Z</time>
      </trkpt>
      <trkpt lat="43.4207" lon="6.05113">
        <ele>261.79998779297</ele>
        <time>2013-01-26T13:26:49Z</time>
      </trkpt>
      <trkpt lat="43.42092" lon="6.05116">
        <ele>263</ele>
        <time>2013-01-26T13:26:58Z</time>
      </trkpt>
      <trkpt lat="43.42109" lon="6.05115">
        <ele>264.20001220703</ele>
        <time>2013-01-26T13:27:05Z</time>
      </trkpt>
      <trkpt lat="43.42119" lon="6.0512">
        <ele>265</ele>
        <time>2013-01-26T13:27:09Z</time>
      </trkpt>
      <trkpt lat="43.42133" lon="6.05131">
        <ele>265</ele>
        <time>2013-01-26T13:27:15Z</time>
      </trkpt>
      <trkpt lat="43.42141" lon="6.05141">
        <ele>265.79998779297</ele>
        <time>2013-01-26T13:27:19Z</time>
      </trkpt>
      <trkpt lat="43.42146" lon="6.05147">
        <ele>266.79998779297</ele>
        <time>2013-01-26T13:27:21Z</time>
      </trkpt>
      <trkpt lat="43.42147" lon="6.0515">
        <ele>267.20001220703</ele>
        <time>2013-01-26T13:27:22Z</time>
      </trkpt>
      <trkpt lat="43.42163" lon="6.05163">
        <ele>267.20001220703</ele>
        <time>2013-01-26T13:27:29Z</time>
      </trkpt>
      <trkpt lat="43.42179" lon="6.05171">
        <ele>267.20001220703</ele>
        <time>2013-01-26T13:27:36Z</time>
      </trkpt>
      <trkpt lat="43.42189" lon="6.05178">
        <ele>267.20001220703</ele>
        <time>2013-01-26T13:27:41Z</time>
      </trkpt>
      <trkpt lat="43.42202" lon="6.05187">
        <ele>267.60000610352</ele>
        <time>2013-01-26T13:27:48Z</time>
      </trkpt>
      <trkpt lat="43.42204" lon="6.05188">
        <ele>268</ele>
        <time>2013-01-26T13:27:49Z</time>
      </trkpt>
      <trkpt lat="43.4221" lon="6.0519">
        <ele>269.20001220703</ele>
        <time>2013-01-26T13:27:52Z</time>
      </trkpt>
      <trkpt lat="43.42215" lon="6.05191">
        <ele>269.20001220703</ele>
        <time>2013-01-26T13:27:54Z</time>
      </trkpt>
      <trkpt lat="43.42226" lon="6.052">
        <ele>269.20001220703</ele>
        <time>2013-01-26T13:28:00Z</time>
      </trkpt>
      <trkpt lat="43.42236" lon="6.05211">
        <ele>269.20001220703</ele>
        <time>2013-01-26T13:28:06Z</time>
      </trkpt>
      <trkpt lat="43.42261" lon="6.05214">
        <ele>271.20001220703</ele>
        <time>2013-01-26T13:28:18Z</time>
      </trkpt>
      <trkpt lat="43.42276" lon="6.05216">
        <ele>271.20001220703</ele>
        <time>2013-01-26T13:28:25Z</time>
      </trkpt>
      <trkpt lat="43.42286" lon="6.05219">
        <ele>271.60000610352</ele>
        <time>2013-01-26T13:28:30Z</time>
      </trkpt>
      <trkpt lat="43.42292" lon="6.05221">
        <ele>273.20001220703</ele>
        <time>2013-01-26T13:28:33Z</time>
      </trkpt>
      <trkpt lat="43.42312" lon="6.05223">
        <ele>273.20001220703</ele>
        <time>2013-01-26T13:28:43Z</time>
      </trkpt>
      <trkpt lat="43.42327" lon="6.05228">
        <ele>274.79998779297</ele>
        <time>2013-01-26T13:28:51Z</time>
      </trkpt>
      <trkpt lat="43.42336" lon="6.0523">
        <ele>275.20001220703</ele>
        <time>2013-01-26T13:28:56Z</time>
      </trkpt>
      <trkpt lat="43.42337" lon="6.05231">
        <ele>275.20001220703</ele>
        <time>2013-01-26T13:28:57Z</time>
      </trkpt>
      <trkpt lat="43.42341" lon="6.05232">
        <ele>275.60000610352</ele>
        <time>2013-01-26T13:28:59Z</time>
      </trkpt>
      <trkpt lat="43.42344" lon="6.05232">
        <ele>276.60000610352</ele>
        <time>2013-01-26T13:29:01Z</time>
      </trkpt>
      <trkpt lat="43.4235" lon="6.05232">
        <ele>277.39999389648</ele>
        <time>2013-01-26T13:29:05Z</time>
      </trkpt>
      <trkpt lat="43.42363" lon="6.05229">
        <ele>277.39999389648</ele>
        <time>2013-01-26T13:29:12Z</time>
      </trkpt>
      <trkpt lat="43.42374" lon="6.05228">
        <ele>278.20001220703</ele>
        <time>2013-01-26T13:29:19Z</time>
      </trkpt>
      <trkpt lat="43.42379" lon="6.05228">
        <ele>279.39999389648</ele>
        <time>2013-01-26T13:29:22Z</time>
      </trkpt>
      <trkpt lat="43.42395" lon="6.05225">
        <ele>279.39999389648</ele>
        <time>2013-01-26T13:29:31Z</time>
      </trkpt>
      <trkpt lat="43.42401" lon="6.05223">
        <ele>279.39999389648</ele>
        <time>2013-01-26T13:29:35Z</time>
      </trkpt>
      <trkpt lat="43.42422" lon="6.05223">
        <ele>281.39999389648</ele>
        <time>2013-01-26T13:29:46Z</time>
      </trkpt>
      <trkpt lat="43.42427" lon="6.05223">
        <ele>281.39999389648</ele>
        <time>2013-01-26T13:29:48Z</time>
      </trkpt>
      <trkpt lat="43.4244" lon="6.05221">
        <ele>281.39999389648</ele>
        <time>2013-01-26T13:29:55Z</time>
      </trkpt>
      <trkpt lat="43.42451" lon="6.05216">
        <ele>281.39999389648</ele>
        <time>2013-01-26T13:30:00Z</time>
      </trkpt>
      <trkpt lat="43.42454" lon="6.05215">
        <ele>282</ele>
        <time>2013-01-26T13:30:01Z</time>
      </trkpt>
      <trkpt lat="43.42457" lon="6.05214">
        <ele>283</ele>
        <time>2013-01-26T13:30:03Z</time>
      </trkpt>
      <trkpt lat="43.42459" lon="6.05214">
        <ele>283.79998779297</ele>
        <time>2013-01-26T13:30:05Z</time>
      </trkpt>
      <trkpt lat="43.42462" lon="6.05213">
        <ele>283.79998779297</ele>
        <time>2013-01-26T13:30:07Z</time>
      </trkpt>
      <trkpt lat="43.42464" lon="6.05213">
        <ele>284.39999389648</ele>
        <time>2013-01-26T13:30:10Z</time>
      </trkpt>
      <trkpt lat="43.42465" lon="6.05213">
        <ele>284.79998779297</ele>
        <time>2013-01-26T13:30:11Z</time>
      </trkpt>
      <trkpt lat="43.42466" lon="6.05213">
        <ele>286</ele>
        <time>2013-01-26T13:30:13Z</time>
      </trkpt>
      <trkpt lat="43.42467" lon="6.05213">
        <ele>286</ele>
        <time>2013-01-26T13:30:18Z</time>
      </trkpt>
      <trkpt lat="43.42467" lon="6.05213">
        <ele>286</ele>
        <time>2013-01-26T13:30:38Z</time>
      </trkpt>
      <trkpt lat="43.42467" lon="6.05213">
        <ele>286</ele>
        <time>2013-01-26T13:30:51Z</time>
      </trkpt>
      <trkpt lat="43.42467" lon="6.05213">
        <ele>286</ele>
        <time>2013-01-26T13:30:57Z</time>
      </trkpt>
      <trkpt lat="43.42467" lon="6.05213">
        <ele>286</ele>
        <time>2013-01-26T13:31:20Z</time>
      </trkpt>
      <trkpt lat="43.42467" lon="6.05213">
        <ele>286</ele>
        <time>2013-01-26T13:31:41Z</time>
      </trkpt>
      <trkpt lat="43.42467" lon="6.05213">
        <ele>286</ele>
        <time>2013-01-26T13:31:48Z</time>
      </trkpt>
      <trkpt lat="43.42482" lon="6.05216">
        <ele>286</ele>
        <time>2013-01-26T13:31:59Z</time>
      </trkpt>
      <trkpt lat="43.4249" lon="6.05221">
        <ele>286</ele>
        <time>2013-01-26T13:32:04Z</time>
      </trkpt>
      <trkpt lat="43.42492" lon="6.05222">
        <ele>286</ele>
        <time>2013-01-26T13:32:05Z</time>
      </trkpt>
      <trkpt lat="43.42496" lon="6.05223">
        <ele>286</ele>
        <time>2013-01-26T13:32:08Z</time>
      </trkpt>
      <trkpt lat="43.425" lon="6.05223">
        <ele>286</ele>
        <time>2013-01-26T13:32:10Z</time>
      </trkpt>
      <trkpt lat="43.4251" lon="6.05225">
        <ele>286</ele>
        <time>2013-01-26T13:32:16Z</time>
      </trkpt>
      <trkpt lat="43.42519" lon="6.05224">
        <ele>286</ele>
        <time>2013-01-26T13:32:22Z</time>
      </trkpt>
      <trkpt lat="43.42537" lon="6.05222">
        <ele>286</ele>
        <time>2013-01-26T13:32:33Z</time>
      </trkpt>
      <trkpt lat="43.42542" lon="6.05219">
        <ele>286</ele>
        <time>2013-01-26T13:32:37Z</time>
      </trkpt>
      <trkpt lat="43.42545" lon="6.05218">
        <ele>287</ele>
        <time>2013-01-26T13:32:39Z</time>
      </trkpt>
      <trkpt lat="43.42549" lon="6.05218">
        <ele>288.20001220703</ele>
        <time>2013-01-26T13:32:41Z</time>
      </trkpt>
      <trkpt lat="43.4255" lon="6.05218">
        <ele>288.20001220703</ele>
        <time>2013-01-26T13:32:42Z</time>
      </trkpt>
      <trkpt lat="43.42556" lon="6.05218">
        <ele>288.20001220703</ele>
        <time>2013-01-26T13:32:48Z</time>
      </trkpt>
      <trkpt lat="43.42557" lon="6.05219">
        <ele>288.20001220703</ele>
        <time>2013-01-26T13:32:53Z</time>
      </trkpt>
      <trkpt lat="43.4257" lon="6.05221">
        <ele>288.20001220703</ele>
        <time>2013-01-26T13:32:59Z</time>
      </trkpt>
      <trkpt lat="43.42579" lon="6.05227">
        <ele>288.20001220703</ele>
        <time>2013-01-26T13:33:05Z</time>
      </trkpt>
      <trkpt lat="43.42587" lon="6.05233">
        <ele>288.20001220703</ele>
        <time>2013-01-26T13:33:10Z</time>
      </trkpt>
      <trkpt lat="43.42592" lon="6.05236">
        <ele>288.20001220703</ele>
        <time>2013-01-26T13:33:13Z</time>
      </trkpt>
      <trkpt lat="43.42604" lon="6.05248">
        <ele>288.20001220703</ele>
        <time>2013-01-26T13:33:21Z</time>
      </trkpt>
      <trkpt lat="43.42611" lon="6.05256">
        <ele>288.20001220703</ele>
        <time>2013-01-26T13:33:25Z</time>
      </trkpt>
      <trkpt lat="43.42614" lon="6.05258">
        <ele>288.20001220703</ele>
        <time>2013-01-26T13:33:27Z</time>
      </trkpt>
      <trkpt lat="43.4262" lon="6.0526">
        <ele>289</ele>
        <time>2013-01-26T13:33:30Z</time>
      </trkpt>
      <trkpt lat="43.42632" lon="6.05274">
        <ele>290.39999389648</ele>
        <time>2013-01-26T13:33:40Z</time>
      </trkpt>
      <trkpt lat="43.42645" lon="6.05282">
        <ele>290.39999389648</ele>
        <time>2013-01-26T13:33:49Z</time>
      </trkpt>
      <trkpt lat="43.42654" lon="6.05294">
        <ele>291.60000610352</ele>
        <time>2013-01-26T13:33:57Z</time>
      </trkpt>
      <trkpt lat="43.42655" lon="6.05297">
        <ele>292.39999389648</ele>
        <time>2013-01-26T13:33:59Z</time>
      </trkpt>
      <trkpt lat="43.4266" lon="6.05303">
        <ele>292.39999389648</ele>
        <time>2013-01-26T13:34:04Z</time>
      </trkpt>
      <trkpt lat="43.42664" lon="6.05312">
        <ele>292.39999389648</ele>
        <time>2013-01-26T13:34:09Z</time>
      </trkpt>
      <trkpt lat="43.42671" lon="6.05323">
        <ele>292.39999389648</ele>
        <time>2013-01-26T13:34:15Z</time>
      </trkpt>
      <trkpt lat="43.42674" lon="6.05328">
        <ele>292.39999389648</ele>
        <time>2013-01-26T13:34:17Z</time>
      </trkpt>
      <trkpt lat="43.42678" lon="6.05332">
        <ele>294.20001220703</ele>
        <time>2013-01-26T13:34:20Z</time>
      </trkpt>
      <trkpt lat="43.42679" lon="6.05334">
        <ele>294.60000610352</ele>
        <time>2013-01-26T13:34:21Z</time>
      </trkpt>
      <trkpt lat="43.42682" lon="6.05337">
        <ele>294.60000610352</ele>
        <time>2013-01-26T13:34:24Z</time>
      </trkpt>
      <trkpt lat="43.42683" lon="6.05338">
        <ele>294.60000610352</ele>
        <time>2013-01-26T13:34:26Z</time>
      </trkpt>
      <trkpt lat="43.42685" lon="6.05339">
        <ele>294.60000610352</ele>
        <time>2013-01-26T13:34:31Z</time>
      </trkpt>
      <trkpt lat="43.42685" lon="6.05339">
        <ele>294.60000610352</ele>
        <time>2013-01-26T13:34:34Z</time>
      </trkpt>
      <trkpt lat="43.42685" lon="6.05339">
        <ele>294.60000610352</ele>
        <time>2013-01-26T13:34:37Z</time>
      </trkpt>
      <trkpt lat="43.42686" lon="6.0534">
        <ele>294.60000610352</ele>
        <time>2013-01-26T13:34:40Z</time>
      </trkpt>
      <trkpt lat="43.42688" lon="6.0534">
        <ele>294.60000610352</ele>
        <time>2013-01-26T13:34:41Z</time>
      </trkpt>
      <trkpt lat="43.42693" lon="6.05342">
        <ele>295</ele>
        <time>2013-01-26T13:34:45Z</time>
      </trkpt>
      <trkpt lat="43.42694" lon="6.05343">
        <ele>295.39999389648</ele>
        <time>2013-01-26T13:34:46Z</time>
      </trkpt>
      <trkpt lat="43.42698" lon="6.05342">
        <ele>296.20001220703</ele>
        <time>2013-01-26T13:34:48Z</time>
      </trkpt>
      <trkpt lat="43.42699" lon="6.05342">
        <ele>296.60000610352</ele>
        <time>2013-01-26T13:34:49Z</time>
      </trkpt>
      <trkpt lat="43.42713" lon="6.05341">
        <ele>296.60000610352</ele>
        <time>2013-01-26T13:34:56Z</time>
      </trkpt>
      <trkpt lat="43.42715" lon="6.05342">
        <ele>296.60000610352</ele>
        <time>2013-01-26T13:34:57Z</time>
      </trkpt>
      <trkpt lat="43.42718" lon="6.05348">
        <ele>296.60000610352</ele>
        <time>2013-01-26T13:35:01Z</time>
      </trkpt>
      <trkpt lat="43.42719" lon="6.05355">
        <ele>298.20001220703</ele>
        <time>2013-01-26T13:35:05Z</time>
      </trkpt>
      <trkpt lat="43.42719" lon="6.05357">
        <ele>298.60000610352</ele>
        <time>2013-01-26T13:35:06Z</time>
      </trkpt>
      <trkpt lat="43.42718" lon="6.05379">
        <ele>298.60000610352</ele>
        <time>2013-01-26T13:35:16Z</time>
      </trkpt>
      <trkpt lat="43.42718" lon="6.05381">
        <ele>298.60000610352</ele>
        <time>2013-01-26T13:35:17Z</time>
      </trkpt>
      <trkpt lat="43.42721" lon="6.05391">
        <ele>299.79998779297</ele>
        <time>2013-01-26T13:35:22Z</time>
      </trkpt>
      <trkpt lat="43.42723" lon="6.05401">
        <ele>300.79998779297</ele>
        <time>2013-01-26T13:35:28Z</time>
      </trkpt>
      <trkpt lat="43.42728" lon="6.05418">
        <ele>302.79998779297</ele>
        <time>2013-01-26T13:35:37Z</time>
      </trkpt>
      <trkpt lat="43.42731" lon="6.05431">
        <ele>302.79998779297</ele>
        <time>2013-01-26T13:35:44Z</time>
      </trkpt>
      <trkpt lat="43.42731" lon="6.05433">
        <ele>302.79998779297</ele>
        <time>2013-01-26T13:35:45Z</time>
      </trkpt>
      <trkpt lat="43.42731" lon="6.05442">
        <ele>302.79998779297</ele>
        <time>2013-01-26T13:35:50Z</time>
      </trkpt>
      <trkpt lat="43.4273" lon="6.05453">
        <ele>302.79998779297</ele>
        <time>2013-01-26T13:35:56Z</time>
      </trkpt>
      <trkpt lat="43.42728" lon="6.05456">
        <ele>303.60000610352</ele>
        <time>2013-01-26T13:35:58Z</time>
      </trkpt>
      <trkpt lat="43.42722" lon="6.05468">
        <ele>304.79998779297</ele>
        <time>2013-01-26T13:36:07Z</time>
      </trkpt>
      <trkpt lat="43.42723" lon="6.05476">
        <ele>304.79998779297</ele>
        <time>2013-01-26T13:36:12Z</time>
      </trkpt>
      <trkpt lat="43.42723" lon="6.05486">
        <ele>304.79998779297</ele>
        <time>2013-01-26T13:36:18Z</time>
      </trkpt>
      <trkpt lat="43.42726" lon="6.05498">
        <ele>305.60000610352</ele>
        <time>2013-01-26T13:36:24Z</time>
      </trkpt>
      <trkpt lat="43.42726" lon="6.05502">
        <ele>306.60000610352</ele>
        <time>2013-01-26T13:36:26Z</time>
      </trkpt>
      <trkpt lat="43.42726" lon="6.05504">
        <ele>307</ele>
        <time>2013-01-26T13:36:27Z</time>
      </trkpt>
      <trkpt lat="43.42726" lon="6.05509">
        <ele>307</ele>
        <time>2013-01-26T13:36:30Z</time>
      </trkpt>
      <trkpt lat="43.42728" lon="6.05517">
        <ele>307</ele>
        <time>2013-01-26T13:36:34Z</time>
      </trkpt>
      <trkpt lat="43.42728" lon="6.05519">
        <ele>307</ele>
        <time>2013-01-26T13:36:36Z</time>
      </trkpt>
      <trkpt lat="43.42728" lon="6.05521">
        <ele>307</ele>
        <time>2013-01-26T13:36:41Z</time>
      </trkpt>
      <trkpt lat="43.42728" lon="6.05526">
        <ele>307.39999389648</ele>
        <time>2013-01-26T13:36:47Z</time>
      </trkpt>
      <trkpt lat="43.42728" lon="6.05526">
        <ele>308.20001220703</ele>
        <time>2013-01-26T13:36:48Z</time>
      </trkpt>
      <trkpt lat="43.42728" lon="6.05527">
        <ele>309</ele>
        <time>2013-01-26T13:36:50Z</time>
      </trkpt>
      <trkpt lat="43.42729" lon="6.05528">
        <ele>309</ele>
        <time>2013-01-26T13:36:52Z</time>
      </trkpt>
      <trkpt lat="43.4273" lon="6.05533">
        <ele>309</ele>
        <time>2013-01-26T13:37:02Z</time>
      </trkpt>
      <trkpt lat="43.42731" lon="6.05537">
        <ele>309</ele>
        <time>2013-01-26T13:37:04Z</time>
      </trkpt>
      <trkpt lat="43.42732" lon="6.05544">
        <ele>309</ele>
        <time>2013-01-26T13:37:07Z</time>
      </trkpt>
      <trkpt lat="43.42735" lon="6.05554">
        <ele>309</ele>
        <time>2013-01-26T13:37:11Z</time>
      </trkpt>
      <trkpt lat="43.42736" lon="6.05559">
        <ele>309</ele>
        <time>2013-01-26T13:37:13Z</time>
      </trkpt>
      <trkpt lat="43.42737" lon="6.05562">
        <ele>309.39999389648</ele>
        <time>2013-01-26T13:37:14Z</time>
      </trkpt>
      <trkpt lat="43.42738" lon="6.05567">
        <ele>310.20001220703</ele>
        <time>2013-01-26T13:37:16Z</time>
      </trkpt>
      <trkpt lat="43.42741" lon="6.05571">
        <ele>311</ele>
        <time>2013-01-26T13:37:18Z</time>
      </trkpt>
      <trkpt lat="43.42746" lon="6.05574">
        <ele>311</ele>
        <time>2013-01-26T13:37:21Z</time>
      </trkpt>
      <trkpt lat="43.42751" lon="6.05583">
        <ele>311.39999389648</ele>
        <time>2013-01-26T13:37:26Z</time>
      </trkpt>
      <trkpt lat="43.42752" lon="6.05586">
        <ele>312.20001220703</ele>
        <time>2013-01-26T13:37:28Z</time>
      </trkpt>
      <trkpt lat="43.42753" lon="6.0559">
        <ele>313</ele>
        <time>2013-01-26T13:37:30Z</time>
      </trkpt>
      <trkpt lat="43.42753" lon="6.056">
        <ele>313</ele>
        <time>2013-01-26T13:37:35Z</time>
      </trkpt>
      <trkpt lat="43.42752" lon="6.05606">
        <ele>313.79998779297</ele>
        <time>2013-01-26T13:37:38Z</time>
      </trkpt>
      <trkpt lat="43.42751" lon="6.05613">
        <ele>315</ele>
        <time>2013-01-26T13:37:41Z</time>
      </trkpt>
      <trkpt lat="43.42747" lon="6.05624">
        <ele>315</ele>
        <time>2013-01-26T13:37:47Z</time>
      </trkpt>
      <trkpt lat="43.42746" lon="6.05628">
        <ele>315.39999389648</ele>
        <time>2013-01-26T13:37:50Z</time>
      </trkpt>
      <trkpt lat="43.42745" lon="6.0563">
        <ele>315.79998779297</ele>
        <time>2013-01-26T13:37:51Z</time>
      </trkpt>
      <trkpt lat="43.42744" lon="6.05631">
        <ele>316.20001220703</ele>
        <time>2013-01-26T13:37:52Z</time>
      </trkpt>
      <trkpt lat="43.42742" lon="6.05635">
        <ele>317</ele>
        <time>2013-01-26T13:37:54Z</time>
      </trkpt>
      <trkpt lat="43.42739" lon="6.05637">
        <ele>317</ele>
        <time>2013-01-26T13:37:59Z</time>
      </trkpt>
      <trkpt lat="43.42739" lon="6.05637">
        <ele>317</ele>
        <time>2013-01-26T13:38:18Z</time>
      </trkpt>
      <trkpt lat="43.42739" lon="6.05637">
        <ele>317</ele>
        <time>2013-01-26T13:38:35Z</time>
      </trkpt>
      <trkpt lat="43.42739" lon="6.05637">
        <ele>317</ele>
        <time>2013-01-26T13:38:38Z</time>
      </trkpt>
      <trkpt lat="43.42739" lon="6.05637">
        <ele>317</ele>
        <time>2013-01-26T13:38:47Z</time>
      </trkpt>
      <trkpt lat="43.42737" lon="6.05639">
        <ele>317</ele>
        <time>2013-01-26T13:38:55Z</time>
      </trkpt>
      <trkpt lat="43.42729" lon="6.05649">
        <ele>317</ele>
        <time>2013-01-26T13:39:01Z</time>
      </trkpt>
      <trkpt lat="43.42724" lon="6.0566">
        <ele>317</ele>
        <time>2013-01-26T13:39:06Z</time>
      </trkpt>
      <trkpt lat="43.42724" lon="6.05662">
        <ele>317</ele>
        <time>2013-01-26T13:39:07Z</time>
      </trkpt>
      <trkpt lat="43.4272" lon="6.0567">
        <ele>317.60000610352</ele>
        <time>2013-01-26T13:39:11Z</time>
      </trkpt>
      <trkpt lat="43.42717" lon="6.05673">
        <ele>318.79998779297</ele>
        <time>2013-01-26T13:39:13Z</time>
      </trkpt>
      <trkpt lat="43.42715" lon="6.05675">
        <ele>319.20001220703</ele>
        <time>2013-01-26T13:39:15Z</time>
      </trkpt>
      <trkpt lat="43.42712" lon="6.05677">
        <ele>319.20001220703</ele>
        <time>2013-01-26T13:39:17Z</time>
      </trkpt>
      <trkpt lat="43.42711" lon="6.05678">
        <ele>319.20001220703</ele>
        <time>2013-01-26T13:39:18Z</time>
      </trkpt>
      <trkpt lat="43.4271" lon="6.05679">
        <ele>319.20001220703</ele>
        <time>2013-01-26T13:39:19Z</time>
      </trkpt>
      <trkpt lat="43.42707" lon="6.05684">
        <ele>319.60000610352</ele>
        <time>2013-01-26T13:39:22Z</time>
      </trkpt>
      <trkpt lat="43.42706" lon="6.05686">
        <ele>320.39999389648</ele>
        <time>2013-01-26T13:39:24Z</time>
      </trkpt>
      <trkpt lat="43.42706" lon="6.05687">
        <ele>320.79998779297</ele>
        <time>2013-01-26T13:39:25Z</time>
      </trkpt>
      <trkpt lat="43.42706" lon="6.05687">
        <ele>321.20001220703</ele>
        <time>2013-01-26T13:39:29Z</time>
      </trkpt>
      <trkpt lat="43.42706" lon="6.05688">
        <ele>321.20001220703</ele>
        <time>2013-01-26T13:39:36Z</time>
      </trkpt>
      <trkpt lat="43.42706" lon="6.05688">
        <ele>321.20001220703</ele>
        <time>2013-01-26T13:39:44Z</time>
      </trkpt>
      <trkpt lat="43.42706" lon="6.05688">
        <ele>321.20001220703</ele>
        <time>2013-01-26T13:39:50Z</time>
      </trkpt>
      <trkpt lat="43.42706" lon="6.05692">
        <ele>321.20001220703</ele>
        <time>2013-01-26T13:39:57Z</time>
      </trkpt>
      <trkpt lat="43.42704" lon="6.05704">
        <ele>321.20001220703</ele>
        <time>2013-01-26T13:40:03Z</time>
      </trkpt>
      <trkpt lat="43.42701" lon="6.05711">
        <ele>322.60000610352</ele>
        <time>2013-01-26T13:40:06Z</time>
      </trkpt>
      <trkpt lat="43.427" lon="6.05717">
        <ele>323.39999389648</ele>
        <time>2013-01-26T13:40:08Z</time>
      </trkpt>
      <trkpt lat="43.42699" lon="6.0572">
        <ele>323.39999389648</ele>
        <time>2013-01-26T13:40:10Z</time>
      </trkpt>
      <trkpt lat="43.42698" lon="6.05723">
        <ele>323.39999389648</ele>
        <time>2013-01-26T13:40:12Z</time>
      </trkpt>
      <trkpt lat="43.42698" lon="6.05725">
        <ele>323.39999389648</ele>
        <time>2013-01-26T13:40:13Z</time>
      </trkpt>
      <trkpt lat="43.42698" lon="6.05731">
        <ele>323.79998779297</ele>
        <time>2013-01-26T13:40:16Z</time>
      </trkpt>
      <trkpt lat="43.42699" lon="6.05734">
        <ele>324.60000610352</ele>
        <time>2013-01-26T13:40:18Z</time>
      </trkpt>
      <trkpt lat="43.427" lon="6.05736">
        <ele>325.39999389648</ele>
        <time>2013-01-26T13:40:20Z</time>
      </trkpt>
      <trkpt lat="43.42702" lon="6.05737">
        <ele>325.39999389648</ele>
        <time>2013-01-26T13:40:22Z</time>
      </trkpt>
      <trkpt lat="43.42704" lon="6.05737">
        <ele>325.39999389648</ele>
        <time>2013-01-26T13:40:24Z</time>
      </trkpt>
      <trkpt lat="43.42709" lon="6.05737">
        <ele>325.39999389648</ele>
        <time>2013-01-26T13:40:28Z</time>
      </trkpt>
      <trkpt lat="43.42715" lon="6.05737">
        <ele>325.39999389648</ele>
        <time>2013-01-26T13:40:33Z</time>
      </trkpt>
      <trkpt lat="43.42717" lon="6.05737">
        <ele>325.39999389648</ele>
        <time>2013-01-26T13:40:34Z</time>
      </trkpt>
      <trkpt lat="43.42728" lon="6.05738">
        <ele>325.39999389648</ele>
        <time>2013-01-26T13:40:42Z</time>
      </trkpt>
      <trkpt lat="43.42736" lon="6.05739">
        <ele>325.39999389648</ele>
        <time>2013-01-26T13:40:49Z</time>
      </trkpt>
      <trkpt lat="43.42741" lon="6.05739">
        <ele>325.79998779297</ele>
        <time>2013-01-26T13:40:53Z</time>
      </trkpt>
      <trkpt lat="43.4275" lon="6.05741">
        <ele>327.39999389648</ele>
        <time>2013-01-26T13:41:00Z</time>
      </trkpt>
      <trkpt lat="43.42761" lon="6.0573">
        <ele>327.39999389648</ele>
        <time>2013-01-26T13:41:10Z</time>
      </trkpt>
      <trkpt lat="43.42769" lon="6.05728">
        <ele>327.39999389648</ele>
        <time>2013-01-26T13:41:15Z</time>
      </trkpt>
      <trkpt lat="43.42784" lon="6.05734">
        <ele>327.39999389648</ele>
        <time>2013-01-26T13:41:28Z</time>
      </trkpt>
      <trkpt lat="43.42788" lon="6.05736">
        <ele>327.39999389648</ele>
        <time>2013-01-26T13:41:33Z</time>
      </trkpt>
      <trkpt lat="43.42793" lon="6.0574">
        <ele>327.79998779297</ele>
        <time>2013-01-26T13:41:37Z</time>
      </trkpt>
      <trkpt lat="43.42796" lon="6.05741">
        <ele>328.60000610352</ele>
        <time>2013-01-26T13:41:39Z</time>
      </trkpt>
      <trkpt lat="43.42799" lon="6.05741">
        <ele>329.39999389648</ele>
        <time>2013-01-26T13:41:41Z</time>
      </trkpt>
      <trkpt lat="43.42803" lon="6.05739">
        <ele>329.39999389648</ele>
        <time>2013-01-26T13:41:44Z</time>
      </trkpt>
      <trkpt lat="43.42812" lon="6.05734">
        <ele>329.39999389648</ele>
        <time>2013-01-26T13:41:50Z</time>
      </trkpt>
      <trkpt lat="43.42814" lon="6.05734">
        <ele>329.39999389648</ele>
        <time>2013-01-26T13:41:51Z</time>
      </trkpt>
      <trkpt lat="43.4282" lon="6.05733">
        <ele>329.39999389648</ele>
        <time>2013-01-26T13:41:55Z</time>
      </trkpt>
      <trkpt lat="43.42822" lon="6.05731">
        <ele>329.39999389648</ele>
        <time>2013-01-26T13:41:57Z</time>
      </trkpt>
      <trkpt lat="43.42825" lon="6.05734">
        <ele>329.39999389648</ele>
        <time>2013-01-26T13:42:00Z</time>
      </trkpt>
      <trkpt lat="43.42827" lon="6.05741">
        <ele>329.39999389648</ele>
        <time>2013-01-26T13:42:06Z</time>
      </trkpt>
      <trkpt lat="43.42828" lon="6.0574">
        <ele>329.39999389648</ele>
        <time>2013-01-26T13:42:07Z</time>
      </trkpt>
      <trkpt lat="43.42828" lon="6.0574">
        <ele>329.39999389648</ele>
        <time>2013-01-26T13:42:12Z</time>
      </trkpt>
      <trkpt lat="43.42828" lon="6.0574">
        <ele>329.39999389648</ele>
        <time>2013-01-26T13:42:24Z</time>
      </trkpt>
      <trkpt lat="43.42828" lon="6.0574">
        <ele>329.39999389648</ele>
        <time>2013-01-26T13:42:27Z</time>
      </trkpt>
      <trkpt lat="43.42828" lon="6.0574">
        <ele>329.39999389648</ele>
        <time>2013-01-26T13:42:42Z</time>
      </trkpt>
      <trkpt lat="43.42829" lon="6.05741">
        <ele>329.39999389648</ele>
        <time>2013-01-26T13:42:44Z</time>
      </trkpt>
      <trkpt lat="43.42827" lon="6.05753">
        <ele>329.39999389648</ele>
        <time>2013-01-26T13:42:53Z</time>
      </trkpt>
      <trkpt lat="43.42826" lon="6.05766">
        <ele>329.39999389648</ele>
        <time>2013-01-26T13:43:00Z</time>
      </trkpt>
      <trkpt lat="43.42825" lon="6.05781">
        <ele>329.39999389648</ele>
        <time>2013-01-26T13:43:06Z</time>
      </trkpt>
      <trkpt lat="43.42824" lon="6.05794">
        <ele>329.39999389648</ele>
        <time>2013-01-26T13:43:11Z</time>
      </trkpt>
      <trkpt lat="43.42822" lon="6.05811">
        <ele>329.39999389648</ele>
        <time>2013-01-26T13:43:18Z</time>
      </trkpt>
      <trkpt lat="43.42821" lon="6.05821">
        <ele>329.39999389648</ele>
        <time>2013-01-26T13:43:22Z</time>
      </trkpt>
      <trkpt lat="43.42815" lon="6.05841">
        <ele>331.39999389648</ele>
        <time>2013-01-26T13:43:30Z</time>
      </trkpt>
      <trkpt lat="43.42813" lon="6.05847">
        <ele>331.79998779297</ele>
        <time>2013-01-26T13:43:33Z</time>
      </trkpt>
      <trkpt lat="43.42812" lon="6.05851">
        <ele>332.60000610352</ele>
        <time>2013-01-26T13:43:35Z</time>
      </trkpt>
      <trkpt lat="43.42811" lon="6.05855">
        <ele>333.60000610352</ele>
        <time>2013-01-26T13:43:37Z</time>
      </trkpt>
      <trkpt lat="43.42808" lon="6.05862">
        <ele>333.60000610352</ele>
        <time>2013-01-26T13:43:41Z</time>
      </trkpt>
      <trkpt lat="43.42805" lon="6.05872">
        <ele>335.60000610352</ele>
        <time>2013-01-26T13:43:48Z</time>
      </trkpt>
      <trkpt lat="43.42804" lon="6.05877">
        <ele>335.60000610352</ele>
        <time>2013-01-26T13:43:52Z</time>
      </trkpt>
      <trkpt lat="43.42801" lon="6.05883">
        <ele>336.60000610352</ele>
        <time>2013-01-26T13:43:57Z</time>
      </trkpt>
      <trkpt lat="43.42799" lon="6.05888">
        <ele>337.79998779297</ele>
        <time>2013-01-26T13:44:01Z</time>
      </trkpt>
      <trkpt lat="43.42796" lon="6.05892">
        <ele>337.79998779297</ele>
        <time>2013-01-26T13:44:05Z</time>
      </trkpt>
      <trkpt lat="43.42793" lon="6.05902">
        <ele>338.20001220703</ele>
        <time>2013-01-26T13:44:11Z</time>
      </trkpt>
      <trkpt lat="43.42791" lon="6.05907">
        <ele>339.79998779297</ele>
        <time>2013-01-26T13:44:15Z</time>
      </trkpt>
      <trkpt lat="43.4279" lon="6.05912">
        <ele>339.79998779297</ele>
        <time>2013-01-26T13:44:18Z</time>
      </trkpt>
      <trkpt lat="43.42786" lon="6.05921">
        <ele>339.79998779297</ele>
        <time>2013-01-26T13:44:24Z</time>
      </trkpt>
      <trkpt lat="43.42786" lon="6.05925">
        <ele>339.79998779297</ele>
        <time>2013-01-26T13:44:27Z</time>
      </trkpt>
      <trkpt lat="43.42786" lon="6.05928">
        <ele>339.79998779297</ele>
        <time>2013-01-26T13:44:29Z</time>
      </trkpt>
      <trkpt lat="43.42784" lon="6.05934">
        <ele>340.20001220703</ele>
        <time>2013-01-26T13:44:33Z</time>
      </trkpt>
      <trkpt lat="43.42784" lon="6.05935">
        <ele>341</ele>
        <time>2013-01-26T13:44:35Z</time>
      </trkpt>
      <trkpt lat="43.42784" lon="6.05936">
        <ele>341.79998779297</ele>
        <time>2013-01-26T13:44:36Z</time>
      </trkpt>
      <trkpt lat="43.42784" lon="6.05935">
        <ele>341.79998779297</ele>
        <time>2013-01-26T13:44:41Z</time>
      </trkpt>
      <trkpt lat="43.42784" lon="6.05935">
        <ele>341.79998779297</ele>
        <time>2013-01-26T13:44:52Z</time>
      </trkpt>
      <trkpt lat="43.42784" lon="6.05935">
        <ele>341.79998779297</ele>
        <time>2013-01-26T13:45:03Z</time>
      </trkpt>
      <trkpt lat="43.42784" lon="6.05936">
        <ele>341.79998779297</ele>
        <time>2013-01-26T13:45:09Z</time>
      </trkpt>
      <trkpt lat="43.42783" lon="6.05938">
        <ele>341.79998779297</ele>
        <time>2013-01-26T13:45:10Z</time>
      </trkpt>
      <trkpt lat="43.42782" lon="6.05951">
        <ele>341.79998779297</ele>
        <time>2013-01-26T13:45:16Z</time>
      </trkpt>
      <trkpt lat="43.42779" lon="6.05963">
        <ele>341.79998779297</ele>
        <time>2013-01-26T13:45:22Z</time>
      </trkpt>
      <trkpt lat="43.42772" lon="6.05972">
        <ele>341.79998779297</ele>
        <time>2013-01-26T13:45:28Z</time>
      </trkpt>
      <trkpt lat="43.42771" lon="6.05973">
        <ele>342.20001220703</ele>
        <time>2013-01-26T13:45:29Z</time>
      </trkpt>
      <trkpt lat="43.4277" lon="6.05975">
        <ele>342.60000610352</ele>
        <time>2013-01-26T13:45:30Z</time>
      </trkpt>
      <trkpt lat="43.4277" lon="6.05975">
        <ele>343</ele>
        <time>2013-01-26T13:45:31Z</time>
      </trkpt>
      <trkpt lat="43.4277" lon="6.05976">
        <ele>343.39999389648</ele>
        <time>2013-01-26T13:45:32Z</time>
      </trkpt>
      <trkpt lat="43.4277" lon="6.05976">
        <ele>343.79998779297</ele>
        <time>2013-01-26T13:45:33Z</time>
      </trkpt>
      <trkpt lat="43.4277" lon="6.05976">
        <ele>343.79998779297</ele>
        <time>2013-01-26T13:45:39Z</time>
      </trkpt>
      <trkpt lat="43.42771" lon="6.05977">
        <ele>343.79998779297</ele>
        <time>2013-01-26T13:45:44Z</time>
      </trkpt>
      <trkpt lat="43.42771" lon="6.05977">
        <ele>343.79998779297</ele>
        <time>2013-01-26T13:46:00Z</time>
      </trkpt>
      <trkpt lat="43.42771" lon="6.05977">
        <ele>343.79998779297</ele>
        <time>2013-01-26T13:48:04Z</time>
      </trkpt>
      <trkpt lat="43.42771" lon="6.05977">
        <ele>343.79998779297</ele>
        <time>2013-01-26T13:48:18Z</time>
      </trkpt>
      <trkpt lat="43.42771" lon="6.05977">
        <ele>343.79998779297</ele>
        <time>2013-01-26T13:48:30Z</time>
      </trkpt>
      <trkpt lat="43.42772" lon="6.05977">
        <ele>343.79998779297</ele>
        <time>2013-01-26T13:48:34Z</time>
      </trkpt>
      <trkpt lat="43.42775" lon="6.05982">
        <ele>343.79998779297</ele>
        <time>2013-01-26T13:48:37Z</time>
      </trkpt>
      <trkpt lat="43.42773" lon="6.05987">
        <ele>343.79998779297</ele>
        <time>2013-01-26T13:48:41Z</time>
      </trkpt>
      <trkpt lat="43.42775" lon="6.05988">
        <ele>343.79998779297</ele>
        <time>2013-01-26T13:48:46Z</time>
      </trkpt>
      <trkpt lat="43.42775" lon="6.05988">
        <ele>343.79998779297</ele>
        <time>2013-01-26T13:49:16Z</time>
      </trkpt>
      <trkpt lat="43.42775" lon="6.05988">
        <ele>343.79998779297</ele>
        <time>2013-01-26T13:49:28Z</time>
      </trkpt>
      <trkpt lat="43.42775" lon="6.05988">
        <ele>343.79998779297</ele>
        <time>2013-01-26T13:49:32Z</time>
      </trkpt>
      <trkpt lat="43.42776" lon="6.05988">
        <ele>343.79998779297</ele>
        <time>2013-01-26T13:49:46Z</time>
      </trkpt>
      <trkpt lat="43.42777" lon="6.05988">
        <ele>343.79998779297</ele>
        <time>2013-01-26T13:49:47Z</time>
      </trkpt>
      <trkpt lat="43.42781" lon="6.05988">
        <ele>343.39999389648</ele>
        <time>2013-01-26T13:49:49Z</time>
      </trkpt>
      <trkpt lat="43.42789" lon="6.05986">
        <ele>342.20001220703</ele>
        <time>2013-01-26T13:49:52Z</time>
      </trkpt>
      <trkpt lat="43.42791" lon="6.05985">
        <ele>341.79998779297</ele>
        <time>2013-01-26T13:49:53Z</time>
      </trkpt>
      <trkpt lat="43.42794" lon="6.05985">
        <ele>341.20001220703</ele>
        <time>2013-01-26T13:49:54Z</time>
      </trkpt>
      <trkpt lat="43.42798" lon="6.05985">
        <ele>340.79998779297</ele>
        <time>2013-01-26T13:49:55Z</time>
      </trkpt>
      <trkpt lat="43.42801" lon="6.05987">
        <ele>340.39999389648</ele>
        <time>2013-01-26T13:49:56Z</time>
      </trkpt>
      <trkpt lat="43.42805" lon="6.05988">
        <ele>339.39999389648</ele>
        <time>2013-01-26T13:49:57Z</time>
      </trkpt>
      <trkpt lat="43.42814" lon="6.05992">
        <ele>338.39999389648</ele>
        <time>2013-01-26T13:50:00Z</time>
      </trkpt>
      <trkpt lat="43.42818" lon="6.05994">
        <ele>338</ele>
        <time>2013-01-26T13:50:01Z</time>
      </trkpt>
      <trkpt lat="43.42825" lon="6.05998">
        <ele>337.20001220703</ele>
        <time>2013-01-26T13:50:03Z</time>
      </trkpt>
      <trkpt lat="43.42828" lon="6.06001">
        <ele>336.79998779297</ele>
        <time>2013-01-26T13:50:04Z</time>
      </trkpt>
      <trkpt lat="43.42831" lon="6.06004">
        <ele>336.39999389648</ele>
        <time>2013-01-26T13:50:05Z</time>
      </trkpt>
      <trkpt lat="43.42834" lon="6.06007">
        <ele>335.79998779297</ele>
        <time>2013-01-26T13:50:06Z</time>
      </trkpt>
      <trkpt lat="43.42836" lon="6.06012">
        <ele>335.39999389648</ele>
        <time>2013-01-26T13:50:07Z</time>
      </trkpt>
      <trkpt lat="43.42839" lon="6.06017">
        <ele>334.79998779297</ele>
        <time>2013-01-26T13:50:08Z</time>
      </trkpt>
      <trkpt lat="43.42841" lon="6.06021">
        <ele>334.39999389648</ele>
        <time>2013-01-26T13:50:09Z</time>
      </trkpt>
      <trkpt lat="43.42844" lon="6.06026">
        <ele>333.79998779297</ele>
        <time>2013-01-26T13:50:10Z</time>
      </trkpt>
      <trkpt lat="43.42849" lon="6.06034">
        <ele>332.60000610352</ele>
        <time>2013-01-26T13:50:12Z</time>
      </trkpt>
      <trkpt lat="43.42853" lon="6.06039">
        <ele>331.79998779297</ele>
        <time>2013-01-26T13:50:13Z</time>
      </trkpt>
      <trkpt lat="43.42857" lon="6.06042">
        <ele>331.20001220703</ele>
        <time>2013-01-26T13:50:14Z</time>
      </trkpt>
      <trkpt lat="43.4286" lon="6.06044">
        <ele>330.60000610352</ele>
        <time>2013-01-26T13:50:15Z</time>
      </trkpt>
      <trkpt lat="43.42862" lon="6.06046">
        <ele>329.79998779297</ele>
        <time>2013-01-26T13:50:16Z</time>
      </trkpt>
      <trkpt lat="43.42864" lon="6.0605">
        <ele>329.20001220703</ele>
        <time>2013-01-26T13:50:17Z</time>
      </trkpt>
      <trkpt lat="43.42866" lon="6.06057">
        <ele>328</ele>
        <time>2013-01-26T13:50:19Z</time>
      </trkpt>
      <trkpt lat="43.42868" lon="6.06064">
        <ele>326.79998779297</ele>
        <time>2013-01-26T13:50:21Z</time>
      </trkpt>
      <trkpt lat="43.4287" lon="6.06064">
        <ele>325.20001220703</ele>
        <time>2013-01-26T13:50:23Z</time>
      </trkpt>
      <trkpt lat="43.4287" lon="6.06064">
        <ele>324.79998779297</ele>
        <time>2013-01-26T13:50:24Z</time>
      </trkpt>
      <trkpt lat="43.42869" lon="6.06067">
        <ele>324.20001220703</ele>
        <time>2013-01-26T13:50:25Z</time>
      </trkpt>
      <trkpt lat="43.42868" lon="6.06074">
        <ele>324.20001220703</ele>
        <time>2013-01-26T13:50:27Z</time>
      </trkpt>
      <trkpt lat="43.42866" lon="6.06092">
        <ele>323.79998779297</ele>
        <time>2013-01-26T13:50:31Z</time>
      </trkpt>
      <trkpt lat="43.42865" lon="6.06102">
        <ele>322.79998779297</ele>
        <time>2013-01-26T13:50:33Z</time>
      </trkpt>
      <trkpt lat="43.42865" lon="6.06108">
        <ele>322.20001220703</ele>
        <time>2013-01-26T13:50:34Z</time>
      </trkpt>
      <trkpt lat="43.42864" lon="6.06114">
        <ele>321.79998779297</ele>
        <time>2013-01-26T13:50:35Z</time>
      </trkpt>
      <trkpt lat="43.42864" lon="6.0612">
        <ele>321.39999389648</ele>
        <time>2013-01-26T13:50:36Z</time>
      </trkpt>
      <trkpt lat="43.42865" lon="6.06125">
        <ele>320.79998779297</ele>
        <time>2013-01-26T13:50:37Z</time>
      </trkpt>
      <trkpt lat="43.42867" lon="6.06131">
        <ele>320.20001220703</ele>
        <time>2013-01-26T13:50:38Z</time>
      </trkpt>
      <trkpt lat="43.42871" lon="6.06144">
        <ele>318.79998779297</ele>
        <time>2013-01-26T13:50:41Z</time>
      </trkpt>
      <trkpt lat="43.42873" lon="6.06153">
        <ele>317.60000610352</ele>
        <time>2013-01-26T13:50:43Z</time>
      </trkpt>
      <trkpt lat="43.42872" lon="6.06156">
        <ele>317.20001220703</ele>
        <time>2013-01-26T13:50:44Z</time>
      </trkpt>
      <trkpt lat="43.42871" lon="6.06162">
        <ele>316.20001220703</ele>
        <time>2013-01-26T13:50:46Z</time>
      </trkpt>
      <trkpt lat="43.42871" lon="6.06165">
        <ele>315.20001220703</ele>
        <time>2013-01-26T13:50:47Z</time>
      </trkpt>
      <trkpt lat="43.4287" lon="6.06169">
        <ele>314.79998779297</ele>
        <time>2013-01-26T13:50:48Z</time>
      </trkpt>
      <trkpt lat="43.42874" lon="6.06186">
        <ele>313.39999389648</ele>
        <time>2013-01-26T13:50:52Z</time>
      </trkpt>
      <trkpt lat="43.42875" lon="6.06191">
        <ele>312.79998779297</ele>
        <time>2013-01-26T13:50:53Z</time>
      </trkpt>
      <trkpt lat="43.42875" lon="6.06196">
        <ele>312.20001220703</ele>
        <time>2013-01-26T13:50:54Z</time>
      </trkpt>
      <trkpt lat="43.42875" lon="6.06201">
        <ele>311.79998779297</ele>
        <time>2013-01-26T13:50:55Z</time>
      </trkpt>
      <trkpt lat="43.42874" lon="6.06206">
        <ele>311.39999389648</ele>
        <time>2013-01-26T13:50:56Z</time>
      </trkpt>
      <trkpt lat="43.42875" lon="6.06213">
        <ele>311</ele>
        <time>2013-01-26T13:50:57Z</time>
      </trkpt>
      <trkpt lat="43.42871" lon="6.06223">
        <ele>310</ele>
        <time>2013-01-26T13:50:59Z</time>
      </trkpt>
      <trkpt lat="43.42868" lon="6.06225">
        <ele>309.60000610352</ele>
        <time>2013-01-26T13:51:00Z</time>
      </trkpt>
      <trkpt lat="43.42865" lon="6.06227">
        <ele>309.60000610352</ele>
        <time>2013-01-26T13:51:02Z</time>
      </trkpt>
      <trkpt lat="43.42864" lon="6.06228">
        <ele>309.20001220703</ele>
        <time>2013-01-26T13:51:03Z</time>
      </trkpt>
      <trkpt lat="43.4286" lon="6.06229">
        <ele>307.79998779297</ele>
        <time>2013-01-26T13:51:06Z</time>
      </trkpt>
      <trkpt lat="43.42858" lon="6.06231">
        <ele>307.39999389648</ele>
        <time>2013-01-26T13:51:07Z</time>
      </trkpt>
      <trkpt lat="43.42857" lon="6.06233">
        <ele>307.39999389648</ele>
        <time>2013-01-26T13:51:08Z</time>
      </trkpt>
      <trkpt lat="43.42856" lon="6.06242">
        <ele>307</ele>
        <time>2013-01-26T13:51:12Z</time>
      </trkpt>
      <trkpt lat="43.42856" lon="6.06243">
        <ele>306.60000610352</ele>
        <time>2013-01-26T13:51:13Z</time>
      </trkpt>
      <trkpt lat="43.42856" lon="6.06243">
        <ele>306.20001220703</ele>
        <time>2013-01-26T13:51:14Z</time>
      </trkpt>
      <trkpt lat="43.42856" lon="6.06243">
        <ele>305.20001220703</ele>
        <time>2013-01-26T13:51:16Z</time>
      </trkpt>
      <trkpt lat="43.42856" lon="6.06243">
        <ele>305.20001220703</ele>
        <time>2013-01-26T13:51:19Z</time>
      </trkpt>
      <trkpt lat="43.42856" lon="6.06243">
        <ele>305.20001220703</ele>
        <time>2013-01-26T13:51:27Z</time>
      </trkpt>
      <trkpt lat="43.42856" lon="6.06252">
        <ele>305.20001220703</ele>
        <time>2013-01-26T13:51:31Z</time>
      </trkpt>
      <trkpt lat="43.42863" lon="6.06261">
        <ele>304.79998779297</ele>
        <time>2013-01-26T13:51:34Z</time>
      </trkpt>
      <trkpt lat="43.42865" lon="6.06262">
        <ele>304.39999389648</ele>
        <time>2013-01-26T13:51:35Z</time>
      </trkpt>
      <trkpt lat="43.42867" lon="6.06263">
        <ele>303.39999389648</ele>
        <time>2013-01-26T13:51:36Z</time>
      </trkpt>
      <trkpt lat="43.4287" lon="6.06263">
        <ele>302.79998779297</ele>
        <time>2013-01-26T13:51:37Z</time>
      </trkpt>
      <trkpt lat="43.42875" lon="6.06263">
        <ele>301.79998779297</ele>
        <time>2013-01-26T13:51:39Z</time>
      </trkpt>
      <trkpt lat="43.42879" lon="6.06264">
        <ele>300.79998779297</ele>
        <time>2013-01-26T13:51:41Z</time>
      </trkpt>
      <trkpt lat="43.42886" lon="6.06269">
        <ele>299</ele>
        <time>2013-01-26T13:51:45Z</time>
      </trkpt>
      <trkpt lat="43.42895" lon="6.06271">
        <ele>297.20001220703</ele>
        <time>2013-01-26T13:51:49Z</time>
      </trkpt>
      <trkpt lat="43.42898" lon="6.06273">
        <ele>296.60000610352</ele>
        <time>2013-01-26T13:51:50Z</time>
      </trkpt>
      <trkpt lat="43.429" lon="6.06275">
        <ele>296</ele>
        <time>2013-01-26T13:51:51Z</time>
      </trkpt>
      <trkpt lat="43.42904" lon="6.06276">
        <ele>295.39999389648</ele>
        <time>2013-01-26T13:51:52Z</time>
      </trkpt>
      <trkpt lat="43.42907" lon="6.06278">
        <ele>294.79998779297</ele>
        <time>2013-01-26T13:51:53Z</time>
      </trkpt>
      <trkpt lat="43.42909" lon="6.06281">
        <ele>294</ele>
        <time>2013-01-26T13:51:54Z</time>
      </trkpt>
      <trkpt lat="43.42914" lon="6.06287">
        <ele>292.60000610352</ele>
        <time>2013-01-26T13:51:56Z</time>
      </trkpt>
      <trkpt lat="43.42917" lon="6.0629">
        <ele>291.79998779297</ele>
        <time>2013-01-26T13:51:57Z</time>
      </trkpt>
      <trkpt lat="43.42919" lon="6.06288">
        <ele>291</ele>
        <time>2013-01-26T13:51:58Z</time>
      </trkpt>
      <trkpt lat="43.4292" lon="6.06285">
        <ele>290.20001220703</ele>
        <time>2013-01-26T13:51:59Z</time>
      </trkpt>
      <trkpt lat="43.4292" lon="6.06285">
        <ele>289.60000610352</ele>
        <time>2013-01-26T13:52:00Z</time>
      </trkpt>
      <trkpt lat="43.4292" lon="6.06285">
        <ele>289.60000610352</ele>
        <time>2013-01-26T13:52:03Z</time>
      </trkpt>
      <trkpt lat="43.4292" lon="6.06285">
        <ele>289.60000610352</ele>
        <time>2013-01-26T13:52:28Z</time>
      </trkpt>
      <trkpt lat="43.4292" lon="6.06285">
        <ele>288</ele>
        <time>2013-01-26T13:52:40Z</time>
      </trkpt>
      <trkpt lat="43.42921" lon="6.06285">
        <ele>287.60000610352</ele>
        <time>2013-01-26T13:52:41Z</time>
      </trkpt>
      <trkpt lat="43.42921" lon="6.06285">
        <ele>287.60000610352</ele>
        <time>2013-01-26T13:52:59Z</time>
      </trkpt>
      <trkpt lat="43.42921" lon="6.06285">
        <ele>287.60000610352</ele>
        <time>2013-01-26T13:53:13Z</time>
      </trkpt>
      <trkpt lat="43.42928" lon="6.06285">
        <ele>287.60000610352</ele>
        <time>2013-01-26T13:53:19Z</time>
      </trkpt>
      <trkpt lat="43.4294" lon="6.06285">
        <ele>287.20001220703</ele>
        <time>2013-01-26T13:53:24Z</time>
      </trkpt>
      <trkpt lat="43.42942" lon="6.06287">
        <ele>286.79998779297</ele>
        <time>2013-01-26T13:53:25Z</time>
      </trkpt>
      <trkpt lat="43.42946" lon="6.06294">
        <ele>285.60000610352</ele>
        <time>2013-01-26T13:53:28Z</time>
      </trkpt>
      <trkpt lat="43.42948" lon="6.06299">
        <ele>285.60000610352</ele>
        <time>2013-01-26T13:53:30Z</time>
      </trkpt>
      <trkpt lat="43.42952" lon="6.06304">
        <ele>285.60000610352</ele>
        <time>2013-01-26T13:53:32Z</time>
      </trkpt>
      <trkpt lat="43.42957" lon="6.06307">
        <ele>285.60000610352</ele>
        <time>2013-01-26T13:53:35Z</time>
      </trkpt>
      <trkpt lat="43.42968" lon="6.06305">
        <ele>285.20001220703</ele>
        <time>2013-01-26T13:53:39Z</time>
      </trkpt>
      <trkpt lat="43.42972" lon="6.06304">
        <ele>283.79998779297</ele>
        <time>2013-01-26T13:53:41Z</time>
      </trkpt>
      <trkpt lat="43.42974" lon="6.06305">
        <ele>283.39999389648</ele>
        <time>2013-01-26T13:53:42Z</time>
      </trkpt>
      <trkpt lat="43.42986" lon="6.06312">
        <ele>283.39999389648</ele>
        <time>2013-01-26T13:53:47Z</time>
      </trkpt>
      <trkpt lat="43.42998" lon="6.06311">
        <ele>283.39999389648</ele>
        <time>2013-01-26T13:53:52Z</time>
      </trkpt>
      <trkpt lat="43.43013" lon="6.06308">
        <ele>281.79998779297</ele>
        <time>2013-01-26T13:53:57Z</time>
      </trkpt>
      <trkpt lat="43.43017" lon="6.06309">
        <ele>281.39999389648</ele>
        <time>2013-01-26T13:53:58Z</time>
      </trkpt>
      <trkpt lat="43.43025" lon="6.0631">
        <ele>281.39999389648</ele>
        <time>2013-01-26T13:54:01Z</time>
      </trkpt>
      <trkpt lat="43.43031" lon="6.06327">
        <ele>281.39999389648</ele>
        <time>2013-01-26T13:54:06Z</time>
      </trkpt>
      <trkpt lat="43.43036" lon="6.06339">
        <ele>281.39999389648</ele>
        <time>2013-01-26T13:54:10Z</time>
      </trkpt>
      <trkpt lat="43.43039" lon="6.06341">
        <ele>281.39999389648</ele>
        <time>2013-01-26T13:54:11Z</time>
      </trkpt>
      <trkpt lat="43.43054" lon="6.06348">
        <ele>280.39999389648</ele>
        <time>2013-01-26T13:54:17Z</time>
      </trkpt>
      <trkpt lat="43.43064" lon="6.06351">
        <ele>279.20001220703</ele>
        <time>2013-01-26T13:54:20Z</time>
      </trkpt>
      <trkpt lat="43.43074" lon="6.06357">
        <ele>279.20001220703</ele>
        <time>2013-01-26T13:54:23Z</time>
      </trkpt>
      <trkpt lat="43.43082" lon="6.06373">
        <ele>279.20001220703</ele>
        <time>2013-01-26T13:54:28Z</time>
      </trkpt>
      <trkpt lat="43.43086" lon="6.06394">
        <ele>279.20001220703</ele>
        <time>2013-01-26T13:54:33Z</time>
      </trkpt>
      <trkpt lat="43.43091" lon="6.06418">
        <ele>279.20001220703</ele>
        <time>2013-01-26T13:54:38Z</time>
      </trkpt>
      <trkpt lat="43.43094" lon="6.06427">
        <ele>278.79998779297</ele>
        <time>2013-01-26T13:54:40Z</time>
      </trkpt>
      <trkpt lat="43.43097" lon="6.06432">
        <ele>278.39999389648</ele>
        <time>2013-01-26T13:54:41Z</time>
      </trkpt>
      <trkpt lat="43.43099" lon="6.06439">
        <ele>278</ele>
        <time>2013-01-26T13:54:42Z</time>
      </trkpt>
      <trkpt lat="43.43102" lon="6.06444">
        <ele>277.60000610352</ele>
        <time>2013-01-26T13:54:43Z</time>
      </trkpt>
      <trkpt lat="43.43105" lon="6.06451">
        <ele>277.20001220703</ele>
        <time>2013-01-26T13:54:44Z</time>
      </trkpt>
      <trkpt lat="43.4311" lon="6.06465">
        <ele>276.79998779297</ele>
        <time>2013-01-26T13:54:46Z</time>
      </trkpt>
      <trkpt lat="43.43113" lon="6.06478">
        <ele>275.79998779297</ele>
        <time>2013-01-26T13:54:48Z</time>
      </trkpt>
      <trkpt lat="43.43114" lon="6.06483">
        <ele>275.39999389648</ele>
        <time>2013-01-26T13:54:49Z</time>
      </trkpt>
      <trkpt lat="43.43116" lon="6.06485">
        <ele>274.79998779297</ele>
        <time>2013-01-26T13:54:50Z</time>
      </trkpt>
      <trkpt lat="43.43117" lon="6.06485">
        <ele>274.20001220703</ele>
        <time>2013-01-26T13:54:51Z</time>
      </trkpt>
      <trkpt lat="43.43119" lon="6.06487">
        <ele>273.79998779297</ele>
        <time>2013-01-26T13:54:52Z</time>
      </trkpt>
      <trkpt lat="43.4312" lon="6.06489">
        <ele>273.20001220703</ele>
        <time>2013-01-26T13:54:53Z</time>
      </trkpt>
      <trkpt lat="43.43121" lon="6.0649">
        <ele>272.60000610352</ele>
        <time>2013-01-26T13:54:54Z</time>
      </trkpt>
      <trkpt lat="43.43123" lon="6.06492">
        <ele>272.60000610352</ele>
        <time>2013-01-26T13:54:55Z</time>
      </trkpt>
      <trkpt lat="43.43125" lon="6.06494">
        <ele>272.60000610352</ele>
        <time>2013-01-26T13:54:56Z</time>
      </trkpt>
      <trkpt lat="43.43135" lon="6.06509">
        <ele>272.20001220703</ele>
        <time>2013-01-26T13:55:00Z</time>
      </trkpt>
      <trkpt lat="43.43138" lon="6.06512">
        <ele>271.60000610352</ele>
        <time>2013-01-26T13:55:01Z</time>
      </trkpt>
      <trkpt lat="43.43144" lon="6.06517">
        <ele>270.79998779297</ele>
        <time>2013-01-26T13:55:03Z</time>
      </trkpt>
      <trkpt lat="43.43147" lon="6.0652">
        <ele>270.20001220703</ele>
        <time>2013-01-26T13:55:04Z</time>
      </trkpt>
      <trkpt lat="43.43154" lon="6.06533">
        <ele>269.79998779297</ele>
        <time>2013-01-26T13:55:07Z</time>
      </trkpt>
      <trkpt lat="43.43157" lon="6.06538">
        <ele>269.20001220703</ele>
        <time>2013-01-26T13:55:08Z</time>
      </trkpt>
      <trkpt lat="43.43162" lon="6.06547">
        <ele>268.39999389648</ele>
        <time>2013-01-26T13:55:10Z</time>
      </trkpt>
      <trkpt lat="43.43164" lon="6.06551">
        <ele>267.79998779297</ele>
        <time>2013-01-26T13:55:11Z</time>
      </trkpt>
      <trkpt lat="43.43168" lon="6.06556">
        <ele>267.39999389648</ele>
        <time>2013-01-26T13:55:13Z</time>
      </trkpt>
      <trkpt lat="43.4317" lon="6.06557">
        <ele>266.79998779297</ele>
        <time>2013-01-26T13:55:14Z</time>
      </trkpt>
      <trkpt lat="43.43172" lon="6.0656">
        <ele>266.39999389648</ele>
        <time>2013-01-26T13:55:15Z</time>
      </trkpt>
      <trkpt lat="43.43173" lon="6.06562">
        <ele>266</ele>
        <time>2013-01-26T13:55:16Z</time>
      </trkpt>
      <trkpt lat="43.43173" lon="6.06563">
        <ele>265.39999389648</ele>
        <time>2013-01-26T13:55:17Z</time>
      </trkpt>
      <trkpt lat="43.43174" lon="6.06568">
        <ele>265.39999389648</ele>
        <time>2013-01-26T13:55:19Z</time>
      </trkpt>
      <trkpt lat="43.43177" lon="6.06577">
        <ele>265.39999389648</ele>
        <time>2013-01-26T13:55:23Z</time>
      </trkpt>
      <trkpt lat="43.43179" lon="6.06581">
        <ele>265.39999389648</ele>
        <time>2013-01-26T13:55:24Z</time>
      </trkpt>
      <trkpt lat="43.43181" lon="6.06588">
        <ele>265</ele>
        <time>2013-01-26T13:55:26Z</time>
      </trkpt>
      <trkpt lat="43.43182" lon="6.06596">
        <ele>264.20001220703</ele>
        <time>2013-01-26T13:55:28Z</time>
      </trkpt>
      <trkpt lat="43.43185" lon="6.06604">
        <ele>263.39999389648</ele>
        <time>2013-01-26T13:55:30Z</time>
      </trkpt>
      <trkpt lat="43.43192" lon="6.06622">
        <ele>263.39999389648</ele>
        <time>2013-01-26T13:55:34Z</time>
      </trkpt>
      <trkpt lat="43.43198" lon="6.0664">
        <ele>263.39999389648</ele>
        <time>2013-01-26T13:55:38Z</time>
      </trkpt>
      <trkpt lat="43.432" lon="6.06649">
        <ele>262.60000610352</ele>
        <time>2013-01-26T13:55:40Z</time>
      </trkpt>
      <trkpt lat="43.43201" lon="6.06657">
        <ele>261.79998779297</ele>
        <time>2013-01-26T13:55:42Z</time>
      </trkpt>
      <trkpt lat="43.43208" lon="6.06681">
        <ele>261.20001220703</ele>
        <time>2013-01-26T13:55:48Z</time>
      </trkpt>
      <trkpt lat="43.43221" lon="6.06704">
        <ele>261.20001220703</ele>
        <time>2013-01-26T13:55:55Z</time>
      </trkpt>
      <trkpt lat="43.4323" lon="6.06718">
        <ele>261.20001220703</ele>
        <time>2013-01-26T13:56:00Z</time>
      </trkpt>
      <trkpt lat="43.43239" lon="6.06732">
        <ele>261.20001220703</ele>
        <time>2013-01-26T13:56:05Z</time>
      </trkpt>
      <trkpt lat="43.43241" lon="6.06735">
        <ele>261.20001220703</ele>
        <time>2013-01-26T13:56:06Z</time>
      </trkpt>
      <trkpt lat="43.43253" lon="6.0676">
        <ele>261.20001220703</ele>
        <time>2013-01-26T13:56:12Z</time>
      </trkpt>
      <trkpt lat="43.43264" lon="6.06796">
        <ele>261.20001220703</ele>
        <time>2013-01-26T13:56:19Z</time>
      </trkpt>
      <trkpt lat="43.43269" lon="6.06821">
        <ele>260.79998779297</ele>
        <time>2013-01-26T13:56:23Z</time>
      </trkpt>
      <trkpt lat="43.43272" lon="6.06834">
        <ele>260</ele>
        <time>2013-01-26T13:56:25Z</time>
      </trkpt>
      <trkpt lat="43.43274" lon="6.06841">
        <ele>259.39999389648</ele>
        <time>2013-01-26T13:56:26Z</time>
      </trkpt>
      <trkpt lat="43.43275" lon="6.06847">
        <ele>259</ele>
        <time>2013-01-26T13:56:27Z</time>
      </trkpt>
      <trkpt lat="43.43278" lon="6.06863">
        <ele>258.60000610352</ele>
        <time>2013-01-26T13:56:30Z</time>
      </trkpt>
      <trkpt lat="43.43279" lon="6.06869">
        <ele>258.20001220703</ele>
        <time>2013-01-26T13:56:31Z</time>
      </trkpt>
      <trkpt lat="43.43282" lon="6.06875">
        <ele>257.60000610352</ele>
        <time>2013-01-26T13:56:32Z</time>
      </trkpt>
      <trkpt lat="43.43282" lon="6.06883">
        <ele>257.20001220703</ele>
        <time>2013-01-26T13:56:33Z</time>
      </trkpt>
      <trkpt lat="43.43282" lon="6.06892">
        <ele>256.20001220703</ele>
        <time>2013-01-26T13:56:34Z</time>
      </trkpt>
      <trkpt lat="43.43282" lon="6.06901">
        <ele>255.80000305176</ele>
        <time>2013-01-26T13:56:35Z</time>
      </trkpt>
      <trkpt lat="43.43282" lon="6.0691">
        <ele>255</ele>
        <time>2013-01-26T13:56:36Z</time>
      </trkpt>
      <trkpt lat="43.43282" lon="6.0692">
        <ele>254.39999389648</ele>
        <time>2013-01-26T13:56:37Z</time>
      </trkpt>
      <trkpt lat="43.43282" lon="6.0693">
        <ele>253.60000610352</ele>
        <time>2013-01-26T13:56:38Z</time>
      </trkpt>
      <trkpt lat="43.43283" lon="6.06941">
        <ele>252.80000305176</ele>
        <time>2013-01-26T13:56:39Z</time>
      </trkpt>
      <trkpt lat="43.43283" lon="6.06952">
        <ele>252.19999694824</ele>
        <time>2013-01-26T13:56:40Z</time>
      </trkpt>
      <trkpt lat="43.43283" lon="6.06962">
        <ele>251.39999389648</ele>
        <time>2013-01-26T13:56:41Z</time>
      </trkpt>
      <trkpt lat="43.43282" lon="6.06971">
        <ele>250.60000610352</ele>
        <time>2013-01-26T13:56:42Z</time>
      </trkpt>
      <trkpt lat="43.43281" lon="6.0698">
        <ele>250</ele>
        <time>2013-01-26T13:56:43Z</time>
      </trkpt>
      <trkpt lat="43.43279" lon="6.06987">
        <ele>249.39999389648</ele>
        <time>2013-01-26T13:56:44Z</time>
      </trkpt>
      <trkpt lat="43.43277" lon="6.06994">
        <ele>248.80000305176</ele>
        <time>2013-01-26T13:56:45Z</time>
      </trkpt>
      <trkpt lat="43.43275" lon="6.07">
        <ele>248.39999389648</ele>
        <time>2013-01-26T13:56:46Z</time>
      </trkpt>
      <trkpt lat="43.43275" lon="6.07004">
        <ele>247.80000305176</ele>
        <time>2013-01-26T13:56:47Z</time>
      </trkpt>
      <trkpt lat="43.43275" lon="6.07008">
        <ele>247.80000305176</ele>
        <time>2013-01-26T13:56:48Z</time>
      </trkpt>
      <trkpt lat="43.43278" lon="6.07022">
        <ele>247.80000305176</ele>
        <time>2013-01-26T13:56:52Z</time>
      </trkpt>
      <trkpt lat="43.4328" lon="6.07024">
        <ele>247.80000305176</ele>
        <time>2013-01-26T13:56:53Z</time>
      </trkpt>
      <trkpt lat="43.43283" lon="6.07023">
        <ele>247.80000305176</ele>
        <time>2013-01-26T13:56:55Z</time>
      </trkpt>
      <trkpt lat="43.43289" lon="6.07019">
        <ele>247.80000305176</ele>
        <time>2013-01-26T13:56:58Z</time>
      </trkpt>
      <trkpt lat="43.43292" lon="6.07018">
        <ele>247.80000305176</ele>
        <time>2013-01-26T13:56:59Z</time>
      </trkpt>
      <trkpt lat="43.43307" lon="6.07013">
        <ele>247.80000305176</ele>
        <time>2013-01-26T13:57:05Z</time>
      </trkpt>
      <trkpt lat="43.43309" lon="6.07013">
        <ele>247.80000305176</ele>
        <time>2013-01-26T13:57:06Z</time>
      </trkpt>
      <trkpt lat="43.43322" lon="6.07016">
        <ele>247.80000305176</ele>
        <time>2013-01-26T13:57:11Z</time>
      </trkpt>
      <trkpt lat="43.43325" lon="6.07017">
        <ele>247.80000305176</ele>
        <time>2013-01-26T13:57:12Z</time>
      </trkpt>
      <trkpt lat="43.43342" lon="6.07023">
        <ele>247.80000305176</ele>
        <time>2013-01-26T13:57:19Z</time>
      </trkpt>
      <trkpt lat="43.43385" lon="6.07036">
        <ele>247.80000305176</ele>
        <time>2013-01-26T13:57:35Z</time>
      </trkpt>
      <trkpt lat="43.43393" lon="6.07039">
        <ele>247.80000305176</ele>
        <time>2013-01-26T13:57:38Z</time>
      </trkpt>
      <trkpt lat="43.43404" lon="6.07043">
        <ele>247.80000305176</ele>
        <time>2013-01-26T13:57:42Z</time>
      </trkpt>
      <trkpt lat="43.4341" lon="6.07044">
        <ele>247.80000305176</ele>
        <time>2013-01-26T13:57:44Z</time>
      </trkpt>
      <trkpt lat="43.43428" lon="6.07048">
        <ele>247.80000305176</ele>
        <time>2013-01-26T13:57:50Z</time>
      </trkpt>
      <trkpt lat="43.43439" lon="6.07051">
        <ele>248.60000610352</ele>
        <time>2013-01-26T13:57:54Z</time>
      </trkpt>
      <trkpt lat="43.43452" lon="6.07055">
        <ele>249.80000305176</ele>
        <time>2013-01-26T13:57:59Z</time>
      </trkpt>
      <trkpt lat="43.43471" lon="6.07059">
        <ele>249.80000305176</ele>
        <time>2013-01-26T13:58:06Z</time>
      </trkpt>
      <trkpt lat="43.43483" lon="6.07066">
        <ele>249.80000305176</ele>
        <time>2013-01-26T13:58:11Z</time>
      </trkpt>
      <trkpt lat="43.435" lon="6.07073">
        <ele>249.80000305176</ele>
        <time>2013-01-26T13:58:17Z</time>
      </trkpt>
      <trkpt lat="43.43525" lon="6.07081">
        <ele>249.80000305176</ele>
        <time>2013-01-26T13:58:24Z</time>
      </trkpt>
      <trkpt lat="43.43541" lon="6.07085">
        <ele>249.80000305176</ele>
        <time>2013-01-26T13:58:29Z</time>
      </trkpt>
      <trkpt lat="43.43561" lon="6.07091">
        <ele>249.80000305176</ele>
        <time>2013-01-26T13:58:35Z</time>
      </trkpt>
      <trkpt lat="43.43584" lon="6.07097">
        <ele>249.80000305176</ele>
        <time>2013-01-26T13:58:40Z</time>
      </trkpt>
      <trkpt lat="43.43594" lon="6.071">
        <ele>249</ele>
        <time>2013-01-26T13:58:42Z</time>
      </trkpt>
      <trkpt lat="43.43599" lon="6.07102">
        <ele>248.60000610352</ele>
        <time>2013-01-26T13:58:43Z</time>
      </trkpt>
      <trkpt lat="43.43608" lon="6.07105">
        <ele>247.60000610352</ele>
        <time>2013-01-26T13:58:45Z</time>
      </trkpt>
      <trkpt lat="43.4362" lon="6.07108">
        <ele>247.60000610352</ele>
        <time>2013-01-26T13:58:48Z</time>
      </trkpt>
      <trkpt lat="43.43639" lon="6.07112">
        <ele>247.60000610352</ele>
        <time>2013-01-26T13:58:54Z</time>
      </trkpt>
      <trkpt lat="43.43655" lon="6.07116">
        <ele>247.60000610352</ele>
        <time>2013-01-26T13:59:00Z</time>
      </trkpt>
      <trkpt lat="43.43675" lon="6.07119">
        <ele>247.60000610352</ele>
        <time>2013-01-26T13:59:07Z</time>
      </trkpt>
      <trkpt lat="43.43698" lon="6.07112">
        <ele>247.60000610352</ele>
        <time>2013-01-26T13:59:14Z</time>
      </trkpt>
      <trkpt lat="43.43718" lon="6.071">
        <ele>247.60000610352</ele>
        <time>2013-01-26T13:59:21Z</time>
      </trkpt>
      <trkpt lat="43.43738" lon="6.07082">
        <ele>247.60000610352</ele>
        <time>2013-01-26T13:59:29Z</time>
      </trkpt>
      <trkpt lat="43.43753" lon="6.07065">
        <ele>247.60000610352</ele>
        <time>2013-01-26T13:59:36Z</time>
      </trkpt>
      <trkpt lat="43.43769" lon="6.07046">
        <ele>247.60000610352</ele>
        <time>2013-01-26T13:59:43Z</time>
      </trkpt>
      <trkpt lat="43.43789" lon="6.07028">
        <ele>247.60000610352</ele>
        <time>2013-01-26T13:59:51Z</time>
      </trkpt>
      <trkpt lat="43.43807" lon="6.0701">
        <ele>247.60000610352</ele>
        <time>2013-01-26T13:59:59Z</time>
      </trkpt>
      <trkpt lat="43.43823" lon="6.06991">
        <ele>248.39999389648</ele>
        <time>2013-01-26T14:00:06Z</time>
      </trkpt>
      <trkpt lat="43.43828" lon="6.06984">
        <ele>249.60000610352</ele>
        <time>2013-01-26T14:00:09Z</time>
      </trkpt>
      <trkpt lat="43.43839" lon="6.06967">
        <ele>249.60000610352</ele>
        <time>2013-01-26T14:00:15Z</time>
      </trkpt>
      <trkpt lat="43.43845" lon="6.06946">
        <ele>249.60000610352</ele>
        <time>2013-01-26T14:00:21Z</time>
      </trkpt>
      <trkpt lat="43.43858" lon="6.06928">
        <ele>249.60000610352</ele>
        <time>2013-01-26T14:00:29Z</time>
      </trkpt>
      <trkpt lat="43.4386" lon="6.06918">
        <ele>249.60000610352</ele>
        <time>2013-01-26T14:00:32Z</time>
      </trkpt>
      <trkpt lat="43.43861" lon="6.06912">
        <ele>249.60000610352</ele>
        <time>2013-01-26T14:00:34Z</time>
      </trkpt>
      <trkpt lat="43.43862" lon="6.06897">
        <ele>249.60000610352</ele>
        <time>2013-01-26T14:00:38Z</time>
      </trkpt>
      <trkpt lat="43.43864" lon="6.06888">
        <ele>249.60000610352</ele>
        <time>2013-01-26T14:00:41Z</time>
      </trkpt>
      <trkpt lat="43.43868" lon="6.06883">
        <ele>249.60000610352</ele>
        <time>2013-01-26T14:00:43Z</time>
      </trkpt>
      <trkpt lat="43.4387" lon="6.0687">
        <ele>249.60000610352</ele>
        <time>2013-01-26T14:00:46Z</time>
      </trkpt>
      <trkpt lat="43.4387" lon="6.06866">
        <ele>249.60000610352</ele>
        <time>2013-01-26T14:00:47Z</time>
      </trkpt>
      <trkpt lat="43.43871" lon="6.0685">
        <ele>249.60000610352</ele>
        <time>2013-01-26T14:00:51Z</time>
      </trkpt>
      <trkpt lat="43.43871" lon="6.06839">
        <ele>250.19999694824</ele>
        <time>2013-01-26T14:00:54Z</time>
      </trkpt>
      <trkpt lat="43.43874" lon="6.06808">
        <ele>251.80000305176</ele>
        <time>2013-01-26T14:01:03Z</time>
      </trkpt>
      <trkpt lat="43.43875" lon="6.06787">
        <ele>251.80000305176</ele>
        <time>2013-01-26T14:01:10Z</time>
      </trkpt>
      <trkpt lat="43.43877" lon="6.06751">
        <ele>253.39999389648</ele>
        <time>2013-01-26T14:01:21Z</time>
      </trkpt>
      <trkpt lat="43.43877" lon="6.06738">
        <ele>253.80000305176</ele>
        <time>2013-01-26T14:01:25Z</time>
      </trkpt>
      <trkpt lat="43.4388" lon="6.06716">
        <ele>253.80000305176</ele>
        <time>2013-01-26T14:01:32Z</time>
      </trkpt>
      <trkpt lat="43.43884" lon="6.06687">
        <ele>255.19999694824</ele>
        <time>2013-01-26T14:01:40Z</time>
      </trkpt>
      <trkpt lat="43.43885" lon="6.06678">
        <ele>256</ele>
        <time>2013-01-26T14:01:42Z</time>
      </trkpt>
      <trkpt lat="43.43884" lon="6.06665">
        <ele>256</ele>
        <time>2013-01-26T14:01:45Z</time>
      </trkpt>
      <trkpt lat="43.43885" lon="6.06633">
        <ele>256</ele>
        <time>2013-01-26T14:01:53Z</time>
      </trkpt>
      <trkpt lat="43.43887" lon="6.06621">
        <ele>257.20001220703</ele>
        <time>2013-01-26T14:01:57Z</time>
      </trkpt>
      <trkpt lat="43.43887" lon="6.06618">
        <ele>257.60000610352</ele>
        <time>2013-01-26T14:01:58Z</time>
      </trkpt>
      <trkpt lat="43.43888" lon="6.06611">
        <ele>258</ele>
        <time>2013-01-26T14:02:00Z</time>
      </trkpt>
      <trkpt lat="43.43889" lon="6.06587">
        <ele>258</ele>
        <time>2013-01-26T14:02:07Z</time>
      </trkpt>
      <trkpt lat="43.43891" lon="6.06562">
        <ele>258</ele>
        <time>2013-01-26T14:02:14Z</time>
      </trkpt>
      <trkpt lat="43.43893" lon="6.0655">
        <ele>258.39999389648</ele>
        <time>2013-01-26T14:02:18Z</time>
      </trkpt>
      <trkpt lat="43.43893" lon="6.06542">
        <ele>259.60000610352</ele>
        <time>2013-01-26T14:02:20Z</time>
      </trkpt>
      <trkpt lat="43.43894" lon="6.06518">
        <ele>260</ele>
        <time>2013-01-26T14:02:26Z</time>
      </trkpt>
      <trkpt lat="43.43894" lon="6.06504">
        <ele>260</ele>
        <time>2013-01-26T14:02:30Z</time>
      </trkpt>
      <trkpt lat="43.43894" lon="6.06489">
        <ele>260</ele>
        <time>2013-01-26T14:02:34Z</time>
      </trkpt>
      <trkpt lat="43.43895" lon="6.06469">
        <ele>262.20001220703</ele>
        <time>2013-01-26T14:02:40Z</time>
      </trkpt>
      <trkpt lat="43.43895" lon="6.0644">
        <ele>262.20001220703</ele>
        <time>2013-01-26T14:02:49Z</time>
      </trkpt>
      <trkpt lat="43.43896" lon="6.06417">
        <ele>264.20001220703</ele>
        <time>2013-01-26T14:02:57Z</time>
      </trkpt>
      <trkpt lat="43.43899" lon="6.06377">
        <ele>266.20001220703</ele>
        <time>2013-01-26T14:03:12Z</time>
      </trkpt>
      <trkpt lat="43.439" lon="6.06359">
        <ele>266.20001220703</ele>
        <time>2013-01-26T14:03:19Z</time>
      </trkpt>
      <trkpt lat="43.439" lon="6.06348">
        <ele>267.60000610352</ele>
        <time>2013-01-26T14:03:24Z</time>
      </trkpt>
      <trkpt lat="43.439" lon="6.06344">
        <ele>268.39999389648</ele>
        <time>2013-01-26T14:03:26Z</time>
      </trkpt>
      <trkpt lat="43.439" lon="6.06342">
        <ele>268.39999389648</ele>
        <time>2013-01-26T14:03:27Z</time>
      </trkpt>
      <trkpt lat="43.43903" lon="6.06328">
        <ele>268.39999389648</ele>
        <time>2013-01-26T14:03:34Z</time>
      </trkpt>
      <trkpt lat="43.43906" lon="6.0631">
        <ele>269.20001220703</ele>
        <time>2013-01-26T14:03:41Z</time>
      </trkpt>
      <trkpt lat="43.43908" lon="6.06302">
        <ele>270.60000610352</ele>
        <time>2013-01-26T14:03:44Z</time>
      </trkpt>
      <trkpt lat="43.43909" lon="6.06294">
        <ele>270.60000610352</ele>
        <time>2013-01-26T14:03:47Z</time>
      </trkpt>
      <trkpt lat="43.43916" lon="6.06275">
        <ele>270.60000610352</ele>
        <time>2013-01-26T14:03:55Z</time>
      </trkpt>
      <trkpt lat="43.43922" lon="6.06258">
        <ele>271</ele>
        <time>2013-01-26T14:04:02Z</time>
      </trkpt>
      <trkpt lat="43.43927" lon="6.06248">
        <ele>272.60000610352</ele>
        <time>2013-01-26T14:04:06Z</time>
      </trkpt>
      <trkpt lat="43.43933" lon="6.06218">
        <ele>272.60000610352</ele>
        <time>2013-01-26T14:04:16Z</time>
      </trkpt>
      <trkpt lat="43.43938" lon="6.06195">
        <ele>272.60000610352</ele>
        <time>2013-01-26T14:04:23Z</time>
      </trkpt>
      <trkpt lat="43.4394" lon="6.06188">
        <ele>273.39999389648</ele>
        <time>2013-01-26T14:04:25Z</time>
      </trkpt>
      <trkpt lat="43.4394" lon="6.06185">
        <ele>273.79998779297</ele>
        <time>2013-01-26T14:04:26Z</time>
      </trkpt>
      <trkpt lat="43.43943" lon="6.06165">
        <ele>274.60000610352</ele>
        <time>2013-01-26T14:04:32Z</time>
      </trkpt>
      <trkpt lat="43.43944" lon="6.06137">
        <ele>274.60000610352</ele>
        <time>2013-01-26T14:04:40Z</time>
      </trkpt>
      <trkpt lat="43.43945" lon="6.0612">
        <ele>274.60000610352</ele>
        <time>2013-01-26T14:04:45Z</time>
      </trkpt>
      <trkpt lat="43.43948" lon="6.06069">
        <ele>276.60000610352</ele>
        <time>2013-01-26T14:04:59Z</time>
      </trkpt>
      <trkpt lat="43.43953" lon="6.06039">
        <ele>276.60000610352</ele>
        <time>2013-01-26T14:05:07Z</time>
      </trkpt>
      <trkpt lat="43.43963" lon="6.05981">
        <ele>276.60000610352</ele>
        <time>2013-01-26T14:05:23Z</time>
      </trkpt>
      <trkpt lat="43.43968" lon="6.05952">
        <ele>276.60000610352</ele>
        <time>2013-01-26T14:05:31Z</time>
      </trkpt>
      <trkpt lat="43.43974" lon="6.05922">
        <ele>278.60000610352</ele>
        <time>2013-01-26T14:05:39Z</time>
      </trkpt>
      <trkpt lat="43.43982" lon="6.05901">
        <ele>278.60000610352</ele>
        <time>2013-01-26T14:05:45Z</time>
      </trkpt>
      <trkpt lat="43.43997" lon="6.05849">
        <ele>278.60000610352</ele>
        <time>2013-01-26T14:06:00Z</time>
      </trkpt>
      <trkpt lat="43.44014" lon="6.05797">
        <ele>278.60000610352</ele>
        <time>2013-01-26T14:06:16Z</time>
      </trkpt>
      <trkpt lat="43.44023" lon="6.05768">
        <ele>280.60000610352</ele>
        <time>2013-01-26T14:06:25Z</time>
      </trkpt>
      <trkpt lat="43.44031" lon="6.05741">
        <ele>280.60000610352</ele>
        <time>2013-01-26T14:06:33Z</time>
      </trkpt>
      <trkpt lat="43.44037" lon="6.05715">
        <ele>280.60000610352</ele>
        <time>2013-01-26T14:06:40Z</time>
      </trkpt>
      <trkpt lat="43.44041" lon="6.0569">
        <ele>281</ele>
        <time>2013-01-26T14:06:47Z</time>
      </trkpt>
      <trkpt lat="43.44041" lon="6.0568">
        <ele>282.79998779297</ele>
        <time>2013-01-26T14:06:50Z</time>
      </trkpt>
      <trkpt lat="43.44046" lon="6.05664">
        <ele>282.79998779297</ele>
        <time>2013-01-26T14:06:55Z</time>
      </trkpt>
      <trkpt lat="43.44055" lon="6.05662">
        <ele>282.79998779297</ele>
        <time>2013-01-26T14:06:59Z</time>
      </trkpt>
      <trkpt lat="43.44066" lon="6.05662">
        <ele>282.79998779297</ele>
        <time>2013-01-26T14:07:05Z</time>
      </trkpt>
      <trkpt lat="43.4408" lon="6.05662">
        <ele>282.79998779297</ele>
        <time>2013-01-26T14:07:13Z</time>
      </trkpt>
      <trkpt lat="43.44085" lon="6.05662">
        <ele>282.79998779297</ele>
        <time>2013-01-26T14:07:18Z</time>
      </trkpt>
      <trkpt lat="43.44085" lon="6.05662">
        <ele>282.79998779297</ele>
        <time>2013-01-26T14:07:47Z</time>
      </trkpt>
      <trkpt lat="43.44086" lon="6.05662">
        <ele>282.79998779297</ele>
        <time>2013-01-26T14:08:06Z</time>
      </trkpt>
      <trkpt lat="43.44086" lon="6.05662">
        <ele>282.79998779297</ele>
        <time>2013-01-26T14:08:33Z</time>
      </trkpt>
      <trkpt lat="43.44086" lon="6.05662">
        <ele>282.79998779297</ele>
        <time>2013-01-26T14:08:58Z</time>
      </trkpt>
      <trkpt lat="43.44086" lon="6.05662">
        <ele>282.79998779297</ele>
        <time>2013-01-26T14:09:08Z</time>
      </trkpt>
      <trkpt lat="43.4409" lon="6.05661">
        <ele>282.79998779297</ele>
        <time>2013-01-26T14:09:16Z</time>
      </trkpt>
      <trkpt lat="43.44102" lon="6.05661">
        <ele>283.20001220703</ele>
        <time>2013-01-26T14:09:22Z</time>
      </trkpt>
      <trkpt lat="43.44104" lon="6.05661">
        <ele>283.60000610352</ele>
        <time>2013-01-26T14:09:23Z</time>
      </trkpt>
      <trkpt lat="43.44108" lon="6.05661">
        <ele>284.39999389648</ele>
        <time>2013-01-26T14:09:25Z</time>
      </trkpt>
      <trkpt lat="43.4411" lon="6.05661">
        <ele>284.79998779297</ele>
        <time>2013-01-26T14:09:26Z</time>
      </trkpt>
      <trkpt lat="43.44118" lon="6.0566">
        <ele>284.79998779297</ele>
        <time>2013-01-26T14:09:30Z</time>
      </trkpt>
      <trkpt lat="43.44129" lon="6.05659">
        <ele>284.79998779297</ele>
        <time>2013-01-26T14:09:36Z</time>
      </trkpt>
      <trkpt lat="43.44141" lon="6.05655">
        <ele>284.79998779297</ele>
        <time>2013-01-26T14:09:42Z</time>
      </trkpt>
      <trkpt lat="43.44154" lon="6.0565">
        <ele>285.60000610352</ele>
        <time>2013-01-26T14:09:49Z</time>
      </trkpt>
      <trkpt lat="43.44163" lon="6.05646">
        <ele>286.79998779297</ele>
        <time>2013-01-26T14:09:54Z</time>
      </trkpt>
      <trkpt lat="43.44175" lon="6.05642">
        <ele>286.79998779297</ele>
        <time>2013-01-26T14:10:00Z</time>
      </trkpt>
      <trkpt lat="43.44189" lon="6.05637">
        <ele>286.79998779297</ele>
        <time>2013-01-26T14:10:07Z</time>
      </trkpt>
      <trkpt lat="43.44205" lon="6.05632">
        <ele>288.79998779297</ele>
        <time>2013-01-26T14:10:15Z</time>
      </trkpt>
      <trkpt lat="43.44237" lon="6.05626">
        <ele>289.20001220703</ele>
        <time>2013-01-26T14:10:31Z</time>
      </trkpt>
      <trkpt lat="43.44241" lon="6.05625">
        <ele>290.39999389648</ele>
        <time>2013-01-26T14:10:33Z</time>
      </trkpt>
      <trkpt lat="43.44253" lon="6.05622">
        <ele>290.79998779297</ele>
        <time>2013-01-26T14:10:40Z</time>
      </trkpt>
      <trkpt lat="43.44258" lon="6.05622">
        <ele>291.20001220703</ele>
        <time>2013-01-26T14:10:43Z</time>
      </trkpt>
      <trkpt lat="43.44264" lon="6.0562">
        <ele>293</ele>
        <time>2013-01-26T14:10:47Z</time>
      </trkpt>
      <trkpt lat="43.44266" lon="6.0562">
        <ele>293</ele>
        <time>2013-01-26T14:10:48Z</time>
      </trkpt>
      <trkpt lat="43.44277" lon="6.05617">
        <ele>293</ele>
        <time>2013-01-26T14:10:55Z</time>
      </trkpt>
      <trkpt lat="43.44302" lon="6.05609">
        <ele>295</ele>
        <time>2013-01-26T14:11:11Z</time>
      </trkpt>
      <trkpt lat="43.44305" lon="6.05608">
        <ele>295.39999389648</ele>
        <time>2013-01-26T14:11:13Z</time>
      </trkpt>
      <trkpt lat="43.44322" lon="6.05605">
        <ele>297.20001220703</ele>
        <time>2013-01-26T14:11:25Z</time>
      </trkpt>
      <trkpt lat="43.44331" lon="6.05605">
        <ele>298.39999389648</ele>
        <time>2013-01-26T14:11:31Z</time>
      </trkpt>
      <trkpt lat="43.44342" lon="6.05605">
        <ele>299.39999389648</ele>
        <time>2013-01-26T14:11:39Z</time>
      </trkpt>
      <trkpt lat="43.44346" lon="6.05605">
        <ele>299.79998779297</ele>
        <time>2013-01-26T14:11:42Z</time>
      </trkpt>
      <trkpt lat="43.4435" lon="6.05604">
        <ele>301</ele>
        <time>2013-01-26T14:11:45Z</time>
      </trkpt>
      <trkpt lat="43.44351" lon="6.05604">
        <ele>301.39999389648</ele>
        <time>2013-01-26T14:11:46Z</time>
      </trkpt>
      <trkpt lat="43.44359" lon="6.05604">
        <ele>301.79998779297</ele>
        <time>2013-01-26T14:11:53Z</time>
      </trkpt>
      <trkpt lat="43.44365" lon="6.05604">
        <ele>303.39999389648</ele>
        <time>2013-01-26T14:11:57Z</time>
      </trkpt>
      <trkpt lat="43.44373" lon="6.05605">
        <ele>303.39999389648</ele>
        <time>2013-01-26T14:12:03Z</time>
      </trkpt>
      <trkpt lat="43.44381" lon="6.05606">
        <ele>303.79998779297</ele>
        <time>2013-01-26T14:12:09Z</time>
      </trkpt>
      <trkpt lat="43.44384" lon="6.05607">
        <ele>305.39999389648</ele>
        <time>2013-01-26T14:12:12Z</time>
      </trkpt>
      <trkpt lat="43.44388" lon="6.05606">
        <ele>305.39999389648</ele>
        <time>2013-01-26T14:12:16Z</time>
      </trkpt>
      <trkpt lat="43.44397" lon="6.05606">
        <ele>306.39999389648</ele>
        <time>2013-01-26T14:12:22Z</time>
      </trkpt>
      <trkpt lat="43.444" lon="6.05604">
        <ele>307.60000610352</ele>
        <time>2013-01-26T14:12:25Z</time>
      </trkpt>
      <trkpt lat="43.44402" lon="6.05603">
        <ele>307.60000610352</ele>
        <time>2013-01-26T14:12:27Z</time>
      </trkpt>
      <trkpt lat="43.44406" lon="6.05596">
        <ele>308</ele>
        <time>2013-01-26T14:12:32Z</time>
      </trkpt>
      <trkpt lat="43.44408" lon="6.05592">
        <ele>309.20001220703</ele>
        <time>2013-01-26T14:12:35Z</time>
      </trkpt>
      <trkpt lat="43.44413" lon="6.05583">
        <ele>310.20001220703</ele>
        <time>2013-01-26T14:12:42Z</time>
      </trkpt>
      <trkpt lat="43.44415" lon="6.0558">
        <ele>311</ele>
        <time>2013-01-26T14:12:44Z</time>
      </trkpt>
      <trkpt lat="43.44417" lon="6.05575">
        <ele>311.79998779297</ele>
        <time>2013-01-26T14:12:49Z</time>
      </trkpt>
      <trkpt lat="43.4442" lon="6.05569">
        <ele>312.60000610352</ele>
        <time>2013-01-26T14:12:54Z</time>
      </trkpt>
      <trkpt lat="43.44421" lon="6.05566">
        <ele>313.39999389648</ele>
        <time>2013-01-26T14:12:56Z</time>
      </trkpt>
      <trkpt lat="43.44422" lon="6.05565">
        <ele>313.79998779297</ele>
        <time>2013-01-26T14:12:57Z</time>
      </trkpt>
      <trkpt lat="43.44424" lon="6.05561">
        <ele>313.79998779297</ele>
        <time>2013-01-26T14:13:01Z</time>
      </trkpt>
      <trkpt lat="43.44427" lon="6.05551">
        <ele>315.39999389648</ele>
        <time>2013-01-26T14:13:07Z</time>
      </trkpt>
      <trkpt lat="43.44428" lon="6.05545">
        <ele>315.79998779297</ele>
        <time>2013-01-26T14:13:11Z</time>
      </trkpt>
      <trkpt lat="43.44429" lon="6.05542">
        <ele>315.79998779297</ele>
        <time>2013-01-26T14:13:13Z</time>
      </trkpt>
      <trkpt lat="43.44432" lon="6.05533">
        <ele>317.60000610352</ele>
        <time>2013-01-26T14:13:19Z</time>
      </trkpt>
      <trkpt lat="43.44437" lon="6.05517">
        <ele>318.79998779297</ele>
        <time>2013-01-26T14:13:30Z</time>
      </trkpt>
      <trkpt lat="43.4444" lon="6.05507">
        <ele>320.20001220703</ele>
        <time>2013-01-26T14:13:37Z</time>
      </trkpt>
      <trkpt lat="43.44444" lon="6.05496">
        <ele>321</ele>
        <time>2013-01-26T14:13:43Z</time>
      </trkpt>
      <trkpt lat="43.44446" lon="6.05484">
        <ele>322.20001220703</ele>
        <time>2013-01-26T14:13:51Z</time>
      </trkpt>
      <trkpt lat="43.44447" lon="6.05479">
        <ele>323.39999389648</ele>
        <time>2013-01-26T14:13:54Z</time>
      </trkpt>
      <trkpt lat="43.44448" lon="6.05475">
        <ele>324.20001220703</ele>
        <time>2013-01-26T14:13:56Z</time>
      </trkpt>
      <trkpt lat="43.4445" lon="6.05468">
        <ele>324.20001220703</ele>
        <time>2013-01-26T14:14:00Z</time>
      </trkpt>
      <trkpt lat="43.44451" lon="6.05463">
        <ele>324.79998779297</ele>
        <time>2013-01-26T14:14:02Z</time>
      </trkpt>
      <trkpt lat="43.44452" lon="6.0546">
        <ele>325.60000610352</ele>
        <time>2013-01-26T14:14:04Z</time>
      </trkpt>
      <trkpt lat="43.44453" lon="6.05454">
        <ele>326.60000610352</ele>
        <time>2013-01-26T14:14:10Z</time>
      </trkpt>
      <trkpt lat="43.44453" lon="6.05451">
        <ele>326.60000610352</ele>
        <time>2013-01-26T14:14:12Z</time>
      </trkpt>
      <trkpt lat="43.44453" lon="6.05445">
        <ele>327</ele>
        <time>2013-01-26T14:14:15Z</time>
      </trkpt>
      <trkpt lat="43.44455" lon="6.05442">
        <ele>328.79998779297</ele>
        <time>2013-01-26T14:14:19Z</time>
      </trkpt>
      <trkpt lat="43.44456" lon="6.05439">
        <ele>328.79998779297</ele>
        <time>2013-01-26T14:14:21Z</time>
      </trkpt>
      <trkpt lat="43.44457" lon="6.05432">
        <ele>328.79998779297</ele>
        <time>2013-01-26T14:14:26Z</time>
      </trkpt>
      <trkpt lat="43.44459" lon="6.05429">
        <ele>329.20001220703</ele>
        <time>2013-01-26T14:14:29Z</time>
      </trkpt>
      <trkpt lat="43.4446" lon="6.05419">
        <ele>330.79998779297</ele>
        <time>2013-01-26T14:14:38Z</time>
      </trkpt>
      <trkpt lat="43.44461" lon="6.05415">
        <ele>330.79998779297</ele>
        <time>2013-01-26T14:14:42Z</time>
      </trkpt>
      <trkpt lat="43.44468" lon="6.05402">
        <ele>330.79998779297</ele>
        <time>2013-01-26T14:14:55Z</time>
      </trkpt>
      <trkpt lat="43.44472" lon="6.05395">
        <ele>332.79998779297</ele>
        <time>2013-01-26T14:15:03Z</time>
      </trkpt>
      <trkpt lat="43.44474" lon="6.05389">
        <ele>332.79998779297</ele>
        <time>2013-01-26T14:15:08Z</time>
      </trkpt>
      <trkpt lat="43.44478" lon="6.05379">
        <ele>332.79998779297</ele>
        <time>2013-01-26T14:15:18Z</time>
      </trkpt>
      <trkpt lat="43.4448" lon="6.05375">
        <ele>332.79998779297</ele>
        <time>2013-01-26T14:15:22Z</time>
      </trkpt>
      <trkpt lat="43.44481" lon="6.05371">
        <ele>332.79998779297</ele>
        <time>2013-01-26T14:15:25Z</time>
      </trkpt>
      <trkpt lat="43.44483" lon="6.05366">
        <ele>332.79998779297</ele>
        <time>2013-01-26T14:15:31Z</time>
      </trkpt>
      <trkpt lat="43.4449" lon="6.05351">
        <ele>332.79998779297</ele>
        <time>2013-01-26T14:15:43Z</time>
      </trkpt>
      <trkpt lat="43.44491" lon="6.05347">
        <ele>334</ele>
        <time>2013-01-26T14:15:46Z</time>
      </trkpt>
      <trkpt lat="43.44495" lon="6.05342">
        <ele>334.79998779297</ele>
        <time>2013-01-26T14:15:50Z</time>
      </trkpt>
      <trkpt lat="43.44504" lon="6.05326">
        <ele>334.79998779297</ele>
        <time>2013-01-26T14:16:03Z</time>
      </trkpt>
      <trkpt lat="43.44508" lon="6.05318">
        <ele>334.79998779297</ele>
        <time>2013-01-26T14:16:09Z</time>
      </trkpt>
      <trkpt lat="43.44515" lon="6.05307">
        <ele>334.79998779297</ele>
        <time>2013-01-26T14:16:17Z</time>
      </trkpt>
      <trkpt lat="43.44523" lon="6.05294">
        <ele>334.79998779297</ele>
        <time>2013-01-26T14:16:26Z</time>
      </trkpt>
      <trkpt lat="43.44529" lon="6.05286">
        <ele>334.79998779297</ele>
        <time>2013-01-26T14:16:32Z</time>
      </trkpt>
      <trkpt lat="43.44535" lon="6.05274">
        <ele>334.79998779297</ele>
        <time>2013-01-26T14:16:38Z</time>
      </trkpt>
      <trkpt lat="43.44543" lon="6.05261">
        <ele>335.20001220703</ele>
        <time>2013-01-26T14:16:46Z</time>
      </trkpt>
      <trkpt lat="43.44547" lon="6.05254">
        <ele>336.79998779297</ele>
        <time>2013-01-26T14:16:50Z</time>
      </trkpt>
      <trkpt lat="43.4455" lon="6.05249">
        <ele>336.79998779297</ele>
        <time>2013-01-26T14:16:54Z</time>
      </trkpt>
      <trkpt lat="43.44555" lon="6.05239">
        <ele>336.79998779297</ele>
        <time>2013-01-26T14:17:00Z</time>
      </trkpt>
      <trkpt lat="43.44561" lon="6.05227">
        <ele>336.79998779297</ele>
        <time>2013-01-26T14:17:06Z</time>
      </trkpt>
      <trkpt lat="43.44569" lon="6.05217">
        <ele>336.79998779297</ele>
        <time>2013-01-26T14:17:12Z</time>
      </trkpt>
      <trkpt lat="43.44576" lon="6.05204">
        <ele>336.79998779297</ele>
        <time>2013-01-26T14:17:18Z</time>
      </trkpt>
      <trkpt lat="43.44587" lon="6.0519">
        <ele>336.79998779297</ele>
        <time>2013-01-26T14:17:28Z</time>
      </trkpt>
      <trkpt lat="43.4459" lon="6.05188">
        <ele>336.79998779297</ele>
        <time>2013-01-26T14:17:30Z</time>
      </trkpt>
      <trkpt lat="43.44598" lon="6.05186">
        <ele>336.79998779297</ele>
        <time>2013-01-26T14:17:35Z</time>
      </trkpt>
      <trkpt lat="43.44607" lon="6.05179">
        <ele>338.39999389648</ele>
        <time>2013-01-26T14:17:42Z</time>
      </trkpt>
      <trkpt lat="43.44614" lon="6.05178">
        <ele>338.79998779297</ele>
        <time>2013-01-26T14:17:46Z</time>
      </trkpt>
      <trkpt lat="43.4462" lon="6.05178">
        <ele>339.39999389648</ele>
        <time>2013-01-26T14:17:50Z</time>
      </trkpt>
      <trkpt lat="43.44626" lon="6.05178">
        <ele>341</ele>
        <time>2013-01-26T14:17:54Z</time>
      </trkpt>
      <trkpt lat="43.44631" lon="6.05177">
        <ele>341</ele>
        <time>2013-01-26T14:17:58Z</time>
      </trkpt>
      <trkpt lat="43.44638" lon="6.05176">
        <ele>341</ele>
        <time>2013-01-26T14:18:03Z</time>
      </trkpt>
      <trkpt lat="43.44646" lon="6.05175">
        <ele>343</ele>
        <time>2013-01-26T14:18:09Z</time>
      </trkpt>
      <trkpt lat="43.44661" lon="6.05174">
        <ele>343</ele>
        <time>2013-01-26T14:18:19Z</time>
      </trkpt>
      <trkpt lat="43.44672" lon="6.05176">
        <ele>343</ele>
        <time>2013-01-26T14:18:25Z</time>
      </trkpt>
      <trkpt lat="43.44676" lon="6.05178">
        <ele>343</ele>
        <time>2013-01-26T14:18:29Z</time>
      </trkpt>
      <trkpt lat="43.44679" lon="6.05178">
        <ele>344</ele>
        <time>2013-01-26T14:18:31Z</time>
      </trkpt>
      <trkpt lat="43.44684" lon="6.05179">
        <ele>345.20001220703</ele>
        <time>2013-01-26T14:18:34Z</time>
      </trkpt>
      <trkpt lat="43.44687" lon="6.05179">
        <ele>345.20001220703</ele>
        <time>2013-01-26T14:18:36Z</time>
      </trkpt>
      <trkpt lat="43.44693" lon="6.05177">
        <ele>345.20001220703</ele>
        <time>2013-01-26T14:18:42Z</time>
      </trkpt>
      <trkpt lat="43.44694" lon="6.05178">
        <ele>345.20001220703</ele>
        <time>2013-01-26T14:18:43Z</time>
      </trkpt>
      <trkpt lat="43.44695" lon="6.05178">
        <ele>345.20001220703</ele>
        <time>2013-01-26T14:18:47Z</time>
      </trkpt>
      <trkpt lat="43.44695" lon="6.05178">
        <ele>345.20001220703</ele>
        <time>2013-01-26T14:18:50Z</time>
      </trkpt>
      <trkpt lat="43.44698" lon="6.05179">
        <ele>345.20001220703</ele>
        <time>2013-01-26T14:18:55Z</time>
      </trkpt>
      <trkpt lat="43.44711" lon="6.05185">
        <ele>346</ele>
        <time>2013-01-26T14:19:05Z</time>
      </trkpt>
      <trkpt lat="43.44714" lon="6.05185">
        <ele>346.79998779297</ele>
        <time>2013-01-26T14:19:07Z</time>
      </trkpt>
      <trkpt lat="43.44715" lon="6.05186">
        <ele>347.20001220703</ele>
        <time>2013-01-26T14:19:08Z</time>
      </trkpt>
      <trkpt lat="43.44724" lon="6.05191">
        <ele>347.20001220703</ele>
        <time>2013-01-26T14:19:14Z</time>
      </trkpt>
      <trkpt lat="43.44731" lon="6.05196">
        <ele>348</ele>
        <time>2013-01-26T14:19:19Z</time>
      </trkpt>
      <trkpt lat="43.44734" lon="6.05198">
        <ele>349.39999389648</ele>
        <time>2013-01-26T14:19:22Z</time>
      </trkpt>
      <trkpt lat="43.4474" lon="6.05205">
        <ele>349.39999389648</ele>
        <time>2013-01-26T14:19:27Z</time>
      </trkpt>
      <trkpt lat="43.44743" lon="6.05209">
        <ele>349.79998779297</ele>
        <time>2013-01-26T14:19:31Z</time>
      </trkpt>
      <trkpt lat="43.44746" lon="6.05213">
        <ele>351.20001220703</ele>
        <time>2013-01-26T14:19:34Z</time>
      </trkpt>
      <trkpt lat="43.44747" lon="6.05213">
        <ele>351.60000610352</ele>
        <time>2013-01-26T14:19:35Z</time>
      </trkpt>
      <trkpt lat="43.44749" lon="6.05217">
        <ele>351.60000610352</ele>
        <time>2013-01-26T14:19:38Z</time>
      </trkpt>
      <trkpt lat="43.4475" lon="6.05221">
        <ele>351.60000610352</ele>
        <time>2013-01-26T14:19:42Z</time>
      </trkpt>
      <trkpt lat="43.44751" lon="6.05223">
        <ele>351.60000610352</ele>
        <time>2013-01-26T14:19:47Z</time>
      </trkpt>
      <trkpt lat="43.44751" lon="6.05223">
        <ele>351.60000610352</ele>
        <time>2013-01-26T14:20:00Z</time>
      </trkpt>
      <trkpt lat="43.44751" lon="6.05223">
        <ele>351.60000610352</ele>
        <time>2013-01-26T14:20:24Z</time>
      </trkpt>
      <trkpt lat="43.44751" lon="6.05224">
        <ele>351.60000610352</ele>
        <time>2013-01-26T14:20:27Z</time>
      </trkpt>
      <trkpt lat="43.44752" lon="6.05227">
        <ele>351.60000610352</ele>
        <time>2013-01-26T14:20:31Z</time>
      </trkpt>
      <trkpt lat="43.44752" lon="6.05228">
        <ele>351.60000610352</ele>
        <time>2013-01-26T14:20:32Z</time>
      </trkpt>
      <trkpt lat="43.44754" lon="6.0524">
        <ele>351.60000610352</ele>
        <time>2013-01-26T14:20:37Z</time>
      </trkpt>
      <trkpt lat="43.44754" lon="6.05243">
        <ele>351.60000610352</ele>
        <time>2013-01-26T14:20:38Z</time>
      </trkpt>
      <trkpt lat="43.44754" lon="6.05245">
        <ele>352</ele>
        <time>2013-01-26T14:20:39Z</time>
      </trkpt>
      <trkpt lat="43.44753" lon="6.0525">
        <ele>352.79998779297</ele>
        <time>2013-01-26T14:20:41Z</time>
      </trkpt>
      <trkpt lat="43.44754" lon="6.05262">
        <ele>353.60000610352</ele>
        <time>2013-01-26T14:20:48Z</time>
      </trkpt>
      <trkpt lat="43.44756" lon="6.05276">
        <ele>353.60000610352</ele>
        <time>2013-01-26T14:20:54Z</time>
      </trkpt>
      <trkpt lat="43.44756" lon="6.05288">
        <ele>354</ele>
        <time>2013-01-26T14:21:00Z</time>
      </trkpt>
      <trkpt lat="43.44754" lon="6.05296">
        <ele>355.79998779297</ele>
        <time>2013-01-26T14:21:04Z</time>
      </trkpt>
      <trkpt lat="43.44754" lon="6.05301">
        <ele>355.79998779297</ele>
        <time>2013-01-26T14:21:07Z</time>
      </trkpt>
      <trkpt lat="43.44755" lon="6.05314">
        <ele>355.79998779297</ele>
        <time>2013-01-26T14:21:13Z</time>
      </trkpt>
      <trkpt lat="43.44756" lon="6.05323">
        <ele>355.79998779297</ele>
        <time>2013-01-26T14:21:17Z</time>
      </trkpt>
      <trkpt lat="43.44755" lon="6.05327">
        <ele>356.20001220703</ele>
        <time>2013-01-26T14:21:19Z</time>
      </trkpt>
      <trkpt lat="43.44754" lon="6.05335">
        <ele>357.39999389648</ele>
        <time>2013-01-26T14:21:22Z</time>
      </trkpt>
      <trkpt lat="43.44753" lon="6.05343">
        <ele>357.79998779297</ele>
        <time>2013-01-26T14:21:26Z</time>
      </trkpt>
      <trkpt lat="43.44751" lon="6.05348">
        <ele>358.20001220703</ele>
        <time>2013-01-26T14:21:30Z</time>
      </trkpt>
      <trkpt lat="43.44751" lon="6.05352">
        <ele>359</ele>
        <time>2013-01-26T14:21:32Z</time>
      </trkpt>
      <trkpt lat="43.44752" lon="6.05356">
        <ele>360</ele>
        <time>2013-01-26T14:21:34Z</time>
      </trkpt>
      <trkpt lat="43.44751" lon="6.05363">
        <ele>360</ele>
        <time>2013-01-26T14:21:39Z</time>
      </trkpt>
      <trkpt lat="43.44751" lon="6.05368">
        <ele>360</ele>
        <time>2013-01-26T14:21:42Z</time>
      </trkpt>
      <trkpt lat="43.44752" lon="6.05374">
        <ele>360.79998779297</ele>
        <time>2013-01-26T14:21:46Z</time>
      </trkpt>
      <trkpt lat="43.44751" lon="6.05376">
        <ele>361.20001220703</ele>
        <time>2013-01-26T14:21:47Z</time>
      </trkpt>
      <trkpt lat="43.4475" lon="6.05384">
        <ele>362</ele>
        <time>2013-01-26T14:21:54Z</time>
      </trkpt>
      <trkpt lat="43.4475" lon="6.05385">
        <ele>362</ele>
        <time>2013-01-26T14:21:59Z</time>
      </trkpt>
      <trkpt lat="43.4475" lon="6.05385">
        <ele>362</ele>
        <time>2013-01-26T14:22:02Z</time>
      </trkpt>
      <trkpt lat="43.4475" lon="6.05385">
        <ele>362</ele>
        <time>2013-01-26T14:22:07Z</time>
      </trkpt>
      <trkpt lat="43.44749" lon="6.05385">
        <ele>362</ele>
        <time>2013-01-26T14:22:08Z</time>
      </trkpt>
      <trkpt lat="43.44751" lon="6.05394">
        <ele>362</ele>
        <time>2013-01-26T14:22:13Z</time>
      </trkpt>
      <trkpt lat="43.44751" lon="6.05403">
        <ele>362</ele>
        <time>2013-01-26T14:22:18Z</time>
      </trkpt>
      <trkpt lat="43.44751" lon="6.05405">
        <ele>362</ele>
        <time>2013-01-26T14:22:19Z</time>
      </trkpt>
      <trkpt lat="43.44752" lon="6.0542">
        <ele>364</ele>
        <time>2013-01-26T14:22:27Z</time>
      </trkpt>
      <trkpt lat="43.44752" lon="6.05442">
        <ele>365.39999389648</ele>
        <time>2013-01-26T14:22:39Z</time>
      </trkpt>
      <trkpt lat="43.44752" lon="6.05446">
        <ele>366.20001220703</ele>
        <time>2013-01-26T14:22:41Z</time>
      </trkpt>
      <trkpt lat="43.44753" lon="6.05461">
        <ele>366.79998779297</ele>
        <time>2013-01-26T14:22:51Z</time>
      </trkpt>
      <trkpt lat="43.44754" lon="6.05465">
        <ele>368.39999389648</ele>
        <time>2013-01-26T14:22:54Z</time>
      </trkpt>
      <trkpt lat="43.44756" lon="6.0548">
        <ele>368.39999389648</ele>
        <time>2013-01-26T14:23:05Z</time>
      </trkpt>
      <trkpt lat="43.44757" lon="6.05485">
        <ele>368.79998779297</ele>
        <time>2013-01-26T14:23:08Z</time>
      </trkpt>
      <trkpt lat="43.44758" lon="6.05488">
        <ele>370.20001220703</ele>
        <time>2013-01-26T14:23:11Z</time>
      </trkpt>
      <trkpt lat="43.44759" lon="6.05489">
        <ele>370.60000610352</ele>
        <time>2013-01-26T14:23:12Z</time>
      </trkpt>
      <trkpt lat="43.44759" lon="6.05492">
        <ele>370.60000610352</ele>
        <time>2013-01-26T14:23:18Z</time>
      </trkpt>
      <trkpt lat="43.44759" lon="6.05492">
        <ele>370.60000610352</ele>
        <time>2013-01-26T14:23:22Z</time>
      </trkpt>
      <trkpt lat="43.44759" lon="6.05492">
        <ele>370.60000610352</ele>
        <time>2013-01-26T14:23:32Z</time>
      </trkpt>
      <trkpt lat="43.44763" lon="6.05496">
        <ele>370.60000610352</ele>
        <time>2013-01-26T14:23:38Z</time>
      </trkpt>
      <trkpt lat="43.44763" lon="6.05496">
        <ele>370.60000610352</ele>
        <time>2013-01-26T14:23:49Z</time>
      </trkpt>
      <trkpt lat="43.44763" lon="6.05496">
        <ele>370.60000610352</ele>
        <time>2013-01-26T14:24:00Z</time>
      </trkpt>
      <trkpt lat="43.44765" lon="6.055">
        <ele>370.60000610352</ele>
        <time>2013-01-26T14:24:07Z</time>
      </trkpt>
      <trkpt lat="43.44766" lon="6.05501">
        <ele>370.60000610352</ele>
        <time>2013-01-26T14:24:13Z</time>
      </trkpt>
      <trkpt lat="43.44767" lon="6.05503">
        <ele>370.60000610352</ele>
        <time>2013-01-26T14:24:19Z</time>
      </trkpt>
      <trkpt lat="43.44767" lon="6.05503">
        <ele>370.60000610352</ele>
        <time>2013-01-26T14:24:43Z</time>
      </trkpt>
      <trkpt lat="43.44767" lon="6.05503">
        <ele>370.60000610352</ele>
        <time>2013-01-26T14:25:09Z</time>
      </trkpt>
      <trkpt lat="43.44767" lon="6.05503">
        <ele>370.60000610352</ele>
        <time>2013-01-26T14:25:14Z</time>
      </trkpt>
      <trkpt lat="43.44769" lon="6.05504">
        <ele>370.60000610352</ele>
        <time>2013-01-26T14:25:26Z</time>
      </trkpt>
      <trkpt lat="43.44769" lon="6.05504">
        <ele>370.60000610352</ele>
        <time>2013-01-26T14:25:28Z</time>
      </trkpt>
      <trkpt lat="43.4477" lon="6.05506">
        <ele>370.60000610352</ele>
        <time>2013-01-26T14:25:36Z</time>
      </trkpt>
      <trkpt lat="43.44772" lon="6.05507">
        <ele>370.60000610352</ele>
        <time>2013-01-26T14:25:38Z</time>
      </trkpt>
      <trkpt lat="43.44776" lon="6.05512">
        <ele>370.60000610352</ele>
        <time>2013-01-26T14:25:42Z</time>
      </trkpt>
      <trkpt lat="43.4478" lon="6.05516">
        <ele>371</ele>
        <time>2013-01-26T14:25:45Z</time>
      </trkpt>
      <trkpt lat="43.44781" lon="6.05518">
        <ele>371.39999389648</ele>
        <time>2013-01-26T14:25:46Z</time>
      </trkpt>
      <trkpt lat="43.44784" lon="6.0552">
        <ele>372.60000610352</ele>
        <time>2013-01-26T14:25:48Z</time>
      </trkpt>
      <trkpt lat="43.44791" lon="6.05524">
        <ele>372.60000610352</ele>
        <time>2013-01-26T14:25:53Z</time>
      </trkpt>
      <trkpt lat="43.44793" lon="6.05526">
        <ele>372.60000610352</ele>
        <time>2013-01-26T14:25:55Z</time>
      </trkpt>
      <trkpt lat="43.44799" lon="6.05531">
        <ele>372.60000610352</ele>
        <time>2013-01-26T14:26:00Z</time>
      </trkpt>
      <trkpt lat="43.44805" lon="6.05539">
        <ele>374.39999389648</ele>
        <time>2013-01-26T14:26:07Z</time>
      </trkpt>
      <trkpt lat="43.44815" lon="6.05543">
        <ele>374.79998779297</ele>
        <time>2013-01-26T14:26:19Z</time>
      </trkpt>
      <trkpt lat="43.44822" lon="6.05545">
        <ele>374.79998779297</ele>
        <time>2013-01-26T14:26:25Z</time>
      </trkpt>
      <trkpt lat="43.44824" lon="6.05545">
        <ele>374.79998779297</ele>
        <time>2013-01-26T14:26:30Z</time>
      </trkpt>
      <trkpt lat="43.44827" lon="6.05546">
        <ele>374.79998779297</ele>
        <time>2013-01-26T14:26:32Z</time>
      </trkpt>
      <trkpt lat="43.44837" lon="6.05553">
        <ele>374.79998779297</ele>
        <time>2013-01-26T14:26:39Z</time>
      </trkpt>
      <trkpt lat="43.44842" lon="6.05557">
        <ele>374.79998779297</ele>
        <time>2013-01-26T14:26:43Z</time>
      </trkpt>
      <trkpt lat="43.44849" lon="6.05554">
        <ele>374.79998779297</ele>
        <time>2013-01-26T14:26:47Z</time>
      </trkpt>
      <trkpt lat="43.44855" lon="6.05556">
        <ele>375.60000610352</ele>
        <time>2013-01-26T14:26:51Z</time>
      </trkpt>
      <trkpt lat="43.44857" lon="6.05556">
        <ele>376.20001220703</ele>
        <time>2013-01-26T14:26:52Z</time>
      </trkpt>
      <trkpt lat="43.44865" lon="6.05568">
        <ele>377.39999389648</ele>
        <time>2013-01-26T14:27:02Z</time>
      </trkpt>
      <trkpt lat="43.44869" lon="6.05572">
        <ele>378.60000610352</ele>
        <time>2013-01-26T14:27:05Z</time>
      </trkpt>
      <trkpt lat="43.44869" lon="6.05573">
        <ele>379</ele>
        <time>2013-01-26T14:27:06Z</time>
      </trkpt>
      <trkpt lat="43.4487" lon="6.05575">
        <ele>379</ele>
        <time>2013-01-26T14:27:08Z</time>
      </trkpt>
      <trkpt lat="43.44873" lon="6.05579">
        <ele>379</ele>
        <time>2013-01-26T14:27:14Z</time>
      </trkpt>
      <trkpt lat="43.44873" lon="6.0558">
        <ele>379</ele>
        <time>2013-01-26T14:27:20Z</time>
      </trkpt>
      <trkpt lat="43.44874" lon="6.05582">
        <ele>379</ele>
        <time>2013-01-26T14:27:22Z</time>
      </trkpt>
      <trkpt lat="43.44879" lon="6.05588">
        <ele>379.79998779297</ele>
        <time>2013-01-26T14:27:26Z</time>
      </trkpt>
      <trkpt lat="43.44883" lon="6.05591">
        <ele>380.79998779297</ele>
        <time>2013-01-26T14:27:28Z</time>
      </trkpt>
      <trkpt lat="43.44884" lon="6.05591">
        <ele>381.20001220703</ele>
        <time>2013-01-26T14:27:29Z</time>
      </trkpt>
      <trkpt lat="43.44886" lon="6.05592">
        <ele>381.20001220703</ele>
        <time>2013-01-26T14:27:31Z</time>
      </trkpt>
      <trkpt lat="43.44889" lon="6.05592">
        <ele>381.20001220703</ele>
        <time>2013-01-26T14:27:33Z</time>
      </trkpt>
      <trkpt lat="43.44891" lon="6.05592">
        <ele>381.60000610352</ele>
        <time>2013-01-26T14:27:35Z</time>
      </trkpt>
      <trkpt lat="43.44893" lon="6.05592">
        <ele>382</ele>
        <time>2013-01-26T14:27:36Z</time>
      </trkpt>
      <trkpt lat="43.44895" lon="6.05592">
        <ele>383.39999389648</ele>
        <time>2013-01-26T14:27:39Z</time>
      </trkpt>
      <trkpt lat="43.44897" lon="6.05591">
        <ele>383.39999389648</ele>
        <time>2013-01-26T14:27:41Z</time>
      </trkpt>
      <trkpt lat="43.44899" lon="6.05589">
        <ele>383.39999389648</ele>
        <time>2013-01-26T14:27:43Z</time>
      </trkpt>
      <trkpt lat="43.44902" lon="6.05587">
        <ele>383.39999389648</ele>
        <time>2013-01-26T14:27:47Z</time>
      </trkpt>
      <trkpt lat="43.44911" lon="6.05576">
        <ele>383.39999389648</ele>
        <time>2013-01-26T14:27:58Z</time>
      </trkpt>
      <trkpt lat="43.44916" lon="6.0557">
        <ele>383.39999389648</ele>
        <time>2013-01-26T14:28:05Z</time>
      </trkpt>
      <trkpt lat="43.44919" lon="6.05567">
        <ele>383.39999389648</ele>
        <time>2013-01-26T14:28:09Z</time>
      </trkpt>
      <trkpt lat="43.44923" lon="6.05558">
        <ele>385</ele>
        <time>2013-01-26T14:28:16Z</time>
      </trkpt>
      <trkpt lat="43.44929" lon="6.0555">
        <ele>385.39999389648</ele>
        <time>2013-01-26T14:28:23Z</time>
      </trkpt>
      <trkpt lat="43.44942" lon="6.05525">
        <ele>385.39999389648</ele>
        <time>2013-01-26T14:28:40Z</time>
      </trkpt>
      <trkpt lat="43.4495" lon="6.05512">
        <ele>385.39999389648</ele>
        <time>2013-01-26T14:28:50Z</time>
      </trkpt>
      <trkpt lat="43.4495" lon="6.05509">
        <ele>385.39999389648</ele>
        <time>2013-01-26T14:28:52Z</time>
      </trkpt>
      <trkpt lat="43.44955" lon="6.05499">
        <ele>385.39999389648</ele>
        <time>2013-01-26T14:28:59Z</time>
      </trkpt>
      <trkpt lat="43.44958" lon="6.05489">
        <ele>387.39999389648</ele>
        <time>2013-01-26T14:29:05Z</time>
      </trkpt>
      <trkpt lat="43.44966" lon="6.05472">
        <ele>387.39999389648</ele>
        <time>2013-01-26T14:29:16Z</time>
      </trkpt>
      <trkpt lat="43.44971" lon="6.0546">
        <ele>387.39999389648</ele>
        <time>2013-01-26T14:29:22Z</time>
      </trkpt>
      <trkpt lat="43.44979" lon="6.05451">
        <ele>387.39999389648</ele>
        <time>2013-01-26T14:29:28Z</time>
      </trkpt>
      <trkpt lat="43.44987" lon="6.05444">
        <ele>387.39999389648</ele>
        <time>2013-01-26T14:29:34Z</time>
      </trkpt>
      <trkpt lat="43.44994" lon="6.05446">
        <ele>387.39999389648</ele>
        <time>2013-01-26T14:29:39Z</time>
      </trkpt>
      <trkpt lat="43.45" lon="6.05453">
        <ele>387.39999389648</ele>
        <time>2013-01-26T14:29:45Z</time>
      </trkpt>
      <trkpt lat="43.45005" lon="6.05458">
        <ele>387.39999389648</ele>
        <time>2013-01-26T14:29:50Z</time>
      </trkpt>
      <trkpt lat="43.45008" lon="6.05463">
        <ele>387.39999389648</ele>
        <time>2013-01-26T14:29:54Z</time>
      </trkpt>
      <trkpt lat="43.45015" lon="6.05472">
        <ele>387.39999389648</ele>
        <time>2013-01-26T14:30:02Z</time>
      </trkpt>
      <trkpt lat="43.45023" lon="6.05485">
        <ele>387.39999389648</ele>
        <time>2013-01-26T14:30:12Z</time>
      </trkpt>
      <trkpt lat="43.45029" lon="6.05491">
        <ele>387.39999389648</ele>
        <time>2013-01-26T14:30:18Z</time>
      </trkpt>
      <trkpt lat="43.4503" lon="6.05493">
        <ele>387.39999389648</ele>
        <time>2013-01-26T14:30:19Z</time>
      </trkpt>
      <trkpt lat="43.45029" lon="6.05498">
        <ele>387.39999389648</ele>
        <time>2013-01-26T14:30:23Z</time>
      </trkpt>
      <trkpt lat="43.45028" lon="6.05499">
        <ele>387.39999389648</ele>
        <time>2013-01-26T14:30:24Z</time>
      </trkpt>
      <trkpt lat="43.45023" lon="6.05506">
        <ele>389.20001220703</ele>
        <time>2013-01-26T14:30:31Z</time>
      </trkpt>
      <trkpt lat="43.45021" lon="6.0551">
        <ele>389.60000610352</ele>
        <time>2013-01-26T14:30:35Z</time>
      </trkpt>
      <trkpt lat="43.45021" lon="6.05515">
        <ele>390</ele>
        <time>2013-01-26T14:30:39Z</time>
      </trkpt>
      <trkpt lat="43.45023" lon="6.05517">
        <ele>390.79998779297</ele>
        <time>2013-01-26T14:30:41Z</time>
      </trkpt>
      <trkpt lat="43.45023" lon="6.0552">
        <ele>391.60000610352</ele>
        <time>2013-01-26T14:30:43Z</time>
      </trkpt>
      <trkpt lat="43.45025" lon="6.05522">
        <ele>391.60000610352</ele>
        <time>2013-01-26T14:30:45Z</time>
      </trkpt>
      <trkpt lat="43.45026" lon="6.05524">
        <ele>391.60000610352</ele>
        <time>2013-01-26T14:30:47Z</time>
      </trkpt>
      <trkpt lat="43.45026" lon="6.05524">
        <ele>391.60000610352</ele>
        <time>2013-01-26T14:30:51Z</time>
      </trkpt>
      <trkpt lat="43.45026" lon="6.05524">
        <ele>391.60000610352</ele>
        <time>2013-01-26T14:31:00Z</time>
      </trkpt>
      <trkpt lat="43.45026" lon="6.05524">
        <ele>393.60000610352</ele>
        <time>2013-01-26T14:31:08Z</time>
      </trkpt>
      <trkpt lat="43.45026" lon="6.05524">
        <ele>393.60000610352</ele>
        <time>2013-01-26T14:31:17Z</time>
      </trkpt>
      <trkpt lat="43.45027" lon="6.05524">
        <ele>393.60000610352</ele>
        <time>2013-01-26T14:31:22Z</time>
      </trkpt>
      <trkpt lat="43.45029" lon="6.05525">
        <ele>393.60000610352</ele>
        <time>2013-01-26T14:31:27Z</time>
      </trkpt>
      <trkpt lat="43.45029" lon="6.05525">
        <ele>393.60000610352</ele>
        <time>2013-01-26T14:31:48Z</time>
      </trkpt>
      <trkpt lat="43.45029" lon="6.05525">
        <ele>393.60000610352</ele>
        <time>2013-01-26T14:32:01Z</time>
      </trkpt>
      <trkpt lat="43.4503" lon="6.05526">
        <ele>393.60000610352</ele>
        <time>2013-01-26T14:32:08Z</time>
      </trkpt>
      <trkpt lat="43.45032" lon="6.05527">
        <ele>393.60000610352</ele>
        <time>2013-01-26T14:32:13Z</time>
      </trkpt>
      <trkpt lat="43.45033" lon="6.05527">
        <ele>393.60000610352</ele>
        <time>2013-01-26T14:32:16Z</time>
      </trkpt>
      <trkpt lat="43.45034" lon="6.05528">
        <ele>393.60000610352</ele>
        <time>2013-01-26T14:32:19Z</time>
      </trkpt>
      <trkpt lat="43.45034" lon="6.05528">
        <ele>393.60000610352</ele>
        <time>2013-01-26T14:32:31Z</time>
      </trkpt>
      <trkpt lat="43.45034" lon="6.05528">
        <ele>393.60000610352</ele>
        <time>2013-01-26T14:32:40Z</time>
      </trkpt>
      <trkpt lat="43.45036" lon="6.05531">
        <ele>393.60000610352</ele>
        <time>2013-01-26T14:32:49Z</time>
      </trkpt>
      <trkpt lat="43.45037" lon="6.05531">
        <ele>394</ele>
        <time>2013-01-26T14:32:50Z</time>
      </trkpt>
      <trkpt lat="43.45038" lon="6.05532">
        <ele>394.39999389648</ele>
        <time>2013-01-26T14:32:51Z</time>
      </trkpt>
      <trkpt lat="43.45039" lon="6.05533">
        <ele>394.79998779297</ele>
        <time>2013-01-26T14:32:52Z</time>
      </trkpt>
      <trkpt lat="43.45043" lon="6.05531">
        <ele>395.60000610352</ele>
        <time>2013-01-26T14:32:55Z</time>
      </trkpt>
      <trkpt lat="43.45047" lon="6.05531">
        <ele>395.60000610352</ele>
        <time>2013-01-26T14:32:58Z</time>
      </trkpt>
      <trkpt lat="43.45049" lon="6.05531">
        <ele>396.20001220703</ele>
        <time>2013-01-26T14:32:59Z</time>
      </trkpt>
      <trkpt lat="43.45055" lon="6.05532">
        <ele>397.79998779297</ele>
        <time>2013-01-26T14:33:03Z</time>
      </trkpt>
      <trkpt lat="43.45055" lon="6.05532">
        <ele>397.79998779297</ele>
        <time>2013-01-26T14:33:05Z</time>
      </trkpt>
      <trkpt lat="43.45055" lon="6.05532">
        <ele>400</ele>
        <time>2013-01-26T14:33:10Z</time>
      </trkpt>
      <trkpt lat="43.45055" lon="6.05532">
        <ele>400</ele>
        <time>2013-01-26T14:33:16Z</time>
      </trkpt>
      <trkpt lat="43.45055" lon="6.05533">
        <ele>400</ele>
        <time>2013-01-26T14:33:22Z</time>
      </trkpt>
      <trkpt lat="43.45056" lon="6.05533">
        <ele>400</ele>
        <time>2013-01-26T14:33:28Z</time>
      </trkpt>
      <trkpt lat="43.45056" lon="6.05533">
        <ele>400</ele>
        <time>2013-01-26T14:33:43Z</time>
      </trkpt>
      <trkpt lat="43.45056" lon="6.05533">
        <ele>400</ele>
        <time>2013-01-26T14:33:55Z</time>
      </trkpt>
      <trkpt lat="43.45057" lon="6.05532">
        <ele>400</ele>
        <time>2013-01-26T14:33:56Z</time>
      </trkpt>
      <trkpt lat="43.4506" lon="6.05533">
        <ele>400</ele>
        <time>2013-01-26T14:33:58Z</time>
      </trkpt>
      <trkpt lat="43.45064" lon="6.05533">
        <ele>400</ele>
        <time>2013-01-26T14:34:01Z</time>
      </trkpt>
      <trkpt lat="43.45069" lon="6.05532">
        <ele>400</ele>
        <time>2013-01-26T14:34:04Z</time>
      </trkpt>
      <trkpt lat="43.4507" lon="6.05531">
        <ele>400.39999389648</ele>
        <time>2013-01-26T14:34:05Z</time>
      </trkpt>
      <trkpt lat="43.45072" lon="6.05531">
        <ele>400.79998779297</ele>
        <time>2013-01-26T14:34:06Z</time>
      </trkpt>
      <trkpt lat="43.45073" lon="6.0553">
        <ele>401.20001220703</ele>
        <time>2013-01-26T14:34:07Z</time>
      </trkpt>
      <trkpt lat="43.45074" lon="6.05531">
        <ele>401.60000610352</ele>
        <time>2013-01-26T14:34:08Z</time>
      </trkpt>
      <trkpt lat="43.45076" lon="6.05531">
        <ele>402</ele>
        <time>2013-01-26T14:34:09Z</time>
      </trkpt>
      <trkpt lat="43.45079" lon="6.05532">
        <ele>402</ele>
        <time>2013-01-26T14:34:11Z</time>
      </trkpt>
      <trkpt lat="43.45079" lon="6.05532">
        <ele>402.39999389648</ele>
        <time>2013-01-26T14:34:14Z</time>
      </trkpt>
      <trkpt lat="43.45079" lon="6.05533">
        <ele>402.79998779297</ele>
        <time>2013-01-26T14:34:15Z</time>
      </trkpt>
      <trkpt lat="43.45079" lon="6.05533">
        <ele>403.39999389648</ele>
        <time>2013-01-26T14:34:16Z</time>
      </trkpt>
      <trkpt lat="43.45079" lon="6.05533">
        <ele>403.79998779297</ele>
        <time>2013-01-26T14:34:17Z</time>
      </trkpt>
      <trkpt lat="43.45079" lon="6.05533">
        <ele>404.20001220703</ele>
        <time>2013-01-26T14:34:22Z</time>
      </trkpt>
      <trkpt lat="43.45079" lon="6.05532">
        <ele>404.20001220703</ele>
        <time>2013-01-26T14:34:27Z</time>
      </trkpt>
      <trkpt lat="43.45079" lon="6.05532">
        <ele>404.20001220703</ele>
        <time>2013-01-26T14:34:28Z</time>
      </trkpt>
      <trkpt lat="43.45079" lon="6.05532">
        <ele>404.20001220703</ele>
        <time>2013-01-26T14:34:43Z</time>
      </trkpt>
      <trkpt lat="43.45079" lon="6.05532">
        <ele>404.20001220703</ele>
        <time>2013-01-26T14:34:50Z</time>
      </trkpt>
      <trkpt lat="43.45079" lon="6.05532">
        <ele>404.20001220703</ele>
        <time>2013-01-26T14:34:55Z</time>
      </trkpt>
      <trkpt lat="43.45079" lon="6.05532">
        <ele>404.20001220703</ele>
        <time>2013-01-26T14:35:00Z</time>
      </trkpt>
      <trkpt lat="43.45079" lon="6.05532">
        <ele>404.20001220703</ele>
        <time>2013-01-26T14:35:03Z</time>
      </trkpt>
      <trkpt lat="43.45081" lon="6.05531">
        <ele>404.20001220703</ele>
        <time>2013-01-26T14:35:08Z</time>
      </trkpt>
      <trkpt lat="43.45082" lon="6.05531">
        <ele>404.20001220703</ele>
        <time>2013-01-26T14:35:14Z</time>
      </trkpt>
      <trkpt lat="43.45082" lon="6.05531">
        <ele>404.20001220703</ele>
        <time>2013-01-26T14:35:20Z</time>
      </trkpt>
      <trkpt lat="43.45082" lon="6.05531">
        <ele>404.20001220703</ele>
        <time>2013-01-26T14:35:28Z</time>
      </trkpt>
      <trkpt lat="43.45084" lon="6.05532">
        <ele>404.20001220703</ele>
        <time>2013-01-26T14:35:35Z</time>
      </trkpt>
      <trkpt lat="43.45088" lon="6.05533">
        <ele>404.20001220703</ele>
        <time>2013-01-26T14:35:38Z</time>
      </trkpt>
      <trkpt lat="43.45091" lon="6.05534">
        <ele>405</ele>
        <time>2013-01-26T14:35:41Z</time>
      </trkpt>
      <trkpt lat="43.45091" lon="6.05534">
        <ele>405.39999389648</ele>
        <time>2013-01-26T14:35:42Z</time>
      </trkpt>
      <trkpt lat="43.45091" lon="6.05534">
        <ele>406.39999389648</ele>
        <time>2013-01-26T14:35:45Z</time>
      </trkpt>
      <trkpt lat="43.45093" lon="6.05534">
        <ele>406.39999389648</ele>
        <time>2013-01-26T14:35:51Z</time>
      </trkpt>
      <trkpt lat="43.45093" lon="6.05533">
        <ele>406.39999389648</ele>
        <time>2013-01-26T14:36:00Z</time>
      </trkpt>
      <trkpt lat="43.45093" lon="6.05533">
        <ele>406.39999389648</ele>
        <time>2013-01-26T14:36:02Z</time>
      </trkpt>
      <trkpt lat="43.45094" lon="6.05534">
        <ele>406.39999389648</ele>
        <time>2013-01-26T14:36:09Z</time>
      </trkpt>
      <trkpt lat="43.45095" lon="6.05534">
        <ele>406.39999389648</ele>
        <time>2013-01-26T14:36:10Z</time>
      </trkpt>
      <trkpt lat="43.45098" lon="6.05532">
        <ele>406.79998779297</ele>
        <time>2013-01-26T14:36:13Z</time>
      </trkpt>
      <trkpt lat="43.45098" lon="6.05532">
        <ele>408.39999389648</ele>
        <time>2013-01-26T14:36:17Z</time>
      </trkpt>
      <trkpt lat="43.45098" lon="6.05532">
        <ele>408.39999389648</ele>
        <time>2013-01-26T14:36:20Z</time>
      </trkpt>
      <trkpt lat="43.45099" lon="6.05534">
        <ele>408.39999389648</ele>
        <time>2013-01-26T14:36:25Z</time>
      </trkpt>
      <trkpt lat="43.45102" lon="6.05534">
        <ele>408.39999389648</ele>
        <time>2013-01-26T14:36:27Z</time>
      </trkpt>
      <trkpt lat="43.45105" lon="6.05533">
        <ele>408.39999389648</ele>
        <time>2013-01-26T14:36:30Z</time>
      </trkpt>
      <trkpt lat="43.45109" lon="6.05533">
        <ele>408.79998779297</ele>
        <time>2013-01-26T14:36:33Z</time>
      </trkpt>
      <trkpt lat="43.4511" lon="6.05533">
        <ele>409.20001220703</ele>
        <time>2013-01-26T14:36:34Z</time>
      </trkpt>
      <trkpt lat="43.45111" lon="6.05532">
        <ele>409.60000610352</ele>
        <time>2013-01-26T14:36:35Z</time>
      </trkpt>
      <trkpt lat="43.45113" lon="6.05531">
        <ele>410.39999389648</ele>
        <time>2013-01-26T14:36:37Z</time>
      </trkpt>
      <trkpt lat="43.45127" lon="6.05524">
        <ele>410.39999389648</ele>
        <time>2013-01-26T14:36:51Z</time>
      </trkpt>
      <trkpt lat="43.45139" lon="6.05524">
        <ele>412.39999389648</ele>
        <time>2013-01-26T14:37:04Z</time>
      </trkpt>
      <trkpt lat="43.45147" lon="6.05526">
        <ele>414.39999389648</ele>
        <time>2013-01-26T14:37:13Z</time>
      </trkpt>
      <trkpt lat="43.4515" lon="6.05527">
        <ele>414.39999389648</ele>
        <time>2013-01-26T14:37:16Z</time>
      </trkpt>
      <trkpt lat="43.45152" lon="6.05528">
        <ele>414.39999389648</ele>
        <time>2013-01-26T14:37:18Z</time>
      </trkpt>
      <trkpt lat="43.45155" lon="6.05528">
        <ele>414.39999389648</ele>
        <time>2013-01-26T14:37:23Z</time>
      </trkpt>
      <trkpt lat="43.45156" lon="6.05529">
        <ele>414.39999389648</ele>
        <time>2013-01-26T14:37:25Z</time>
      </trkpt>
      <trkpt lat="43.45157" lon="6.05529">
        <ele>414.79998779297</ele>
        <time>2013-01-26T14:37:28Z</time>
      </trkpt>
      <trkpt lat="43.45157" lon="6.05529">
        <ele>416.39999389648</ele>
        <time>2013-01-26T14:37:52Z</time>
      </trkpt>
      <trkpt lat="43.45157" lon="6.05529">
        <ele>416.39999389648</ele>
        <time>2013-01-26T14:38:07Z</time>
      </trkpt>
      <trkpt lat="43.45157" lon="6.05529">
        <ele>416.39999389648</ele>
        <time>2013-01-26T14:38:10Z</time>
      </trkpt>
      <trkpt lat="43.45157" lon="6.05529">
        <ele>416.39999389648</ele>
        <time>2013-01-26T14:38:12Z</time>
      </trkpt>
      <trkpt lat="43.45158" lon="6.0553">
        <ele>416.39999389648</ele>
        <time>2013-01-26T14:38:13Z</time>
      </trkpt>
      <trkpt lat="43.45163" lon="6.05526">
        <ele>416.39999389648</ele>
        <time>2013-01-26T14:38:17Z</time>
      </trkpt>
      <trkpt lat="43.45164" lon="6.05524">
        <ele>416.39999389648</ele>
        <time>2013-01-26T14:38:18Z</time>
      </trkpt>
      <trkpt lat="43.45177" lon="6.05509">
        <ele>416.39999389648</ele>
        <time>2013-01-26T14:38:25Z</time>
      </trkpt>
      <trkpt lat="43.45191" lon="6.05491">
        <ele>416.39999389648</ele>
        <time>2013-01-26T14:38:32Z</time>
      </trkpt>
      <trkpt lat="43.45202" lon="6.05479">
        <ele>416.39999389648</ele>
        <time>2013-01-26T14:38:37Z</time>
      </trkpt>
      <trkpt lat="43.45217" lon="6.05462">
        <ele>416.39999389648</ele>
        <time>2013-01-26T14:38:44Z</time>
      </trkpt>
      <trkpt lat="43.45227" lon="6.05452">
        <ele>415.20001220703</ele>
        <time>2013-01-26T14:38:48Z</time>
      </trkpt>
      <trkpt lat="43.45231" lon="6.05447">
        <ele>414.39999389648</ele>
        <time>2013-01-26T14:38:50Z</time>
      </trkpt>
      <trkpt lat="43.45234" lon="6.05444">
        <ele>414.39999389648</ele>
        <time>2013-01-26T14:38:51Z</time>
      </trkpt>
      <trkpt lat="43.45243" lon="6.05443">
        <ele>414.39999389648</ele>
        <time>2013-01-26T14:38:54Z</time>
      </trkpt>
      <trkpt lat="43.45244" lon="6.05446">
        <ele>414.39999389648</ele>
        <time>2013-01-26T14:38:55Z</time>
      </trkpt>
      <trkpt lat="43.45245" lon="6.05459">
        <ele>413</ele>
        <time>2013-01-26T14:38:58Z</time>
      </trkpt>
      <trkpt lat="43.45245" lon="6.05465">
        <ele>412.39999389648</ele>
        <time>2013-01-26T14:38:59Z</time>
      </trkpt>
      <trkpt lat="43.45241" lon="6.05486">
        <ele>410.79998779297</ele>
        <time>2013-01-26T14:39:03Z</time>
      </trkpt>
      <trkpt lat="43.4524" lon="6.05491">
        <ele>410.39999389648</ele>
        <time>2013-01-26T14:39:04Z</time>
      </trkpt>
      <trkpt lat="43.45239" lon="6.05497">
        <ele>409.79998779297</ele>
        <time>2013-01-26T14:39:05Z</time>
      </trkpt>
      <trkpt lat="43.45238" lon="6.05504">
        <ele>409.39999389648</ele>
        <time>2013-01-26T14:39:06Z</time>
      </trkpt>
      <trkpt lat="43.45236" lon="6.05511">
        <ele>408.79998779297</ele>
        <time>2013-01-26T14:39:07Z</time>
      </trkpt>
      <trkpt lat="43.45234" lon="6.05517">
        <ele>408.39999389648</ele>
        <time>2013-01-26T14:39:08Z</time>
      </trkpt>
      <trkpt lat="43.45232" lon="6.05524">
        <ele>407.60000610352</ele>
        <time>2013-01-26T14:39:09Z</time>
      </trkpt>
      <trkpt lat="43.45231" lon="6.05532">
        <ele>407</ele>
        <time>2013-01-26T14:39:10Z</time>
      </trkpt>
      <trkpt lat="43.45229" lon="6.05538">
        <ele>406.39999389648</ele>
        <time>2013-01-26T14:39:11Z</time>
      </trkpt>
      <trkpt lat="43.45229" lon="6.05545">
        <ele>405.79998779297</ele>
        <time>2013-01-26T14:39:12Z</time>
      </trkpt>
      <trkpt lat="43.45227" lon="6.05552">
        <ele>405.20001220703</ele>
        <time>2013-01-26T14:39:13Z</time>
      </trkpt>
      <trkpt lat="43.45226" lon="6.05559">
        <ele>404.60000610352</ele>
        <time>2013-01-26T14:39:14Z</time>
      </trkpt>
      <trkpt lat="43.45225" lon="6.05566">
        <ele>404</ele>
        <time>2013-01-26T14:39:15Z</time>
      </trkpt>
      <trkpt lat="43.45225" lon="6.05584">
        <ele>401.79998779297</ele>
        <time>2013-01-26T14:39:18Z</time>
      </trkpt>
      <trkpt lat="43.45225" lon="6.0559">
        <ele>401</ele>
        <time>2013-01-26T14:39:19Z</time>
      </trkpt>
      <trkpt lat="43.45225" lon="6.05594">
        <ele>400.20001220703</ele>
        <time>2013-01-26T14:39:20Z</time>
      </trkpt>
      <trkpt lat="43.45226" lon="6.05598">
        <ele>399.39999389648</ele>
        <time>2013-01-26T14:39:21Z</time>
      </trkpt>
      <trkpt lat="43.45226" lon="6.056">
        <ele>398</ele>
        <time>2013-01-26T14:39:22Z</time>
      </trkpt>
      <trkpt lat="43.45225" lon="6.05604">
        <ele>397.20001220703</ele>
        <time>2013-01-26T14:39:23Z</time>
      </trkpt>
      <trkpt lat="43.45226" lon="6.05607">
        <ele>396.60000610352</ele>
        <time>2013-01-26T14:39:24Z</time>
      </trkpt>
      <trkpt lat="43.45226" lon="6.05609">
        <ele>395.79998779297</ele>
        <time>2013-01-26T14:39:25Z</time>
      </trkpt>
      <trkpt lat="43.45226" lon="6.0561">
        <ele>395.39999389648</ele>
        <time>2013-01-26T14:39:26Z</time>
      </trkpt>
      <trkpt lat="43.45225" lon="6.05612">
        <ele>395</ele>
        <time>2013-01-26T14:39:27Z</time>
      </trkpt>
      <trkpt lat="43.45218" lon="6.05638">
        <ele>392.79998779297</ele>
        <time>2013-01-26T14:39:33Z</time>
      </trkpt>
      <trkpt lat="43.45217" lon="6.05644">
        <ele>392.39999389648</ele>
        <time>2013-01-26T14:39:34Z</time>
      </trkpt>
      <trkpt lat="43.45214" lon="6.05657">
        <ele>391.20001220703</ele>
        <time>2013-01-26T14:39:36Z</time>
      </trkpt>
      <trkpt lat="43.45212" lon="6.05662">
        <ele>390.60000610352</ele>
        <time>2013-01-26T14:39:37Z</time>
      </trkpt>
      <trkpt lat="43.4521" lon="6.05668">
        <ele>390</ele>
        <time>2013-01-26T14:39:38Z</time>
      </trkpt>
      <trkpt lat="43.45207" lon="6.05673">
        <ele>389.39999389648</ele>
        <time>2013-01-26T14:39:39Z</time>
      </trkpt>
      <trkpt lat="43.45205" lon="6.05677">
        <ele>388.79998779297</ele>
        <time>2013-01-26T14:39:40Z</time>
      </trkpt>
      <trkpt lat="43.45201" lon="6.0568">
        <ele>388</ele>
        <time>2013-01-26T14:39:41Z</time>
      </trkpt>
      <trkpt lat="43.45198" lon="6.05682">
        <ele>387.39999389648</ele>
        <time>2013-01-26T14:39:42Z</time>
      </trkpt>
      <trkpt lat="43.45193" lon="6.05683">
        <ele>386.79998779297</ele>
        <time>2013-01-26T14:39:43Z</time>
      </trkpt>
      <trkpt lat="43.45185" lon="6.05687">
        <ele>386</ele>
        <time>2013-01-26T14:39:45Z</time>
      </trkpt>
      <trkpt lat="43.45181" lon="6.0569">
        <ele>385.60000610352</ele>
        <time>2013-01-26T14:39:46Z</time>
      </trkpt>
      <trkpt lat="43.45176" lon="6.05694">
        <ele>384.79998779297</ele>
        <time>2013-01-26T14:39:47Z</time>
      </trkpt>
      <trkpt lat="43.45171" lon="6.05702">
        <ele>383.79998779297</ele>
        <time>2013-01-26T14:39:49Z</time>
      </trkpt>
      <trkpt lat="43.45169" lon="6.05705">
        <ele>383.39999389648</ele>
        <time>2013-01-26T14:39:50Z</time>
      </trkpt>
      <trkpt lat="43.45168" lon="6.05709">
        <ele>383</ele>
        <time>2013-01-26T14:39:51Z</time>
      </trkpt>
      <trkpt lat="43.45167" lon="6.05712">
        <ele>382.60000610352</ele>
        <time>2013-01-26T14:39:52Z</time>
      </trkpt>
      <trkpt lat="43.45167" lon="6.0572">
        <ele>382.60000610352</ele>
        <time>2013-01-26T14:39:55Z</time>
      </trkpt>
      <trkpt lat="43.45166" lon="6.05727">
        <ele>381.79998779297</ele>
        <time>2013-01-26T14:39:57Z</time>
      </trkpt>
      <trkpt lat="43.45168" lon="6.05748">
        <ele>380.39999389648</ele>
        <time>2013-01-26T14:40:00Z</time>
      </trkpt>
      <trkpt lat="43.45168" lon="6.05762">
        <ele>379.20001220703</ele>
        <time>2013-01-26T14:40:02Z</time>
      </trkpt>
      <trkpt lat="43.45167" lon="6.05769">
        <ele>378.60000610352</ele>
        <time>2013-01-26T14:40:03Z</time>
      </trkpt>
      <trkpt lat="43.45168" lon="6.05786">
        <ele>377.39999389648</ele>
        <time>2013-01-26T14:40:05Z</time>
      </trkpt>
      <trkpt lat="43.45168" lon="6.05794">
        <ele>376.60000610352</ele>
        <time>2013-01-26T14:40:06Z</time>
      </trkpt>
      <trkpt lat="43.45167" lon="6.05802">
        <ele>375.79998779297</ele>
        <time>2013-01-26T14:40:07Z</time>
      </trkpt>
      <trkpt lat="43.45167" lon="6.05811">
        <ele>375.20001220703</ele>
        <time>2013-01-26T14:40:08Z</time>
      </trkpt>
      <trkpt lat="43.45167" lon="6.05819">
        <ele>374.39999389648</ele>
        <time>2013-01-26T14:40:09Z</time>
      </trkpt>
      <trkpt lat="43.45168" lon="6.05853">
        <ele>369.79998779297</ele>
        <time>2013-01-26T14:40:13Z</time>
      </trkpt>
      <trkpt lat="43.45168" lon="6.0587">
        <ele>367.79998779297</ele>
        <time>2013-01-26T14:40:15Z</time>
      </trkpt>
      <trkpt lat="43.45168" lon="6.05878">
        <ele>366.79998779297</ele>
        <time>2013-01-26T14:40:16Z</time>
      </trkpt>
      <trkpt lat="43.45171" lon="6.05903">
        <ele>364</ele>
        <time>2013-01-26T14:40:19Z</time>
      </trkpt>
      <trkpt lat="43.45172" lon="6.05912">
        <ele>363</ele>
        <time>2013-01-26T14:40:20Z</time>
      </trkpt>
      <trkpt lat="43.45172" lon="6.0592">
        <ele>362</ele>
        <time>2013-01-26T14:40:21Z</time>
      </trkpt>
      <trkpt lat="43.45172" lon="6.0593">
        <ele>361</ele>
        <time>2013-01-26T14:40:22Z</time>
      </trkpt>
      <trkpt lat="43.45172" lon="6.0594">
        <ele>360</ele>
        <time>2013-01-26T14:40:23Z</time>
      </trkpt>
      <trkpt lat="43.45173" lon="6.05952">
        <ele>359</ele>
        <time>2013-01-26T14:40:24Z</time>
      </trkpt>
      <trkpt lat="43.45173" lon="6.05963">
        <ele>358</ele>
        <time>2013-01-26T14:40:25Z</time>
      </trkpt>
      <trkpt lat="43.45173" lon="6.05974">
        <ele>357.20001220703</ele>
        <time>2013-01-26T14:40:26Z</time>
      </trkpt>
      <trkpt lat="43.45173" lon="6.05987">
        <ele>356.20001220703</ele>
        <time>2013-01-26T14:40:27Z</time>
      </trkpt>
      <trkpt lat="43.45172" lon="6.05997">
        <ele>355.20001220703</ele>
        <time>2013-01-26T14:40:28Z</time>
      </trkpt>
      <trkpt lat="43.45172" lon="6.06006">
        <ele>354.39999389648</ele>
        <time>2013-01-26T14:40:29Z</time>
      </trkpt>
      <trkpt lat="43.45172" lon="6.06012">
        <ele>353.39999389648</ele>
        <time>2013-01-26T14:40:30Z</time>
      </trkpt>
      <trkpt lat="43.45171" lon="6.06019">
        <ele>352.79998779297</ele>
        <time>2013-01-26T14:40:31Z</time>
      </trkpt>
      <trkpt lat="43.45173" lon="6.06024">
        <ele>352</ele>
        <time>2013-01-26T14:40:32Z</time>
      </trkpt>
      <trkpt lat="43.45173" lon="6.0603">
        <ele>351.20001220703</ele>
        <time>2013-01-26T14:40:33Z</time>
      </trkpt>
      <trkpt lat="43.45176" lon="6.06032">
        <ele>350.39999389648</ele>
        <time>2013-01-26T14:40:34Z</time>
      </trkpt>
      <trkpt lat="43.45177" lon="6.06031">
        <ele>349.60000610352</ele>
        <time>2013-01-26T14:40:35Z</time>
      </trkpt>
      <trkpt lat="43.45176" lon="6.0603">
        <ele>349.60000610352</ele>
        <time>2013-01-26T14:40:36Z</time>
      </trkpt>
      <trkpt lat="43.45176" lon="6.0603">
        <ele>349.60000610352</ele>
        <time>2013-01-26T14:40:37Z</time>
      </trkpt>
      <trkpt lat="43.45176" lon="6.06031">
        <ele>349.20001220703</ele>
        <time>2013-01-26T14:40:39Z</time>
      </trkpt>
      <trkpt lat="43.45177" lon="6.06032">
        <ele>348.79998779297</ele>
        <time>2013-01-26T14:40:40Z</time>
      </trkpt>
      <trkpt lat="43.45177" lon="6.06034">
        <ele>348.39999389648</ele>
        <time>2013-01-26T14:40:41Z</time>
      </trkpt>
      <trkpt lat="43.45177" lon="6.06037">
        <ele>348</ele>
        <time>2013-01-26T14:40:42Z</time>
      </trkpt>
      <trkpt lat="43.45177" lon="6.06041">
        <ele>347.60000610352</ele>
        <time>2013-01-26T14:40:43Z</time>
      </trkpt>
      <trkpt lat="43.45179" lon="6.06054">
        <ele>347.60000610352</ele>
        <time>2013-01-26T14:40:46Z</time>
      </trkpt>
      <trkpt lat="43.4518" lon="6.06061">
        <ele>347.60000610352</ele>
        <time>2013-01-26T14:40:48Z</time>
      </trkpt>
      <trkpt lat="43.45181" lon="6.0607">
        <ele>347</ele>
        <time>2013-01-26T14:40:50Z</time>
      </trkpt>
      <trkpt lat="43.45181" lon="6.06074">
        <ele>346.60000610352</ele>
        <time>2013-01-26T14:40:51Z</time>
      </trkpt>
      <trkpt lat="43.45181" lon="6.06079">
        <ele>346.20001220703</ele>
        <time>2013-01-26T14:40:52Z</time>
      </trkpt>
      <trkpt lat="43.45181" lon="6.06083">
        <ele>345.79998779297</ele>
        <time>2013-01-26T14:40:53Z</time>
      </trkpt>
      <trkpt lat="43.45182" lon="6.06086">
        <ele>345.39999389648</ele>
        <time>2013-01-26T14:40:54Z</time>
      </trkpt>
      <trkpt lat="43.45185" lon="6.06091">
        <ele>345</ele>
        <time>2013-01-26T14:40:56Z</time>
      </trkpt>
      <trkpt lat="43.45188" lon="6.06104">
        <ele>343.20001220703</ele>
        <time>2013-01-26T14:41:00Z</time>
      </trkpt>
      <trkpt lat="43.4519" lon="6.06111">
        <ele>343.20001220703</ele>
        <time>2013-01-26T14:41:02Z</time>
      </trkpt>
      <trkpt lat="43.45193" lon="6.06116">
        <ele>342.79998779297</ele>
        <time>2013-01-26T14:41:04Z</time>
      </trkpt>
      <trkpt lat="43.45196" lon="6.06123">
        <ele>341.39999389648</ele>
        <time>2013-01-26T14:41:07Z</time>
      </trkpt>
      <trkpt lat="43.45197" lon="6.06125">
        <ele>341</ele>
        <time>2013-01-26T14:41:08Z</time>
      </trkpt>
      <trkpt lat="43.45202" lon="6.06136">
        <ele>341</ele>
        <time>2013-01-26T14:41:12Z</time>
      </trkpt>
      <trkpt lat="43.45213" lon="6.06149">
        <ele>340.60000610352</ele>
        <time>2013-01-26T14:41:17Z</time>
      </trkpt>
      <trkpt lat="43.45217" lon="6.06155">
        <ele>339.79998779297</ele>
        <time>2013-01-26T14:41:19Z</time>
      </trkpt>
      <trkpt lat="43.45222" lon="6.06159">
        <ele>338.79998779297</ele>
        <time>2013-01-26T14:41:21Z</time>
      </trkpt>
      <trkpt lat="43.45224" lon="6.06161">
        <ele>338.79998779297</ele>
        <time>2013-01-26T14:41:22Z</time>
      </trkpt>
      <trkpt lat="43.45234" lon="6.06176">
        <ele>338.79998779297</ele>
        <time>2013-01-26T14:41:29Z</time>
      </trkpt>
      <trkpt lat="43.4524" lon="6.06189">
        <ele>338.79998779297</ele>
        <time>2013-01-26T14:41:36Z</time>
      </trkpt>
      <trkpt lat="43.45251" lon="6.06207">
        <ele>338.79998779297</ele>
        <time>2013-01-26T14:41:46Z</time>
      </trkpt>
      <trkpt lat="43.45253" lon="6.06211">
        <ele>338.79998779297</ele>
        <time>2013-01-26T14:41:48Z</time>
      </trkpt>
      <trkpt lat="43.45255" lon="6.06215">
        <ele>338.79998779297</ele>
        <time>2013-01-26T14:41:51Z</time>
      </trkpt>
      <trkpt lat="43.45256" lon="6.06218">
        <ele>339.39999389648</ele>
        <time>2013-01-26T14:41:53Z</time>
      </trkpt>
      <trkpt lat="43.45258" lon="6.0622">
        <ele>339.79998779297</ele>
        <time>2013-01-26T14:41:54Z</time>
      </trkpt>
      <trkpt lat="43.45258" lon="6.06221">
        <ele>340.20001220703</ele>
        <time>2013-01-26T14:41:55Z</time>
      </trkpt>
      <trkpt lat="43.4526" lon="6.06223">
        <ele>341</ele>
        <time>2013-01-26T14:41:57Z</time>
      </trkpt>
      <trkpt lat="43.4526" lon="6.06223">
        <ele>341</ele>
        <time>2013-01-26T14:41:58Z</time>
      </trkpt>
      <trkpt lat="43.4526" lon="6.06223">
        <ele>341</ele>
        <time>2013-01-26T14:42:00Z</time>
      </trkpt>
      <trkpt lat="43.45261" lon="6.06224">
        <ele>341</ele>
        <time>2013-01-26T14:42:02Z</time>
      </trkpt>
      <trkpt lat="43.45262" lon="6.06225">
        <ele>341.39999389648</ele>
        <time>2013-01-26T14:42:04Z</time>
      </trkpt>
      <trkpt lat="43.45264" lon="6.06225">
        <ele>342.20001220703</ele>
        <time>2013-01-26T14:42:06Z</time>
      </trkpt>
      <trkpt lat="43.45266" lon="6.06228">
        <ele>343</ele>
        <time>2013-01-26T14:42:09Z</time>
      </trkpt>
      <trkpt lat="43.4527" lon="6.06232">
        <ele>343.39999389648</ele>
        <time>2013-01-26T14:42:15Z</time>
      </trkpt>
      <trkpt lat="43.45271" lon="6.06233">
        <ele>344.79998779297</ele>
        <time>2013-01-26T14:42:17Z</time>
      </trkpt>
      <trkpt lat="43.45271" lon="6.06233">
        <ele>345.20001220703</ele>
        <time>2013-01-26T14:42:18Z</time>
      </trkpt>
      <trkpt lat="43.45272" lon="6.06233">
        <ele>345.20001220703</ele>
        <time>2013-01-26T14:42:20Z</time>
      </trkpt>
      <trkpt lat="43.45273" lon="6.06236">
        <ele>345.20001220703</ele>
        <time>2013-01-26T14:42:22Z</time>
      </trkpt>
      <trkpt lat="43.45277" lon="6.06243">
        <ele>345.20001220703</ele>
        <time>2013-01-26T14:42:28Z</time>
      </trkpt>
      <trkpt lat="43.4528" lon="6.06247">
        <ele>345.20001220703</ele>
        <time>2013-01-26T14:42:32Z</time>
      </trkpt>
      <trkpt lat="43.45281" lon="6.06248">
        <ele>345.20001220703</ele>
        <time>2013-01-26T14:42:33Z</time>
      </trkpt>
      <trkpt lat="43.45286" lon="6.06249">
        <ele>345.20001220703</ele>
        <time>2013-01-26T14:42:37Z</time>
      </trkpt>
      <trkpt lat="43.45289" lon="6.06254">
        <ele>345.20001220703</ele>
        <time>2013-01-26T14:42:41Z</time>
      </trkpt>
      <trkpt lat="43.45289" lon="6.06255">
        <ele>345.20001220703</ele>
        <time>2013-01-26T14:42:45Z</time>
      </trkpt>
      <trkpt lat="43.45289" lon="6.06255">
        <ele>345.20001220703</ele>
        <time>2013-01-26T14:42:52Z</time>
      </trkpt>
      <trkpt lat="43.45289" lon="6.06255">
        <ele>345.20001220703</ele>
        <time>2013-01-26T14:43:01Z</time>
      </trkpt>
      <trkpt lat="43.4529" lon="6.06251">
        <ele>345.20001220703</ele>
        <time>2013-01-26T14:43:06Z</time>
      </trkpt>
      <trkpt lat="43.4529" lon="6.06248">
        <ele>345.20001220703</ele>
        <time>2013-01-26T14:43:09Z</time>
      </trkpt>
      <trkpt lat="43.4529" lon="6.06244">
        <ele>345.20001220703</ele>
        <time>2013-01-26T14:43:11Z</time>
      </trkpt>
      <trkpt lat="43.45292" lon="6.06234">
        <ele>345.20001220703</ele>
        <time>2013-01-26T14:43:15Z</time>
      </trkpt>
      <trkpt lat="43.45294" lon="6.0623">
        <ele>345.20001220703</ele>
        <time>2013-01-26T14:43:17Z</time>
      </trkpt>
      <trkpt lat="43.45293" lon="6.06224">
        <ele>344.79998779297</ele>
        <time>2013-01-26T14:43:19Z</time>
      </trkpt>
      <trkpt lat="43.45294" lon="6.06221">
        <ele>344.39999389648</ele>
        <time>2013-01-26T14:43:20Z</time>
      </trkpt>
      <trkpt lat="43.45293" lon="6.06218">
        <ele>344</ele>
        <time>2013-01-26T14:43:21Z</time>
      </trkpt>
      <trkpt lat="43.45292" lon="6.06216">
        <ele>343.60000610352</ele>
        <time>2013-01-26T14:43:22Z</time>
      </trkpt>
      <trkpt lat="43.45292" lon="6.06213">
        <ele>343.20001220703</ele>
        <time>2013-01-26T14:43:23Z</time>
      </trkpt>
      <trkpt lat="43.45288" lon="6.06202">
        <ele>343.20001220703</ele>
        <time>2013-01-26T14:43:26Z</time>
      </trkpt>
      <trkpt lat="43.45285" lon="6.06198">
        <ele>343.20001220703</ele>
        <time>2013-01-26T14:43:28Z</time>
      </trkpt>
      <trkpt lat="43.45284" lon="6.06196">
        <ele>342.79998779297</ele>
        <time>2013-01-26T14:43:29Z</time>
      </trkpt>
      <trkpt lat="43.45282" lon="6.06194">
        <ele>341.79998779297</ele>
        <time>2013-01-26T14:43:31Z</time>
      </trkpt>
      <trkpt lat="43.45281" lon="6.06193">
        <ele>341</ele>
        <time>2013-01-26T14:43:33Z</time>
      </trkpt>
      <trkpt lat="43.45275" lon="6.06193">
        <ele>341</ele>
        <time>2013-01-26T14:43:37Z</time>
      </trkpt>
      <trkpt lat="43.45272" lon="6.06196">
        <ele>341</ele>
        <time>2013-01-26T14:43:42Z</time>
      </trkpt>
      <trkpt lat="43.45273" lon="6.06196">
        <ele>341</ele>
        <time>2013-01-26T14:43:46Z</time>
      </trkpt>
      <trkpt lat="43.45274" lon="6.06196">
        <ele>341</ele>
        <time>2013-01-26T14:43:49Z</time>
      </trkpt>
      <trkpt lat="43.45276" lon="6.06196">
        <ele>341</ele>
        <time>2013-01-26T14:43:52Z</time>
      </trkpt>
      <trkpt lat="43.4528" lon="6.06195">
        <ele>341</ele>
        <time>2013-01-26T14:43:54Z</time>
      </trkpt>
      <trkpt lat="43.45283" lon="6.06196">
        <ele>341</ele>
        <time>2013-01-26T14:43:56Z</time>
      </trkpt>
      <trkpt lat="43.45284" lon="6.06198">
        <ele>341</ele>
        <time>2013-01-26T14:43:57Z</time>
      </trkpt>
      <trkpt lat="43.45287" lon="6.06202">
        <ele>341</ele>
        <time>2013-01-26T14:43:59Z</time>
      </trkpt>
      <trkpt lat="43.45289" lon="6.06209">
        <ele>341</ele>
        <time>2013-01-26T14:44:02Z</time>
      </trkpt>
      <trkpt lat="43.4529" lon="6.06211">
        <ele>341</ele>
        <time>2013-01-26T14:44:03Z</time>
      </trkpt>
      <trkpt lat="43.45293" lon="6.06223">
        <ele>341</ele>
        <time>2013-01-26T14:44:08Z</time>
      </trkpt>
      <trkpt lat="43.4529" lon="6.06235">
        <ele>341.79998779297</ele>
        <time>2013-01-26T14:44:13Z</time>
      </trkpt>
      <trkpt lat="43.45288" lon="6.06243">
        <ele>343</ele>
        <time>2013-01-26T14:44:16Z</time>
      </trkpt>
      <trkpt lat="43.4529" lon="6.06259">
        <ele>343</ele>
        <time>2013-01-26T14:44:22Z</time>
      </trkpt>
      <trkpt lat="43.45292" lon="6.06279">
        <ele>343</ele>
        <time>2013-01-26T14:44:29Z</time>
      </trkpt>
      <trkpt lat="43.45294" lon="6.06297">
        <ele>343</ele>
        <time>2013-01-26T14:44:35Z</time>
      </trkpt>
      <trkpt lat="43.45295" lon="6.06315">
        <ele>343</ele>
        <time>2013-01-26T14:44:41Z</time>
      </trkpt>
      <trkpt lat="43.45294" lon="6.06334">
        <ele>343</ele>
        <time>2013-01-26T14:44:47Z</time>
      </trkpt>
      <trkpt lat="43.45288" lon="6.06355">
        <ele>343</ele>
        <time>2013-01-26T14:44:53Z</time>
      </trkpt>
      <trkpt lat="43.45282" lon="6.06382">
        <ele>343</ele>
        <time>2013-01-26T14:45:01Z</time>
      </trkpt>
      <trkpt lat="43.45279" lon="6.06396">
        <ele>343.39999389648</ele>
        <time>2013-01-26T14:45:05Z</time>
      </trkpt>
      <trkpt lat="43.45276" lon="6.06429">
        <ele>345</ele>
        <time>2013-01-26T14:45:13Z</time>
      </trkpt>
      <trkpt lat="43.45272" lon="6.0646">
        <ele>345</ele>
        <time>2013-01-26T14:45:19Z</time>
      </trkpt>
      <trkpt lat="43.4527" lon="6.06464">
        <ele>345</ele>
        <time>2013-01-26T14:45:20Z</time>
      </trkpt>
      <trkpt lat="43.45256" lon="6.06491">
        <ele>345</ele>
        <time>2013-01-26T14:45:27Z</time>
      </trkpt>
      <trkpt lat="43.45247" lon="6.06512">
        <ele>344.60000610352</ele>
        <time>2013-01-26T14:45:31Z</time>
      </trkpt>
      <trkpt lat="43.45232" lon="6.06545">
        <ele>342</ele>
        <time>2013-01-26T14:45:36Z</time>
      </trkpt>
      <trkpt lat="43.4523" lon="6.06575">
        <ele>340</ele>
        <time>2013-01-26T14:45:41Z</time>
      </trkpt>
      <trkpt lat="43.45221" lon="6.06597">
        <ele>338</ele>
        <time>2013-01-26T14:45:45Z</time>
      </trkpt>
      <trkpt lat="43.45219" lon="6.06604">
        <ele>337.39999389648</ele>
        <time>2013-01-26T14:45:46Z</time>
      </trkpt>
      <trkpt lat="43.45215" lon="6.06628">
        <ele>336</ele>
        <time>2013-01-26T14:45:49Z</time>
      </trkpt>
      <trkpt lat="43.45213" lon="6.06636">
        <ele>335.39999389648</ele>
        <time>2013-01-26T14:45:50Z</time>
      </trkpt>
      <trkpt lat="43.45211" lon="6.06643">
        <ele>335</ele>
        <time>2013-01-26T14:45:51Z</time>
      </trkpt>
      <trkpt lat="43.45209" lon="6.0665">
        <ele>334.60000610352</ele>
        <time>2013-01-26T14:45:52Z</time>
      </trkpt>
      <trkpt lat="43.45206" lon="6.06658">
        <ele>334.20001220703</ele>
        <time>2013-01-26T14:45:53Z</time>
      </trkpt>
      <trkpt lat="43.45205" lon="6.06665">
        <ele>333.79998779297</ele>
        <time>2013-01-26T14:45:54Z</time>
      </trkpt>
      <trkpt lat="43.45203" lon="6.06673">
        <ele>333.39999389648</ele>
        <time>2013-01-26T14:45:55Z</time>
      </trkpt>
      <trkpt lat="43.45204" lon="6.0668">
        <ele>333.39999389648</ele>
        <time>2013-01-26T14:45:56Z</time>
      </trkpt>
      <trkpt lat="43.4521" lon="6.06702">
        <ele>333.39999389648</ele>
        <time>2013-01-26T14:46:00Z</time>
      </trkpt>
      <trkpt lat="43.45208" lon="6.06719">
        <ele>333.39999389648</ele>
        <time>2013-01-26T14:46:04Z</time>
      </trkpt>
      <trkpt lat="43.45206" lon="6.06732">
        <ele>333</ele>
        <time>2013-01-26T14:46:07Z</time>
      </trkpt>
      <trkpt lat="43.45205" lon="6.06736">
        <ele>332.60000610352</ele>
        <time>2013-01-26T14:46:08Z</time>
      </trkpt>
      <trkpt lat="43.45203" lon="6.06741">
        <ele>332.20001220703</ele>
        <time>2013-01-26T14:46:09Z</time>
      </trkpt>
      <trkpt lat="43.45198" lon="6.06748">
        <ele>331.39999389648</ele>
        <time>2013-01-26T14:46:11Z</time>
      </trkpt>
      <trkpt lat="43.45188" lon="6.06763">
        <ele>331.39999389648</ele>
        <time>2013-01-26T14:46:15Z</time>
      </trkpt>
      <trkpt lat="43.45185" lon="6.06767">
        <ele>331</ele>
        <time>2013-01-26T14:46:16Z</time>
      </trkpt>
      <trkpt lat="43.45182" lon="6.06771">
        <ele>330.39999389648</ele>
        <time>2013-01-26T14:46:17Z</time>
      </trkpt>
      <trkpt lat="43.4518" lon="6.06773">
        <ele>330</ele>
        <time>2013-01-26T14:46:18Z</time>
      </trkpt>
      <trkpt lat="43.45179" lon="6.06776">
        <ele>329.60000610352</ele>
        <time>2013-01-26T14:46:19Z</time>
      </trkpt>
      <trkpt lat="43.45179" lon="6.06777">
        <ele>329</ele>
        <time>2013-01-26T14:46:20Z</time>
      </trkpt>
      <trkpt lat="43.4518" lon="6.06778">
        <ele>328.60000610352</ele>
        <time>2013-01-26T14:46:21Z</time>
      </trkpt>
      <trkpt lat="43.4518" lon="6.06777">
        <ele>327.39999389648</ele>
        <time>2013-01-26T14:46:22Z</time>
      </trkpt>
      <trkpt lat="43.4518" lon="6.06777">
        <ele>326.79998779297</ele>
        <time>2013-01-26T14:46:34Z</time>
      </trkpt>
      <trkpt lat="43.4518" lon="6.06777">
        <ele>326.79998779297</ele>
        <time>2013-01-26T14:46:44Z</time>
      </trkpt>
      <trkpt lat="43.45181" lon="6.06779">
        <ele>326.79998779297</ele>
        <time>2013-01-26T14:46:51Z</time>
      </trkpt>
      <trkpt lat="43.45185" lon="6.06786">
        <ele>326.79998779297</ele>
        <time>2013-01-26T14:46:55Z</time>
      </trkpt>
      <trkpt lat="43.45184" lon="6.0679">
        <ele>326.79998779297</ele>
        <time>2013-01-26T14:46:57Z</time>
      </trkpt>
      <trkpt lat="43.45181" lon="6.06795">
        <ele>326.79998779297</ele>
        <time>2013-01-26T14:47:01Z</time>
      </trkpt>
      <trkpt lat="43.45178" lon="6.06799">
        <ele>326.79998779297</ele>
        <time>2013-01-26T14:47:03Z</time>
      </trkpt>
      <trkpt lat="43.45179" lon="6.0681">
        <ele>326.79998779297</ele>
        <time>2013-01-26T14:47:08Z</time>
      </trkpt>
      <trkpt lat="43.45179" lon="6.06816">
        <ele>326.79998779297</ele>
        <time>2013-01-26T14:47:11Z</time>
      </trkpt>
      <trkpt lat="43.45179" lon="6.0682">
        <ele>327.39999389648</ele>
        <time>2013-01-26T14:47:13Z</time>
      </trkpt>
      <trkpt lat="43.45173" lon="6.06834">
        <ele>329</ele>
        <time>2013-01-26T14:47:20Z</time>
      </trkpt>
      <trkpt lat="43.45173" lon="6.06838">
        <ele>329</ele>
        <time>2013-01-26T14:47:22Z</time>
      </trkpt>
      <trkpt lat="43.45171" lon="6.06852">
        <ele>329.39999389648</ele>
        <time>2013-01-26T14:47:29Z</time>
      </trkpt>
      <trkpt lat="43.45172" lon="6.06858">
        <ele>330.60000610352</ele>
        <time>2013-01-26T14:47:32Z</time>
      </trkpt>
      <trkpt lat="43.45171" lon="6.06861">
        <ele>331</ele>
        <time>2013-01-26T14:47:34Z</time>
      </trkpt>
      <trkpt lat="43.45173" lon="6.06867">
        <ele>331</ele>
        <time>2013-01-26T14:47:37Z</time>
      </trkpt>
      <trkpt lat="43.45173" lon="6.0687">
        <ele>331</ele>
        <time>2013-01-26T14:47:38Z</time>
      </trkpt>
      <trkpt lat="43.45174" lon="6.06878">
        <ele>331.39999389648</ele>
        <time>2013-01-26T14:47:41Z</time>
      </trkpt>
      <trkpt lat="43.45174" lon="6.06884">
        <ele>332.39999389648</ele>
        <time>2013-01-26T14:47:43Z</time>
      </trkpt>
      <trkpt lat="43.45174" lon="6.0689">
        <ele>333.20001220703</ele>
        <time>2013-01-26T14:47:45Z</time>
      </trkpt>
      <trkpt lat="43.45175" lon="6.06892">
        <ele>333.20001220703</ele>
        <time>2013-01-26T14:47:46Z</time>
      </trkpt>
      <trkpt lat="43.45176" lon="6.06894">
        <ele>333.20001220703</ele>
        <time>2013-01-26T14:47:47Z</time>
      </trkpt>
      <trkpt lat="43.45178" lon="6.06895">
        <ele>333.60000610352</ele>
        <time>2013-01-26T14:47:49Z</time>
      </trkpt>
      <trkpt lat="43.45179" lon="6.06896">
        <ele>334</ele>
        <time>2013-01-26T14:47:50Z</time>
      </trkpt>
      <trkpt lat="43.45181" lon="6.069">
        <ele>335.39999389648</ele>
        <time>2013-01-26T14:47:53Z</time>
      </trkpt>
      <trkpt lat="43.45183" lon="6.06908">
        <ele>335.39999389648</ele>
        <time>2013-01-26T14:48:00Z</time>
      </trkpt>
      <trkpt lat="43.45183" lon="6.06913">
        <ele>335.79998779297</ele>
        <time>2013-01-26T14:48:04Z</time>
      </trkpt>
      <trkpt lat="43.45182" lon="6.06915">
        <ele>336.60000610352</ele>
        <time>2013-01-26T14:48:06Z</time>
      </trkpt>
      <trkpt lat="43.45182" lon="6.06915">
        <ele>337</ele>
        <time>2013-01-26T14:48:07Z</time>
      </trkpt>
      <trkpt lat="43.45182" lon="6.06915">
        <ele>337.39999389648</ele>
        <time>2013-01-26T14:48:12Z</time>
      </trkpt>
      <trkpt lat="43.45182" lon="6.06915">
        <ele>337.39999389648</ele>
        <time>2013-01-26T14:48:17Z</time>
      </trkpt>
      <trkpt lat="43.45181" lon="6.06918">
        <ele>337.39999389648</ele>
        <time>2013-01-26T14:48:22Z</time>
      </trkpt>
      <trkpt lat="43.45174" lon="6.06932">
        <ele>337.39999389648</ele>
        <time>2013-01-26T14:48:29Z</time>
      </trkpt>
      <trkpt lat="43.45166" lon="6.06946">
        <ele>337.39999389648</ele>
        <time>2013-01-26T14:48:38Z</time>
      </trkpt>
      <trkpt lat="43.45159" lon="6.06956">
        <ele>337.39999389648</ele>
        <time>2013-01-26T14:48:45Z</time>
      </trkpt>
      <trkpt lat="43.45152" lon="6.06969">
        <ele>339.60000610352</ele>
        <time>2013-01-26T14:48:52Z</time>
      </trkpt>
      <trkpt lat="43.45147" lon="6.06983">
        <ele>339.60000610352</ele>
        <time>2013-01-26T14:49:00Z</time>
      </trkpt>
      <trkpt lat="43.45145" lon="6.06999">
        <ele>339.60000610352</ele>
        <time>2013-01-26T14:49:07Z</time>
      </trkpt>
      <trkpt lat="43.45144" lon="6.07003">
        <ele>339.60000610352</ele>
        <time>2013-01-26T14:49:09Z</time>
      </trkpt>
      <trkpt lat="43.45147" lon="6.07025">
        <ele>339.60000610352</ele>
        <time>2013-01-26T14:49:17Z</time>
      </trkpt>
      <trkpt lat="43.45149" lon="6.07033">
        <ele>339.60000610352</ele>
        <time>2013-01-26T14:49:19Z</time>
      </trkpt>
      <trkpt lat="43.45153" lon="6.07053">
        <ele>339.60000610352</ele>
        <time>2013-01-26T14:49:24Z</time>
      </trkpt>
      <trkpt lat="43.45159" lon="6.07074">
        <ele>339.60000610352</ele>
        <time>2013-01-26T14:49:31Z</time>
      </trkpt>
      <trkpt lat="43.45165" lon="6.07084">
        <ele>339.60000610352</ele>
        <time>2013-01-26T14:49:35Z</time>
      </trkpt>
      <trkpt lat="43.45166" lon="6.07089">
        <ele>339.60000610352</ele>
        <time>2013-01-26T14:49:37Z</time>
      </trkpt>
      <trkpt lat="43.45167" lon="6.07101">
        <ele>339.60000610352</ele>
        <time>2013-01-26T14:49:42Z</time>
      </trkpt>
      <trkpt lat="43.45168" lon="6.07107">
        <ele>340</ele>
        <time>2013-01-26T14:49:45Z</time>
      </trkpt>
      <trkpt lat="43.45168" lon="6.07112">
        <ele>340.79998779297</ele>
        <time>2013-01-26T14:49:47Z</time>
      </trkpt>
      <trkpt lat="43.45168" lon="6.0712">
        <ele>341.60000610352</ele>
        <time>2013-01-26T14:49:50Z</time>
      </trkpt>
      <trkpt lat="43.45166" lon="6.0714">
        <ele>341.60000610352</ele>
        <time>2013-01-26T14:49:58Z</time>
      </trkpt>
      <trkpt lat="43.45162" lon="6.07158">
        <ele>341.60000610352</ele>
        <time>2013-01-26T14:50:05Z</time>
      </trkpt>
      <trkpt lat="43.45152" lon="6.07184">
        <ele>343.79998779297</ele>
        <time>2013-01-26T14:50:17Z</time>
      </trkpt>
      <trkpt lat="43.45148" lon="6.07191">
        <ele>343.79998779297</ele>
        <time>2013-01-26T14:50:21Z</time>
      </trkpt>
      <trkpt lat="43.45137" lon="6.07209">
        <ele>345.79998779297</ele>
        <time>2013-01-26T14:50:31Z</time>
      </trkpt>
      <trkpt lat="43.4513" lon="6.07222">
        <ele>345.79998779297</ele>
        <time>2013-01-26T14:50:38Z</time>
      </trkpt>
      <trkpt lat="43.45126" lon="6.07232">
        <ele>345.79998779297</ele>
        <time>2013-01-26T14:50:43Z</time>
      </trkpt>
      <trkpt lat="43.45123" lon="6.07236">
        <ele>345.79998779297</ele>
        <time>2013-01-26T14:50:46Z</time>
      </trkpt>
      <trkpt lat="43.4512" lon="6.0724">
        <ele>345.79998779297</ele>
        <time>2013-01-26T14:50:50Z</time>
      </trkpt>
      <trkpt lat="43.4512" lon="6.0724">
        <ele>345.79998779297</ele>
        <time>2013-01-26T14:50:55Z</time>
      </trkpt>
      <trkpt lat="43.4512" lon="6.0724">
        <ele>345.79998779297</ele>
        <time>2013-01-26T14:51:15Z</time>
      </trkpt>
      <trkpt lat="43.4512" lon="6.0724">
        <ele>345.79998779297</ele>
        <time>2013-01-26T14:51:25Z</time>
      </trkpt>
      <trkpt lat="43.4512" lon="6.0724">
        <ele>345.79998779297</ele>
        <time>2013-01-26T14:51:31Z</time>
      </trkpt>
      <trkpt lat="43.4512" lon="6.07241">
        <ele>345.79998779297</ele>
        <time>2013-01-26T14:51:35Z</time>
      </trkpt>
      <trkpt lat="43.45119" lon="6.07242">
        <ele>345.79998779297</ele>
        <time>2013-01-26T14:51:38Z</time>
      </trkpt>
      <trkpt lat="43.45116" lon="6.07249">
        <ele>345.79998779297</ele>
        <time>2013-01-26T14:51:43Z</time>
      </trkpt>
      <trkpt lat="43.45112" lon="6.07254">
        <ele>345.79998779297</ele>
        <time>2013-01-26T14:51:47Z</time>
      </trkpt>
      <trkpt lat="43.4511" lon="6.07257">
        <ele>346.20001220703</ele>
        <time>2013-01-26T14:51:49Z</time>
      </trkpt>
      <trkpt lat="43.45108" lon="6.07258">
        <ele>346.60000610352</ele>
        <time>2013-01-26T14:51:50Z</time>
      </trkpt>
      <trkpt lat="43.45106" lon="6.0726">
        <ele>347.39999389648</ele>
        <time>2013-01-26T14:51:52Z</time>
      </trkpt>
      <trkpt lat="43.45101" lon="6.07267">
        <ele>347.79998779297</ele>
        <time>2013-01-26T14:51:58Z</time>
      </trkpt>
      <trkpt lat="43.451" lon="6.07269">
        <ele>347.79998779297</ele>
        <time>2013-01-26T14:52:00Z</time>
      </trkpt>
      <trkpt lat="43.45097" lon="6.07277">
        <ele>349</ele>
        <time>2013-01-26T14:52:06Z</time>
      </trkpt>
      <trkpt lat="43.45096" lon="6.07283">
        <ele>349.79998779297</ele>
        <time>2013-01-26T14:52:09Z</time>
      </trkpt>
      <trkpt lat="43.45094" lon="6.07289">
        <ele>349.79998779297</ele>
        <time>2013-01-26T14:52:13Z</time>
      </trkpt>
      <trkpt lat="43.45089" lon="6.07295">
        <ele>349.79998779297</ele>
        <time>2013-01-26T14:52:18Z</time>
      </trkpt>
      <trkpt lat="43.45084" lon="6.07297">
        <ele>349.79998779297</ele>
        <time>2013-01-26T14:52:21Z</time>
      </trkpt>
      <trkpt lat="43.45076" lon="6.07297">
        <ele>351.39999389648</ele>
        <time>2013-01-26T14:52:25Z</time>
      </trkpt>
      <trkpt lat="43.45071" lon="6.07295">
        <ele>351.79998779297</ele>
        <time>2013-01-26T14:52:28Z</time>
      </trkpt>
      <trkpt lat="43.45068" lon="6.07294">
        <ele>351.79998779297</ele>
        <time>2013-01-26T14:52:30Z</time>
      </trkpt>
      <trkpt lat="43.45066" lon="6.07293">
        <ele>352.60000610352</ele>
        <time>2013-01-26T14:52:31Z</time>
      </trkpt>
      <trkpt lat="43.45062" lon="6.07288">
        <ele>354</ele>
        <time>2013-01-26T14:52:34Z</time>
      </trkpt>
      <trkpt lat="43.45059" lon="6.07283">
        <ele>354.39999389648</ele>
        <time>2013-01-26T14:52:37Z</time>
      </trkpt>
      <trkpt lat="43.45058" lon="6.07282">
        <ele>354.79998779297</ele>
        <time>2013-01-26T14:52:38Z</time>
      </trkpt>
      <trkpt lat="43.45054" lon="6.07279">
        <ele>356.20001220703</ele>
        <time>2013-01-26T14:52:41Z</time>
      </trkpt>
      <trkpt lat="43.4505" lon="6.07277">
        <ele>356.60000610352</ele>
        <time>2013-01-26T14:52:45Z</time>
      </trkpt>
      <trkpt lat="43.45049" lon="6.07277">
        <ele>357</ele>
        <time>2013-01-26T14:52:46Z</time>
      </trkpt>
      <trkpt lat="43.45041" lon="6.07279">
        <ele>358.20001220703</ele>
        <time>2013-01-26T14:52:55Z</time>
      </trkpt>
      <trkpt lat="43.45036" lon="6.07278">
        <ele>358.20001220703</ele>
        <time>2013-01-26T14:53:00Z</time>
      </trkpt>
      <trkpt lat="43.45035" lon="6.07278">
        <ele>358.20001220703</ele>
        <time>2013-01-26T14:53:02Z</time>
      </trkpt>
      <trkpt lat="43.45033" lon="6.07278">
        <ele>358.20001220703</ele>
        <time>2013-01-26T14:53:06Z</time>
      </trkpt>
      <trkpt lat="43.45033" lon="6.07278">
        <ele>358.20001220703</ele>
        <time>2013-01-26T14:53:27Z</time>
      </trkpt>
      <trkpt lat="43.45033" lon="6.07278">
        <ele>358.20001220703</ele>
        <time>2013-01-26T14:53:55Z</time>
      </trkpt>
      <trkpt lat="43.45033" lon="6.07278">
        <ele>358.20001220703</ele>
        <time>2013-01-26T14:54:05Z</time>
      </trkpt>
      <trkpt lat="43.45029" lon="6.07277">
        <ele>358.20001220703</ele>
        <time>2013-01-26T14:54:13Z</time>
      </trkpt>
      <trkpt lat="43.45018" lon="6.07282">
        <ele>358.20001220703</ele>
        <time>2013-01-26T14:54:18Z</time>
      </trkpt>
      <trkpt lat="43.45013" lon="6.07283">
        <ele>358.20001220703</ele>
        <time>2013-01-26T14:54:21Z</time>
      </trkpt>
      <trkpt lat="43.45012" lon="6.0728">
        <ele>358.20001220703</ele>
        <time>2013-01-26T14:54:23Z</time>
      </trkpt>
      <trkpt lat="43.45012" lon="6.07274">
        <ele>358.20001220703</ele>
        <time>2013-01-26T14:54:26Z</time>
      </trkpt>
      <trkpt lat="43.45015" lon="6.0727">
        <ele>359.20001220703</ele>
        <time>2013-01-26T14:54:29Z</time>
      </trkpt>
      <trkpt lat="43.45016" lon="6.0727">
        <ele>359.60000610352</ele>
        <time>2013-01-26T14:54:30Z</time>
      </trkpt>
      <trkpt lat="43.45016" lon="6.07269">
        <ele>360</ele>
        <time>2013-01-26T14:54:31Z</time>
      </trkpt>
      <trkpt lat="43.45019" lon="6.07266">
        <ele>360.39999389648</ele>
        <time>2013-01-26T14:54:35Z</time>
      </trkpt>
      <trkpt lat="43.45019" lon="6.07266">
        <ele>360.39999389648</ele>
        <time>2013-01-26T14:54:40Z</time>
      </trkpt>
      <trkpt lat="43.45019" lon="6.07266">
        <ele>360.39999389648</ele>
        <time>2013-01-26T14:55:02Z</time>
      </trkpt>
      <trkpt lat="43.45019" lon="6.07266">
        <ele>360.39999389648</ele>
        <time>2013-01-26T14:55:29Z</time>
      </trkpt>
      <trkpt lat="43.45019" lon="6.07266">
        <ele>360.39999389648</ele>
        <time>2013-01-26T14:55:52Z</time>
      </trkpt>
      <trkpt lat="43.45019" lon="6.07261">
        <ele>360.39999389648</ele>
        <time>2013-01-26T14:55:55Z</time>
      </trkpt>
      <trkpt lat="43.45021" lon="6.07257">
        <ele>360.39999389648</ele>
        <time>2013-01-26T14:55:57Z</time>
      </trkpt>
      <trkpt lat="43.45022" lon="6.07245">
        <ele>360</ele>
        <time>2013-01-26T14:56:02Z</time>
      </trkpt>
      <trkpt lat="43.45021" lon="6.07243">
        <ele>359.39999389648</ele>
        <time>2013-01-26T14:56:03Z</time>
      </trkpt>
      <trkpt lat="43.45019" lon="6.07241">
        <ele>359</ele>
        <time>2013-01-26T14:56:04Z</time>
      </trkpt>
      <trkpt lat="43.45018" lon="6.07238">
        <ele>358.60000610352</ele>
        <time>2013-01-26T14:56:05Z</time>
      </trkpt>
      <trkpt lat="43.45015" lon="6.07234">
        <ele>357.60000610352</ele>
        <time>2013-01-26T14:56:07Z</time>
      </trkpt>
      <trkpt lat="43.45013" lon="6.07233">
        <ele>357.20001220703</ele>
        <time>2013-01-26T14:56:08Z</time>
      </trkpt>
      <trkpt lat="43.45008" lon="6.0723">
        <ele>355.79998779297</ele>
        <time>2013-01-26T14:56:11Z</time>
      </trkpt>
      <trkpt lat="43.45004" lon="6.07228">
        <ele>355.39999389648</ele>
        <time>2013-01-26T14:56:13Z</time>
      </trkpt>
      <trkpt lat="43.44999" lon="6.07222">
        <ele>353.20001220703</ele>
        <time>2013-01-26T14:56:17Z</time>
      </trkpt>
      <trkpt lat="43.44998" lon="6.07221">
        <ele>352.60000610352</ele>
        <time>2013-01-26T14:56:18Z</time>
      </trkpt>
      <trkpt lat="43.44996" lon="6.0722">
        <ele>352.20001220703</ele>
        <time>2013-01-26T14:56:19Z</time>
      </trkpt>
      <trkpt lat="43.44993" lon="6.0722">
        <ele>351.39999389648</ele>
        <time>2013-01-26T14:56:21Z</time>
      </trkpt>
      <trkpt lat="43.44992" lon="6.07219">
        <ele>351</ele>
        <time>2013-01-26T14:56:22Z</time>
      </trkpt>
      <trkpt lat="43.44992" lon="6.07219">
        <ele>350.60000610352</ele>
        <time>2013-01-26T14:56:23Z</time>
      </trkpt>
      <trkpt lat="43.44992" lon="6.07219">
        <ele>349.39999389648</ele>
        <time>2013-01-26T14:56:26Z</time>
      </trkpt>
      <trkpt lat="43.44992" lon="6.07218">
        <ele>349.39999389648</ele>
        <time>2013-01-26T14:56:32Z</time>
      </trkpt>
      <trkpt lat="43.44992" lon="6.07218">
        <ele>349.39999389648</ele>
        <time>2013-01-26T14:56:35Z</time>
      </trkpt>
      <trkpt lat="43.44992" lon="6.07218">
        <ele>349.39999389648</ele>
        <time>2013-01-26T14:56:41Z</time>
      </trkpt>
      <trkpt lat="43.44992" lon="6.07219">
        <ele>349.39999389648</ele>
        <time>2013-01-26T14:56:50Z</time>
      </trkpt>
      <trkpt lat="43.44992" lon="6.07219">
        <ele>349.39999389648</ele>
        <time>2013-01-26T14:57:02Z</time>
      </trkpt>
      <trkpt lat="43.44991" lon="6.07216">
        <ele>349.39999389648</ele>
        <time>2013-01-26T14:57:04Z</time>
      </trkpt>
      <trkpt lat="43.44992" lon="6.07214">
        <ele>349.39999389648</ele>
        <time>2013-01-26T14:57:06Z</time>
      </trkpt>
      <trkpt lat="43.44995" lon="6.0721">
        <ele>348.79998779297</ele>
        <time>2013-01-26T14:57:09Z</time>
      </trkpt>
      <trkpt lat="43.44997" lon="6.07208">
        <ele>348.39999389648</ele>
        <time>2013-01-26T14:57:10Z</time>
      </trkpt>
      <trkpt lat="43.44999" lon="6.07207">
        <ele>348</ele>
        <time>2013-01-26T14:57:11Z</time>
      </trkpt>
      <trkpt lat="43.45002" lon="6.07207">
        <ele>347.60000610352</ele>
        <time>2013-01-26T14:57:12Z</time>
      </trkpt>
      <trkpt lat="43.45004" lon="6.07207">
        <ele>347</ele>
        <time>2013-01-26T14:57:13Z</time>
      </trkpt>
      <trkpt lat="43.45005" lon="6.07206">
        <ele>346.60000610352</ele>
        <time>2013-01-26T14:57:14Z</time>
      </trkpt>
      <trkpt lat="43.45007" lon="6.07206">
        <ele>346.20001220703</ele>
        <time>2013-01-26T14:57:15Z</time>
      </trkpt>
      <trkpt lat="43.45008" lon="6.07205">
        <ele>345.20001220703</ele>
        <time>2013-01-26T14:57:17Z</time>
      </trkpt>
      <trkpt lat="43.45009" lon="6.07205">
        <ele>344.79998779297</ele>
        <time>2013-01-26T14:57:18Z</time>
      </trkpt>
      <trkpt lat="43.4501" lon="6.07207">
        <ele>344.79998779297</ele>
        <time>2013-01-26T14:57:20Z</time>
      </trkpt>
      <trkpt lat="43.4501" lon="6.07207">
        <ele>344.39999389648</ele>
        <time>2013-01-26T14:57:21Z</time>
      </trkpt>
      <trkpt lat="43.4501" lon="6.07207">
        <ele>343.60000610352</ele>
        <time>2013-01-26T14:57:23Z</time>
      </trkpt>
      <trkpt lat="43.4501" lon="6.07207">
        <ele>343.20001220703</ele>
        <time>2013-01-26T14:57:24Z</time>
      </trkpt>
      <trkpt lat="43.4501" lon="6.07207">
        <ele>342.60000610352</ele>
        <time>2013-01-26T14:57:25Z</time>
      </trkpt>
      <trkpt lat="43.45011" lon="6.07207">
        <ele>342.60000610352</ele>
        <time>2013-01-26T14:57:30Z</time>
      </trkpt>
      <trkpt lat="43.45012" lon="6.07205">
        <ele>342.60000610352</ele>
        <time>2013-01-26T14:57:35Z</time>
      </trkpt>
      <trkpt lat="43.45012" lon="6.07203">
        <ele>342.60000610352</ele>
        <time>2013-01-26T14:57:36Z</time>
      </trkpt>
      <trkpt lat="43.45012" lon="6.07203">
        <ele>342.60000610352</ele>
        <time>2013-01-26T14:57:43Z</time>
      </trkpt>
      <trkpt lat="43.45012" lon="6.07203">
        <ele>342.60000610352</ele>
        <time>2013-01-26T14:57:58Z</time>
      </trkpt>
      <trkpt lat="43.45011" lon="6.07201">
        <ele>342.60000610352</ele>
        <time>2013-01-26T14:58:15Z</time>
      </trkpt>
      <trkpt lat="43.45011" lon="6.072">
        <ele>342.20001220703</ele>
        <time>2013-01-26T14:58:22Z</time>
      </trkpt>
      <trkpt lat="43.45011" lon="6.072">
        <ele>340.60000610352</ele>
        <time>2013-01-26T14:58:26Z</time>
      </trkpt>
      <trkpt lat="43.45009" lon="6.07199">
        <ele>340.60000610352</ele>
        <time>2013-01-26T14:58:30Z</time>
      </trkpt>
      <trkpt lat="43.45002" lon="6.07191">
        <ele>340.60000610352</ele>
        <time>2013-01-26T14:58:34Z</time>
      </trkpt>
      <trkpt lat="43.45001" lon="6.07188">
        <ele>340.60000610352</ele>
        <time>2013-01-26T14:58:35Z</time>
      </trkpt>
      <trkpt lat="43.44999" lon="6.07186">
        <ele>340.20001220703</ele>
        <time>2013-01-26T14:58:36Z</time>
      </trkpt>
      <trkpt lat="43.44997" lon="6.07184">
        <ele>339.79998779297</ele>
        <time>2013-01-26T14:58:37Z</time>
      </trkpt>
      <trkpt lat="43.44994" lon="6.07184">
        <ele>339.39999389648</ele>
        <time>2013-01-26T14:58:38Z</time>
      </trkpt>
      <trkpt lat="43.44992" lon="6.07184">
        <ele>339</ele>
        <time>2013-01-26T14:58:39Z</time>
      </trkpt>
      <trkpt lat="43.44989" lon="6.07184">
        <ele>338.60000610352</ele>
        <time>2013-01-26T14:58:40Z</time>
      </trkpt>
      <trkpt lat="43.44987" lon="6.07185">
        <ele>338.60000610352</ele>
        <time>2013-01-26T14:58:41Z</time>
      </trkpt>
      <trkpt lat="43.44981" lon="6.07186">
        <ele>338.20001220703</ele>
        <time>2013-01-26T14:58:43Z</time>
      </trkpt>
      <trkpt lat="43.44977" lon="6.07188">
        <ele>337.39999389648</ele>
        <time>2013-01-26T14:58:45Z</time>
      </trkpt>
      <trkpt lat="43.44967" lon="6.07192">
        <ele>336.60000610352</ele>
        <time>2013-01-26T14:58:50Z</time>
      </trkpt>
      <trkpt lat="43.4496" lon="6.0719">
        <ele>336.60000610352</ele>
        <time>2013-01-26T14:58:54Z</time>
      </trkpt>
      <trkpt lat="43.44955" lon="6.07188">
        <ele>336.60000610352</ele>
        <time>2013-01-26T14:58:57Z</time>
      </trkpt>
      <trkpt lat="43.4495" lon="6.07186">
        <ele>336.20001220703</ele>
        <time>2013-01-26T14:58:59Z</time>
      </trkpt>
      <trkpt lat="43.44949" lon="6.07186">
        <ele>335.79998779297</ele>
        <time>2013-01-26T14:59:00Z</time>
      </trkpt>
      <trkpt lat="43.44947" lon="6.07184">
        <ele>335.20001220703</ele>
        <time>2013-01-26T14:59:01Z</time>
      </trkpt>
      <trkpt lat="43.44936" lon="6.07173">
        <ele>334.39999389648</ele>
        <time>2013-01-26T14:59:08Z</time>
      </trkpt>
      <trkpt lat="43.44934" lon="6.07166">
        <ele>334.39999389648</ele>
        <time>2013-01-26T14:59:10Z</time>
      </trkpt>
      <trkpt lat="43.44933" lon="6.07156">
        <ele>334</ele>
        <time>2013-01-26T14:59:13Z</time>
      </trkpt>
      <trkpt lat="43.44931" lon="6.0715">
        <ele>333</ele>
        <time>2013-01-26T14:59:15Z</time>
      </trkpt>
      <trkpt lat="43.44928" lon="6.07136">
        <ele>331.79998779297</ele>
        <time>2013-01-26T14:59:19Z</time>
      </trkpt>
      <trkpt lat="43.44926" lon="6.07129">
        <ele>330.79998779297</ele>
        <time>2013-01-26T14:59:21Z</time>
      </trkpt>
      <trkpt lat="43.44926" lon="6.07127">
        <ele>330.39999389648</ele>
        <time>2013-01-26T14:59:22Z</time>
      </trkpt>
      <trkpt lat="43.44925" lon="6.07124">
        <ele>330</ele>
        <time>2013-01-26T14:59:23Z</time>
      </trkpt>
      <trkpt lat="43.44925" lon="6.07122">
        <ele>329.60000610352</ele>
        <time>2013-01-26T14:59:24Z</time>
      </trkpt>
      <trkpt lat="43.44924" lon="6.07116">
        <ele>328.79998779297</ele>
        <time>2013-01-26T14:59:26Z</time>
      </trkpt>
      <trkpt lat="43.44924" lon="6.0711">
        <ele>327.79998779297</ele>
        <time>2013-01-26T14:59:28Z</time>
      </trkpt>
      <trkpt lat="43.44923" lon="6.07104">
        <ele>326.79998779297</ele>
        <time>2013-01-26T14:59:30Z</time>
      </trkpt>
      <trkpt lat="43.44923" lon="6.07103">
        <ele>326.39999389648</ele>
        <time>2013-01-26T14:59:31Z</time>
      </trkpt>
      <trkpt lat="43.44923" lon="6.07102">
        <ele>325.20001220703</ele>
        <time>2013-01-26T14:59:32Z</time>
      </trkpt>
      <trkpt lat="43.44923" lon="6.07102">
        <ele>325.20001220703</ele>
        <time>2013-01-26T14:59:33Z</time>
      </trkpt>
      <trkpt lat="43.44923" lon="6.07102">
        <ele>323.60000610352</ele>
        <time>2013-01-26T14:59:40Z</time>
      </trkpt>
      <trkpt lat="43.44923" lon="6.07102">
        <ele>323.20001220703</ele>
        <time>2013-01-26T14:59:46Z</time>
      </trkpt>
      <trkpt lat="43.44924" lon="6.07091">
        <ele>323.20001220703</ele>
        <time>2013-01-26T14:59:50Z</time>
      </trkpt>
      <trkpt lat="43.44923" lon="6.07082">
        <ele>322.79998779297</ele>
        <time>2013-01-26T14:59:54Z</time>
      </trkpt>
      <trkpt lat="43.44922" lon="6.07079">
        <ele>322.39999389648</ele>
        <time>2013-01-26T14:59:55Z</time>
      </trkpt>
      <trkpt lat="43.44922" lon="6.07077">
        <ele>322</ele>
        <time>2013-01-26T14:59:56Z</time>
      </trkpt>
      <trkpt lat="43.44921" lon="6.07075">
        <ele>321</ele>
        <time>2013-01-26T14:59:57Z</time>
      </trkpt>
      <trkpt lat="43.4492" lon="6.07072">
        <ele>320.60000610352</ele>
        <time>2013-01-26T14:59:58Z</time>
      </trkpt>
      <trkpt lat="43.44918" lon="6.07068">
        <ele>320.20001220703</ele>
        <time>2013-01-26T14:59:59Z</time>
      </trkpt>
      <trkpt lat="43.44918" lon="6.07065">
        <ele>319.79998779297</ele>
        <time>2013-01-26T15:00:00Z</time>
      </trkpt>
      <trkpt lat="43.44918" lon="6.07059">
        <ele>318.60000610352</ele>
        <time>2013-01-26T15:00:02Z</time>
      </trkpt>
      <trkpt lat="43.44917" lon="6.07054">
        <ele>317.20001220703</ele>
        <time>2013-01-26T15:00:04Z</time>
      </trkpt>
      <trkpt lat="43.44917" lon="6.07054">
        <ele>316.79998779297</ele>
        <time>2013-01-26T15:00:05Z</time>
      </trkpt>
      <trkpt lat="43.44917" lon="6.07054">
        <ele>314.60000610352</ele>
        <time>2013-01-26T15:00:14Z</time>
      </trkpt>
      <trkpt lat="43.44917" lon="6.07054">
        <ele>314.60000610352</ele>
        <time>2013-01-26T15:00:30Z</time>
      </trkpt>
      <trkpt lat="43.44917" lon="6.07049">
        <ele>314.60000610352</ele>
        <time>2013-01-26T15:00:36Z</time>
      </trkpt>
      <trkpt lat="43.44916" lon="6.07047">
        <ele>314.60000610352</ele>
        <time>2013-01-26T15:00:37Z</time>
      </trkpt>
      <trkpt lat="43.44913" lon="6.07039">
        <ele>314.20001220703</ele>
        <time>2013-01-26T15:00:40Z</time>
      </trkpt>
      <trkpt lat="43.44912" lon="6.07029">
        <ele>312.39999389648</ele>
        <time>2013-01-26T15:00:43Z</time>
      </trkpt>
      <trkpt lat="43.44912" lon="6.07026">
        <ele>311.60000610352</ele>
        <time>2013-01-26T15:00:44Z</time>
      </trkpt>
      <trkpt lat="43.44912" lon="6.07023">
        <ele>311</ele>
        <time>2013-01-26T15:00:45Z</time>
      </trkpt>
      <trkpt lat="43.44912" lon="6.0702">
        <ele>309.79998779297</ele>
        <time>2013-01-26T15:00:46Z</time>
      </trkpt>
      <trkpt lat="43.44912" lon="6.07017">
        <ele>309.20001220703</ele>
        <time>2013-01-26T15:00:47Z</time>
      </trkpt>
      <trkpt lat="43.44912" lon="6.07014">
        <ele>308.60000610352</ele>
        <time>2013-01-26T15:00:48Z</time>
      </trkpt>
      <trkpt lat="43.44912" lon="6.07011">
        <ele>308</ele>
        <time>2013-01-26T15:00:49Z</time>
      </trkpt>
      <trkpt lat="43.44911" lon="6.07009">
        <ele>307.39999389648</ele>
        <time>2013-01-26T15:00:50Z</time>
      </trkpt>
      <trkpt lat="43.44909" lon="6.07004">
        <ele>306.60000610352</ele>
        <time>2013-01-26T15:00:52Z</time>
      </trkpt>
      <trkpt lat="43.44908" lon="6.07001">
        <ele>306</ele>
        <time>2013-01-26T15:00:53Z</time>
      </trkpt>
      <trkpt lat="43.44908" lon="6.06999">
        <ele>305.60000610352</ele>
        <time>2013-01-26T15:00:54Z</time>
      </trkpt>
      <trkpt lat="43.44907" lon="6.06998">
        <ele>305</ele>
        <time>2013-01-26T15:00:55Z</time>
      </trkpt>
      <trkpt lat="43.44907" lon="6.06997">
        <ele>304.60000610352</ele>
        <time>2013-01-26T15:00:56Z</time>
      </trkpt>
      <trkpt lat="43.44905" lon="6.06995">
        <ele>304</ele>
        <time>2013-01-26T15:00:57Z</time>
      </trkpt>
      <trkpt lat="43.44905" lon="6.06995">
        <ele>303.39999389648</ele>
        <time>2013-01-26T15:00:58Z</time>
      </trkpt>
      <trkpt lat="43.44904" lon="6.06994">
        <ele>303</ele>
        <time>2013-01-26T15:00:59Z</time>
      </trkpt>
      <trkpt lat="43.44904" lon="6.06995">
        <ele>302.60000610352</ele>
        <time>2013-01-26T15:01:00Z</time>
      </trkpt>
      <trkpt lat="43.44904" lon="6.06995">
        <ele>302.20001220703</ele>
        <time>2013-01-26T15:01:01Z</time>
      </trkpt>
      <trkpt lat="43.44904" lon="6.06995">
        <ele>301</ele>
        <time>2013-01-26T15:01:04Z</time>
      </trkpt>
      <trkpt lat="43.44904" lon="6.06995">
        <ele>301</ele>
        <time>2013-01-26T15:01:07Z</time>
      </trkpt>
      <trkpt lat="43.44904" lon="6.06995">
        <ele>301</ele>
        <time>2013-01-26T15:01:17Z</time>
      </trkpt>
      <trkpt lat="43.44903" lon="6.06994">
        <ele>301</ele>
        <time>2013-01-26T15:01:33Z</time>
      </trkpt>
      <trkpt lat="43.44903" lon="6.06993">
        <ele>301</ele>
        <time>2013-01-26T15:01:40Z</time>
      </trkpt>
      <trkpt lat="43.44902" lon="6.06993">
        <ele>301</ele>
        <time>2013-01-26T15:01:48Z</time>
      </trkpt>
      <trkpt lat="43.44895" lon="6.06992">
        <ele>300</ele>
        <time>2013-01-26T15:01:53Z</time>
      </trkpt>
      <trkpt lat="43.44894" lon="6.0699">
        <ele>299.60000610352</ele>
        <time>2013-01-26T15:01:54Z</time>
      </trkpt>
      <trkpt lat="43.44895" lon="6.06983">
        <ele>298.39999389648</ele>
        <time>2013-01-26T15:01:59Z</time>
      </trkpt>
      <trkpt lat="43.44896" lon="6.0698">
        <ele>297</ele>
        <time>2013-01-26T15:02:01Z</time>
      </trkpt>
      <trkpt lat="43.44896" lon="6.06978">
        <ele>296.60000610352</ele>
        <time>2013-01-26T15:02:02Z</time>
      </trkpt>
      <trkpt lat="43.44898" lon="6.06973">
        <ele>296.60000610352</ele>
        <time>2013-01-26T15:02:04Z</time>
      </trkpt>
      <trkpt lat="43.44899" lon="6.0697">
        <ele>296</ele>
        <time>2013-01-26T15:02:05Z</time>
      </trkpt>
      <trkpt lat="43.44898" lon="6.06967">
        <ele>295.20001220703</ele>
        <time>2013-01-26T15:02:07Z</time>
      </trkpt>
      <trkpt lat="43.44895" lon="6.06966">
        <ele>294.39999389648</ele>
        <time>2013-01-26T15:02:09Z</time>
      </trkpt>
      <trkpt lat="43.4489" lon="6.06968">
        <ele>294.39999389648</ele>
        <time>2013-01-26T15:02:12Z</time>
      </trkpt>
      <trkpt lat="43.44886" lon="6.0697">
        <ele>294</ele>
        <time>2013-01-26T15:02:14Z</time>
      </trkpt>
      <trkpt lat="43.44885" lon="6.06971">
        <ele>293.60000610352</ele>
        <time>2013-01-26T15:02:15Z</time>
      </trkpt>
      <trkpt lat="43.44883" lon="6.06972">
        <ele>293</ele>
        <time>2013-01-26T15:02:16Z</time>
      </trkpt>
      <trkpt lat="43.44881" lon="6.06972">
        <ele>292.20001220703</ele>
        <time>2013-01-26T15:02:18Z</time>
      </trkpt>
      <trkpt lat="43.44878" lon="6.06972">
        <ele>292.20001220703</ele>
        <time>2013-01-26T15:02:20Z</time>
      </trkpt>
      <trkpt lat="43.44875" lon="6.06973">
        <ele>292.20001220703</ele>
        <time>2013-01-26T15:02:25Z</time>
      </trkpt>
      <trkpt lat="43.44875" lon="6.06974">
        <ele>291.79998779297</ele>
        <time>2013-01-26T15:02:27Z</time>
      </trkpt>
      <trkpt lat="43.44875" lon="6.06974">
        <ele>290.20001220703</ele>
        <time>2013-01-26T15:02:42Z</time>
      </trkpt>
      <trkpt lat="43.44875" lon="6.06974">
        <ele>290.20001220703</ele>
        <time>2013-01-26T15:02:51Z</time>
      </trkpt>
      <trkpt lat="43.44873" lon="6.06975">
        <ele>290.20001220703</ele>
        <time>2013-01-26T15:02:55Z</time>
      </trkpt>
      <trkpt lat="43.44873" lon="6.06975">
        <ele>290.20001220703</ele>
        <time>2013-01-26T15:03:05Z</time>
      </trkpt>
      <trkpt lat="43.44873" lon="6.06975">
        <ele>290.20001220703</ele>
        <time>2013-01-26T15:03:20Z</time>
      </trkpt>
      <trkpt lat="43.44872" lon="6.06977">
        <ele>290.20001220703</ele>
        <time>2013-01-26T15:03:23Z</time>
      </trkpt>
      <trkpt lat="43.4487" lon="6.0698">
        <ele>290.20001220703</ele>
        <time>2013-01-26T15:03:25Z</time>
      </trkpt>
      <trkpt lat="43.44866" lon="6.06983">
        <ele>290.20001220703</ele>
        <time>2013-01-26T15:03:28Z</time>
      </trkpt>
      <trkpt lat="43.44862" lon="6.06987">
        <ele>290.20001220703</ele>
        <time>2013-01-26T15:03:31Z</time>
      </trkpt>
      <trkpt lat="43.44861" lon="6.06989">
        <ele>290.20001220703</ele>
        <time>2013-01-26T15:03:32Z</time>
      </trkpt>
      <trkpt lat="43.44857" lon="6.06994">
        <ele>289.39999389648</ele>
        <time>2013-01-26T15:03:34Z</time>
      </trkpt>
      <trkpt lat="43.44856" lon="6.06996">
        <ele>289</ele>
        <time>2013-01-26T15:03:35Z</time>
      </trkpt>
      <trkpt lat="43.44854" lon="6.07">
        <ele>288.60000610352</ele>
        <time>2013-01-26T15:03:36Z</time>
      </trkpt>
      <trkpt lat="43.44852" lon="6.07006">
        <ele>288.20001220703</ele>
        <time>2013-01-26T15:03:38Z</time>
      </trkpt>
      <trkpt lat="43.44846" lon="6.07024">
        <ele>287.79998779297</ele>
        <time>2013-01-26T15:03:43Z</time>
      </trkpt>
      <trkpt lat="43.44844" lon="6.07029">
        <ele>287.39999389648</ele>
        <time>2013-01-26T15:03:44Z</time>
      </trkpt>
      <trkpt lat="43.44843" lon="6.07033">
        <ele>286.79998779297</ele>
        <time>2013-01-26T15:03:45Z</time>
      </trkpt>
      <trkpt lat="43.44841" lon="6.07037">
        <ele>286.39999389648</ele>
        <time>2013-01-26T15:03:46Z</time>
      </trkpt>
      <trkpt lat="43.4484" lon="6.07042">
        <ele>286</ele>
        <time>2013-01-26T15:03:47Z</time>
      </trkpt>
      <trkpt lat="43.44836" lon="6.07052">
        <ele>286</ele>
        <time>2013-01-26T15:03:49Z</time>
      </trkpt>
      <trkpt lat="43.44833" lon="6.07057">
        <ele>285.60000610352</ele>
        <time>2013-01-26T15:03:50Z</time>
      </trkpt>
      <trkpt lat="43.44826" lon="6.07064">
        <ele>284.79998779297</ele>
        <time>2013-01-26T15:03:52Z</time>
      </trkpt>
      <trkpt lat="43.44813" lon="6.0707">
        <ele>283.60000610352</ele>
        <time>2013-01-26T15:03:55Z</time>
      </trkpt>
      <trkpt lat="43.44801" lon="6.07077">
        <ele>282</ele>
        <time>2013-01-26T15:03:59Z</time>
      </trkpt>
      <trkpt lat="43.44794" lon="6.07082">
        <ele>281.60000610352</ele>
        <time>2013-01-26T15:04:01Z</time>
      </trkpt>
      <trkpt lat="43.44791" lon="6.07085">
        <ele>281</ele>
        <time>2013-01-26T15:04:02Z</time>
      </trkpt>
      <trkpt lat="43.44789" lon="6.07088">
        <ele>280.60000610352</ele>
        <time>2013-01-26T15:04:03Z</time>
      </trkpt>
      <trkpt lat="43.44786" lon="6.07092">
        <ele>279.79998779297</ele>
        <time>2013-01-26T15:04:04Z</time>
      </trkpt>
      <trkpt lat="43.44784" lon="6.07096">
        <ele>279.20001220703</ele>
        <time>2013-01-26T15:04:05Z</time>
      </trkpt>
      <trkpt lat="43.44781" lon="6.071">
        <ele>278.79998779297</ele>
        <time>2013-01-26T15:04:06Z</time>
      </trkpt>
      <trkpt lat="43.44765" lon="6.07121">
        <ele>277</ele>
        <time>2013-01-26T15:04:11Z</time>
      </trkpt>
      <trkpt lat="43.44761" lon="6.07125">
        <ele>276.60000610352</ele>
        <time>2013-01-26T15:04:12Z</time>
      </trkpt>
      <trkpt lat="43.44756" lon="6.07129">
        <ele>276</ele>
        <time>2013-01-26T15:04:13Z</time>
      </trkpt>
      <trkpt lat="43.44751" lon="6.07134">
        <ele>275.60000610352</ele>
        <time>2013-01-26T15:04:14Z</time>
      </trkpt>
      <trkpt lat="43.44745" lon="6.07139">
        <ele>275</ele>
        <time>2013-01-26T15:04:15Z</time>
      </trkpt>
      <trkpt lat="43.44739" lon="6.07144">
        <ele>274.39999389648</ele>
        <time>2013-01-26T15:04:16Z</time>
      </trkpt>
      <trkpt lat="43.44732" lon="6.0715">
        <ele>273.79998779297</ele>
        <time>2013-01-26T15:04:17Z</time>
      </trkpt>
      <trkpt lat="43.44725" lon="6.07155">
        <ele>273.20001220703</ele>
        <time>2013-01-26T15:04:18Z</time>
      </trkpt>
      <trkpt lat="43.44718" lon="6.0716">
        <ele>272.60000610352</ele>
        <time>2013-01-26T15:04:19Z</time>
      </trkpt>
      <trkpt lat="43.44711" lon="6.07163">
        <ele>271.79998779297</ele>
        <time>2013-01-26T15:04:20Z</time>
      </trkpt>
      <trkpt lat="43.44703" lon="6.07166">
        <ele>271.20001220703</ele>
        <time>2013-01-26T15:04:21Z</time>
      </trkpt>
      <trkpt lat="43.44696" lon="6.07167">
        <ele>270.60000610352</ele>
        <time>2013-01-26T15:04:22Z</time>
      </trkpt>
      <trkpt lat="43.44689" lon="6.07166">
        <ele>270</ele>
        <time>2013-01-26T15:04:23Z</time>
      </trkpt>
      <trkpt lat="43.44682" lon="6.07165">
        <ele>269.39999389648</ele>
        <time>2013-01-26T15:04:24Z</time>
      </trkpt>
      <trkpt lat="43.44668" lon="6.07164">
        <ele>268.20001220703</ele>
        <time>2013-01-26T15:04:26Z</time>
      </trkpt>
      <trkpt lat="43.4465" lon="6.07167">
        <ele>267.39999389648</ele>
        <time>2013-01-26T15:04:29Z</time>
      </trkpt>
      <trkpt lat="43.44644" lon="6.07168">
        <ele>266.79998779297</ele>
        <time>2013-01-26T15:04:30Z</time>
      </trkpt>
      <trkpt lat="43.44639" lon="6.0717">
        <ele>266.39999389648</ele>
        <time>2013-01-26T15:04:31Z</time>
      </trkpt>
      <trkpt lat="43.44634" lon="6.07171">
        <ele>266</ele>
        <time>2013-01-26T15:04:32Z</time>
      </trkpt>
      <trkpt lat="43.44623" lon="6.07173">
        <ele>266</ele>
        <time>2013-01-26T15:04:34Z</time>
      </trkpt>
      <trkpt lat="43.4461" lon="6.07173">
        <ele>265.20001220703</ele>
        <time>2013-01-26T15:04:36Z</time>
      </trkpt>
      <trkpt lat="43.44589" lon="6.07173">
        <ele>264</ele>
        <time>2013-01-26T15:04:39Z</time>
      </trkpt>
      <trkpt lat="43.44564" lon="6.07174">
        <ele>263.20001220703</ele>
        <time>2013-01-26T15:04:42Z</time>
      </trkpt>
      <trkpt lat="43.44547" lon="6.07175">
        <ele>262</ele>
        <time>2013-01-26T15:04:44Z</time>
      </trkpt>
      <trkpt lat="43.4454" lon="6.07176">
        <ele>261.39999389648</ele>
        <time>2013-01-26T15:04:45Z</time>
      </trkpt>
      <trkpt lat="43.44532" lon="6.07179">
        <ele>260.79998779297</ele>
        <time>2013-01-26T15:04:46Z</time>
      </trkpt>
      <trkpt lat="43.44524" lon="6.07183">
        <ele>260.20001220703</ele>
        <time>2013-01-26T15:04:47Z</time>
      </trkpt>
      <trkpt lat="43.44516" lon="6.07187">
        <ele>259.60000610352</ele>
        <time>2013-01-26T15:04:48Z</time>
      </trkpt>
      <trkpt lat="43.44499" lon="6.07196">
        <ele>258</ele>
        <time>2013-01-26T15:04:50Z</time>
      </trkpt>
      <trkpt lat="43.4449" lon="6.07199">
        <ele>257.20001220703</ele>
        <time>2013-01-26T15:04:51Z</time>
      </trkpt>
      <trkpt lat="43.44481" lon="6.072">
        <ele>256.20001220703</ele>
        <time>2013-01-26T15:04:52Z</time>
      </trkpt>
      <trkpt lat="43.44473" lon="6.07199">
        <ele>255.39999389648</ele>
        <time>2013-01-26T15:04:53Z</time>
      </trkpt>
      <trkpt lat="43.44465" lon="6.07196">
        <ele>253.60000610352</ele>
        <time>2013-01-26T15:04:54Z</time>
      </trkpt>
      <trkpt lat="43.44457" lon="6.07193">
        <ele>252.80000305176</ele>
        <time>2013-01-26T15:04:55Z</time>
      </trkpt>
      <trkpt lat="43.44448" lon="6.07191">
        <ele>252.19999694824</ele>
        <time>2013-01-26T15:04:56Z</time>
      </trkpt>
      <trkpt lat="43.4444" lon="6.0719">
        <ele>251.39999389648</ele>
        <time>2013-01-26T15:04:57Z</time>
      </trkpt>
      <trkpt lat="43.44423" lon="6.07188">
        <ele>250</ele>
        <time>2013-01-26T15:04:59Z</time>
      </trkpt>
      <trkpt lat="43.44415" lon="6.07187">
        <ele>249.60000610352</ele>
        <time>2013-01-26T15:05:00Z</time>
      </trkpt>
      <trkpt lat="43.44408" lon="6.07184">
        <ele>249</ele>
        <time>2013-01-26T15:05:01Z</time>
      </trkpt>
      <trkpt lat="43.44402" lon="6.07182">
        <ele>248.39999389648</ele>
        <time>2013-01-26T15:05:02Z</time>
      </trkpt>
      <trkpt lat="43.44398" lon="6.07182">
        <ele>247.80000305176</ele>
        <time>2013-01-26T15:05:03Z</time>
      </trkpt>
      <trkpt lat="43.44394" lon="6.07185">
        <ele>247.19999694824</ele>
        <time>2013-01-26T15:05:04Z</time>
      </trkpt>
      <trkpt lat="43.44386" lon="6.07192">
        <ele>247.19999694824</ele>
        <time>2013-01-26T15:05:08Z</time>
      </trkpt>
      <trkpt lat="43.44386" lon="6.07192">
        <ele>246.80000305176</ele>
        <time>2013-01-26T15:05:11Z</time>
      </trkpt>
      <trkpt lat="43.44386" lon="6.07192">
        <ele>245.19999694824</ele>
        <time>2013-01-26T15:05:35Z</time>
      </trkpt>
      <trkpt lat="43.44386" lon="6.07192">
        <ele>245.19999694824</ele>
        <time>2013-01-26T15:05:43Z</time>
      </trkpt>
      <trkpt lat="43.44385" lon="6.07192">
        <ele>245.19999694824</ele>
        <time>2013-01-26T15:05:48Z</time>
      </trkpt>
      <trkpt lat="43.44381" lon="6.07193">
        <ele>245.19999694824</ele>
        <time>2013-01-26T15:05:50Z</time>
      </trkpt>
      <trkpt lat="43.44363" lon="6.07189">
        <ele>245.19999694824</ele>
        <time>2013-01-26T15:05:56Z</time>
      </trkpt>
      <trkpt lat="43.44334" lon="6.07179">
        <ele>244.60000610352</ele>
        <time>2013-01-26T15:06:04Z</time>
      </trkpt>
      <trkpt lat="43.44331" lon="6.07177">
        <ele>244.19999694824</ele>
        <time>2013-01-26T15:06:05Z</time>
      </trkpt>
      <trkpt lat="43.44327" lon="6.07176">
        <ele>243.80000305176</ele>
        <time>2013-01-26T15:06:06Z</time>
      </trkpt>
      <trkpt lat="43.44319" lon="6.07175">
        <ele>243</ele>
        <time>2013-01-26T15:06:08Z</time>
      </trkpt>
      <trkpt lat="43.44314" lon="6.07172">
        <ele>243</ele>
        <time>2013-01-26T15:06:10Z</time>
      </trkpt>
      <trkpt lat="43.44307" lon="6.07162">
        <ele>243</ele>
        <time>2013-01-26T15:06:15Z</time>
      </trkpt>
      <trkpt lat="43.443" lon="6.07145">
        <ele>243</ele>
        <time>2013-01-26T15:06:20Z</time>
      </trkpt>
      <trkpt lat="43.44298" lon="6.07142">
        <ele>243</ele>
        <time>2013-01-26T15:06:21Z</time>
      </trkpt>
      <trkpt lat="43.44288" lon="6.07124">
        <ele>243</ele>
        <time>2013-01-26T15:06:27Z</time>
      </trkpt>
      <trkpt lat="43.44272" lon="6.07103">
        <ele>243</ele>
        <time>2013-01-26T15:06:34Z</time>
      </trkpt>
      <trkpt lat="43.44263" lon="6.07092">
        <ele>243</ele>
        <time>2013-01-26T15:06:37Z</time>
      </trkpt>
      <trkpt lat="43.44254" lon="6.0708">
        <ele>243</ele>
        <time>2013-01-26T15:06:40Z</time>
      </trkpt>
      <trkpt lat="43.44251" lon="6.07077">
        <ele>243</ele>
        <time>2013-01-26T15:06:41Z</time>
      </trkpt>
      <trkpt lat="43.44222" lon="6.07046">
        <ele>243</ele>
        <time>2013-01-26T15:06:50Z</time>
      </trkpt>
      <trkpt lat="43.44199" lon="6.07021">
        <ele>243</ele>
        <time>2013-01-26T15:06:58Z</time>
      </trkpt>
      <trkpt lat="43.44182" lon="6.07003">
        <ele>243</ele>
        <time>2013-01-26T15:07:04Z</time>
      </trkpt>
      <trkpt lat="43.4417" lon="6.06992">
        <ele>243</ele>
        <time>2013-01-26T15:07:08Z</time>
      </trkpt>
      <trkpt lat="43.44154" lon="6.06975">
        <ele>243</ele>
        <time>2013-01-26T15:07:14Z</time>
      </trkpt>
      <trkpt lat="43.44133" lon="6.06959">
        <ele>243.39999389648</ele>
        <time>2013-01-26T15:07:21Z</time>
      </trkpt>
      <trkpt lat="43.44128" lon="6.06955">
        <ele>244.60000610352</ele>
        <time>2013-01-26T15:07:23Z</time>
      </trkpt>
      <trkpt lat="43.44125" lon="6.06953">
        <ele>245</ele>
        <time>2013-01-26T15:07:24Z</time>
      </trkpt>
      <trkpt lat="43.44104" lon="6.06941">
        <ele>245</ele>
        <time>2013-01-26T15:07:31Z</time>
      </trkpt>
      <trkpt lat="43.44079" lon="6.06931">
        <ele>245</ele>
        <time>2013-01-26T15:07:38Z</time>
      </trkpt>
      <trkpt lat="43.44056" lon="6.06925">
        <ele>245</ele>
        <time>2013-01-26T15:07:44Z</time>
      </trkpt>
      <trkpt lat="43.44039" lon="6.06923">
        <ele>245</ele>
        <time>2013-01-26T15:07:48Z</time>
      </trkpt>
      <trkpt lat="43.44022" lon="6.06922">
        <ele>245</ele>
        <time>2013-01-26T15:07:52Z</time>
      </trkpt>
      <trkpt lat="43.43997" lon="6.06921">
        <ele>245</ele>
        <time>2013-01-26T15:07:59Z</time>
      </trkpt>
      <trkpt lat="43.43967" lon="6.06921">
        <ele>245</ele>
        <time>2013-01-26T15:08:08Z</time>
      </trkpt>
      <trkpt lat="43.43942" lon="6.06922">
        <ele>245</ele>
        <time>2013-01-26T15:08:15Z</time>
      </trkpt>
      <trkpt lat="43.43911" lon="6.06928">
        <ele>245</ele>
        <time>2013-01-26T15:08:23Z</time>
      </trkpt>
      <trkpt lat="43.43891" lon="6.06935">
        <ele>245</ele>
        <time>2013-01-26T15:08:29Z</time>
      </trkpt>
      <trkpt lat="43.43877" lon="6.06936">
        <ele>245</ele>
        <time>2013-01-26T15:08:34Z</time>
      </trkpt>
      <trkpt lat="43.43873" lon="6.06928">
        <ele>245</ele>
        <time>2013-01-26T15:08:37Z</time>
      </trkpt>
      <trkpt lat="43.43869" lon="6.06925">
        <ele>245</ele>
        <time>2013-01-26T15:08:39Z</time>
      </trkpt>
      <trkpt lat="43.43857" lon="6.0693">
        <ele>245</ele>
        <time>2013-01-26T15:08:44Z</time>
      </trkpt>
      <trkpt lat="43.43844" lon="6.06947">
        <ele>245</ele>
        <time>2013-01-26T15:08:49Z</time>
      </trkpt>
      <trkpt lat="43.43836" lon="6.06972">
        <ele>245</ele>
        <time>2013-01-26T15:08:54Z</time>
      </trkpt>
      <trkpt lat="43.43831" lon="6.06981">
        <ele>245</ele>
        <time>2013-01-26T15:08:56Z</time>
      </trkpt>
      <trkpt lat="43.43822" lon="6.06994">
        <ele>245</ele>
        <time>2013-01-26T15:08:59Z</time>
      </trkpt>
      <trkpt lat="43.4379" lon="6.07032">
        <ele>243</ele>
        <time>2013-01-26T15:09:08Z</time>
      </trkpt>
      <trkpt lat="43.43766" lon="6.07055">
        <ele>243</ele>
        <time>2013-01-26T15:09:14Z</time>
      </trkpt>
      <trkpt lat="43.43736" lon="6.07086">
        <ele>243</ele>
        <time>2013-01-26T15:09:21Z</time>
      </trkpt>
      <trkpt lat="43.43718" lon="6.07103">
        <ele>242.60000610352</ele>
        <time>2013-01-26T15:09:25Z</time>
      </trkpt>
      <trkpt lat="43.43707" lon="6.0711">
        <ele>241.60000610352</ele>
        <time>2013-01-26T15:09:27Z</time>
      </trkpt>
      <trkpt lat="43.43702" lon="6.07112">
        <ele>241.19999694824</ele>
        <time>2013-01-26T15:09:28Z</time>
      </trkpt>
      <trkpt lat="43.43696" lon="6.07114">
        <ele>240.80000305176</ele>
        <time>2013-01-26T15:09:29Z</time>
      </trkpt>
      <trkpt lat="43.43683" lon="6.07119">
        <ele>240.80000305176</ele>
        <time>2013-01-26T15:09:32Z</time>
      </trkpt>
      <trkpt lat="43.43666" lon="6.07118">
        <ele>240.80000305176</ele>
        <time>2013-01-26T15:09:36Z</time>
      </trkpt>
      <trkpt lat="43.43654" lon="6.07116">
        <ele>240.80000305176</ele>
        <time>2013-01-26T15:09:39Z</time>
      </trkpt>
      <trkpt lat="43.43633" lon="6.07111">
        <ele>240.80000305176</ele>
        <time>2013-01-26T15:09:45Z</time>
      </trkpt>
      <trkpt lat="43.43613" lon="6.07104">
        <ele>240.80000305176</ele>
        <time>2013-01-26T15:09:51Z</time>
      </trkpt>
      <trkpt lat="43.43589" lon="6.07097">
        <ele>240.80000305176</ele>
        <time>2013-01-26T15:09:58Z</time>
      </trkpt>
      <trkpt lat="43.43573" lon="6.07093">
        <ele>240.80000305176</ele>
        <time>2013-01-26T15:10:03Z</time>
      </trkpt>
      <trkpt lat="43.43563" lon="6.0709">
        <ele>240.80000305176</ele>
        <time>2013-01-26T15:10:06Z</time>
      </trkpt>
      <trkpt lat="43.43547" lon="6.07086">
        <ele>240.80000305176</ele>
        <time>2013-01-26T15:10:12Z</time>
      </trkpt>
      <trkpt lat="43.43539" lon="6.07086">
        <ele>241.19999694824</ele>
        <time>2013-01-26T15:10:15Z</time>
      </trkpt>
      <trkpt lat="43.43537" lon="6.07085">
        <ele>241.60000610352</ele>
        <time>2013-01-26T15:10:16Z</time>
      </trkpt>
      <trkpt lat="43.43531" lon="6.0708">
        <ele>242.80000305176</ele>
        <time>2013-01-26T15:10:19Z</time>
      </trkpt>
      <trkpt lat="43.43523" lon="6.07078">
        <ele>242.80000305176</ele>
        <time>2013-01-26T15:10:22Z</time>
      </trkpt>
      <trkpt lat="43.43507" lon="6.07073">
        <ele>242.80000305176</ele>
        <time>2013-01-26T15:10:28Z</time>
      </trkpt>
      <trkpt lat="43.43492" lon="6.07069">
        <ele>243.19999694824</ele>
        <time>2013-01-26T15:10:33Z</time>
      </trkpt>
      <trkpt lat="43.43489" lon="6.07068">
        <ele>243.60000610352</ele>
        <time>2013-01-26T15:10:34Z</time>
      </trkpt>
      <trkpt lat="43.43487" lon="6.07066">
        <ele>244.19999694824</ele>
        <time>2013-01-26T15:10:35Z</time>
      </trkpt>
      <trkpt lat="43.43485" lon="6.07065">
        <ele>244.60000610352</ele>
        <time>2013-01-26T15:10:36Z</time>
      </trkpt>
      <trkpt lat="43.43481" lon="6.07063">
        <ele>245</ele>
        <time>2013-01-26T15:10:38Z</time>
      </trkpt>
      <trkpt lat="43.43478" lon="6.07061">
        <ele>245</ele>
        <time>2013-01-26T15:10:41Z</time>
      </trkpt>
      <trkpt lat="43.43477" lon="6.07061">
        <ele>245</ele>
        <time>2013-01-26T15:10:48Z</time>
      </trkpt>
      <trkpt lat="43.43476" lon="6.07061">
        <ele>245</ele>
        <time>2013-01-26T15:10:58Z</time>
      </trkpt>
      <trkpt lat="43.43473" lon="6.07059">
        <ele>245</ele>
        <time>2013-01-26T15:11:00Z</time>
      </trkpt>
      <trkpt lat="43.43471" lon="6.07056">
        <ele>245</ele>
        <time>2013-01-26T15:11:03Z</time>
      </trkpt>
      <trkpt lat="43.43462" lon="6.07057">
        <ele>245</ele>
        <time>2013-01-26T15:11:08Z</time>
      </trkpt>
      <trkpt lat="43.43445" lon="6.07054">
        <ele>245</ele>
        <time>2013-01-26T15:11:13Z</time>
      </trkpt>
      <trkpt lat="43.43433" lon="6.07051">
        <ele>245</ele>
        <time>2013-01-26T15:11:16Z</time>
      </trkpt>
      <trkpt lat="43.4342" lon="6.07046">
        <ele>245</ele>
        <time>2013-01-26T15:11:19Z</time>
      </trkpt>
      <trkpt lat="43.43411" lon="6.07043">
        <ele>244.60000610352</ele>
        <time>2013-01-26T15:11:21Z</time>
      </trkpt>
      <trkpt lat="43.43406" lon="6.07041">
        <ele>244.19999694824</ele>
        <time>2013-01-26T15:11:22Z</time>
      </trkpt>
      <trkpt lat="43.43401" lon="6.0704">
        <ele>243.80000305176</ele>
        <time>2013-01-26T15:11:23Z</time>
      </trkpt>
      <trkpt lat="43.43391" lon="6.07037">
        <ele>243</ele>
        <time>2013-01-26T15:11:25Z</time>
      </trkpt>
      <trkpt lat="43.43385" lon="6.07036">
        <ele>243</ele>
        <time>2013-01-26T15:11:26Z</time>
      </trkpt>
      <trkpt lat="43.43363" lon="6.0703">
        <ele>242.39999389648</ele>
        <time>2013-01-26T15:11:30Z</time>
      </trkpt>
      <trkpt lat="43.43352" lon="6.07027">
        <ele>241.60000610352</ele>
        <time>2013-01-26T15:11:32Z</time>
      </trkpt>
      <trkpt lat="43.43346" lon="6.07025">
        <ele>241.19999694824</ele>
        <time>2013-01-26T15:11:33Z</time>
      </trkpt>
      <trkpt lat="43.43341" lon="6.07024">
        <ele>240.60000610352</ele>
        <time>2013-01-26T15:11:34Z</time>
      </trkpt>
      <trkpt lat="43.43328" lon="6.07018">
        <ele>240.60000610352</ele>
        <time>2013-01-26T15:11:37Z</time>
      </trkpt>
      <trkpt lat="43.43324" lon="6.07016">
        <ele>240.60000610352</ele>
        <time>2013-01-26T15:11:38Z</time>
      </trkpt>
      <trkpt lat="43.43307" lon="6.07012">
        <ele>240.60000610352</ele>
        <time>2013-01-26T15:11:42Z</time>
      </trkpt>
      <trkpt lat="43.433" lon="6.07013">
        <ele>240.60000610352</ele>
        <time>2013-01-26T15:11:44Z</time>
      </trkpt>
      <trkpt lat="43.43281" lon="6.07021">
        <ele>240.60000610352</ele>
        <time>2013-01-26T15:11:49Z</time>
      </trkpt>
      <trkpt lat="43.43279" lon="6.07023">
        <ele>240.60000610352</ele>
        <time>2013-01-26T15:11:50Z</time>
      </trkpt>
      <trkpt lat="43.43269" lon="6.0703">
        <ele>240.60000610352</ele>
        <time>2013-01-26T15:11:54Z</time>
      </trkpt>
      <trkpt lat="43.43259" lon="6.07048">
        <ele>240.60000610352</ele>
        <time>2013-01-26T15:12:01Z</time>
      </trkpt>
      <trkpt lat="43.43249" lon="6.0707">
        <ele>240.60000610352</ele>
        <time>2013-01-26T15:12:09Z</time>
      </trkpt>
      <trkpt lat="43.43243" lon="6.07085">
        <ele>241.60000610352</ele>
        <time>2013-01-26T15:12:15Z</time>
      </trkpt>
      <trkpt lat="43.43235" lon="6.07105">
        <ele>242.80000305176</ele>
        <time>2013-01-26T15:12:23Z</time>
      </trkpt>
      <trkpt lat="43.43228" lon="6.07118">
        <ele>242.80000305176</ele>
        <time>2013-01-26T15:12:29Z</time>
      </trkpt>
      <trkpt lat="43.43221" lon="6.07132">
        <ele>242.80000305176</ele>
        <time>2013-01-26T15:12:37Z</time>
      </trkpt>
      <trkpt lat="43.43214" lon="6.07146">
        <ele>242.80000305176</ele>
        <time>2013-01-26T15:12:43Z</time>
      </trkpt>
      <trkpt lat="43.43209" lon="6.07154">
        <ele>243.19999694824</ele>
        <time>2013-01-26T15:12:47Z</time>
      </trkpt>
      <trkpt lat="43.43208" lon="6.07156">
        <ele>243.60000610352</ele>
        <time>2013-01-26T15:12:48Z</time>
      </trkpt>
      <trkpt lat="43.43206" lon="6.07163">
        <ele>245</ele>
        <time>2013-01-26T15:12:51Z</time>
      </trkpt>
      <trkpt lat="43.43203" lon="6.07169">
        <ele>245</ele>
        <time>2013-01-26T15:12:53Z</time>
      </trkpt>
      <trkpt lat="43.43198" lon="6.07176">
        <ele>246.60000610352</ele>
        <time>2013-01-26T15:12:58Z</time>
      </trkpt>
      <trkpt lat="43.43196" lon="6.07179">
        <ele>247.39999389648</ele>
        <time>2013-01-26T15:13:01Z</time>
      </trkpt>
      <trkpt lat="43.43195" lon="6.0718">
        <ele>247.80000305176</ele>
        <time>2013-01-26T15:13:02Z</time>
      </trkpt>
      <trkpt lat="43.43194" lon="6.07182">
        <ele>248.60000610352</ele>
        <time>2013-01-26T15:13:04Z</time>
      </trkpt>
      <trkpt lat="43.43193" lon="6.07183">
        <ele>249</ele>
        <time>2013-01-26T15:13:05Z</time>
      </trkpt>
      <trkpt lat="43.4319" lon="6.07186">
        <ele>249</ele>
        <time>2013-01-26T15:13:07Z</time>
      </trkpt>
      <trkpt lat="43.43188" lon="6.0719">
        <ele>249</ele>
        <time>2013-01-26T15:13:11Z</time>
      </trkpt>
      <trkpt lat="43.43184" lon="6.07196">
        <ele>249.39999389648</ele>
        <time>2013-01-26T15:13:16Z</time>
      </trkpt>
      <trkpt lat="43.43184" lon="6.07197">
        <ele>249.80000305176</ele>
        <time>2013-01-26T15:13:17Z</time>
      </trkpt>
      <trkpt lat="43.4318" lon="6.07211">
        <ele>251.19999694824</ele>
        <time>2013-01-26T15:13:29Z</time>
      </trkpt>
      <trkpt lat="43.43178" lon="6.07214">
        <ele>251.19999694824</ele>
        <time>2013-01-26T15:13:32Z</time>
      </trkpt>
      <trkpt lat="43.43176" lon="6.07225">
        <ele>253.19999694824</ele>
        <time>2013-01-26T15:13:41Z</time>
      </trkpt>
      <trkpt lat="43.43175" lon="6.07227">
        <ele>253.19999694824</ele>
        <time>2013-01-26T15:13:42Z</time>
      </trkpt>
      <trkpt lat="43.43175" lon="6.07233">
        <ele>253.19999694824</ele>
        <time>2013-01-26T15:13:47Z</time>
      </trkpt>
      <trkpt lat="43.43173" lon="6.07239">
        <ele>253.19999694824</ele>
        <time>2013-01-26T15:13:52Z</time>
      </trkpt>
      <trkpt lat="43.43174" lon="6.07245">
        <ele>253.19999694824</ele>
        <time>2013-01-26T15:13:57Z</time>
      </trkpt>
      <trkpt lat="43.43172" lon="6.07262">
        <ele>255.39999389648</ele>
        <time>2013-01-26T15:14:10Z</time>
      </trkpt>
      <trkpt lat="43.43172" lon="6.07265">
        <ele>255.39999389648</ele>
        <time>2013-01-26T15:14:12Z</time>
      </trkpt>
      <trkpt lat="43.43171" lon="6.07269">
        <ele>255.39999389648</ele>
        <time>2013-01-26T15:14:16Z</time>
      </trkpt>
      <trkpt lat="43.4317" lon="6.07271">
        <ele>255.80000305176</ele>
        <time>2013-01-26T15:14:17Z</time>
      </trkpt>
      <trkpt lat="43.43169" lon="6.07272">
        <ele>256.20001220703</ele>
        <time>2013-01-26T15:14:18Z</time>
      </trkpt>
      <trkpt lat="43.43169" lon="6.07272">
        <ele>256.60000610352</ele>
        <time>2013-01-26T15:14:19Z</time>
      </trkpt>
      <trkpt lat="43.43168" lon="6.07272">
        <ele>257</ele>
        <time>2013-01-26T15:14:20Z</time>
      </trkpt>
      <trkpt lat="43.43168" lon="6.07272">
        <ele>257.60000610352</ele>
        <time>2013-01-26T15:14:31Z</time>
      </trkpt>
      <trkpt lat="43.43169" lon="6.07272">
        <ele>257.60000610352</ele>
        <time>2013-01-26T15:14:40Z</time>
      </trkpt>
      <trkpt lat="43.4317" lon="6.07272">
        <ele>257.60000610352</ele>
        <time>2013-01-26T15:14:42Z</time>
      </trkpt>
      <trkpt lat="43.4317" lon="6.07272">
        <ele>257.60000610352</ele>
        <time>2013-01-26T15:14:46Z</time>
      </trkpt>
      <trkpt lat="43.43171" lon="6.07272">
        <ele>257.60000610352</ele>
        <time>2013-01-26T15:14:48Z</time>
      </trkpt>
      <trkpt lat="43.43171" lon="6.07272">
        <ele>257.60000610352</ele>
        <time>2013-01-26T15:14:52Z</time>
      </trkpt>
      <trkpt lat="43.43172" lon="6.0727">
        <ele>257.60000610352</ele>
        <time>2013-01-26T15:14:54Z</time>
      </trkpt>
      <trkpt lat="43.43171" lon="6.0727">
        <ele>257.60000610352</ele>
        <time>2013-01-26T15:14:58Z</time>
      </trkpt>
      <trkpt lat="43.43173" lon="6.07271">
        <ele>257.60000610352</ele>
        <time>2013-01-26T15:15:00Z</time>
      </trkpt>
      <trkpt lat="43.43172" lon="6.07271">
        <ele>257.60000610352</ele>
        <time>2013-01-26T15:15:05Z</time>
      </trkpt>
      <trkpt lat="43.43172" lon="6.07271">
        <ele>257.60000610352</ele>
        <time>2013-01-26T15:15:14Z</time>
      </trkpt>
      <trkpt lat="43.43171" lon="6.07272">
        <ele>257.60000610352</ele>
        <time>2013-01-26T15:15:23Z</time>
      </trkpt>
      <trkpt lat="43.43168" lon="6.07274">
        <ele>257.60000610352</ele>
        <time>2013-01-26T15:15:25Z</time>
      </trkpt>
      <trkpt lat="43.43164" lon="6.07272">
        <ele>257.60000610352</ele>
        <time>2013-01-26T15:15:28Z</time>
      </trkpt>
      <trkpt lat="43.43163" lon="6.07269">
        <ele>258</ele>
        <time>2013-01-26T15:15:30Z</time>
      </trkpt>
      <trkpt lat="43.43161" lon="6.07267">
        <ele>258.79998779297</ele>
        <time>2013-01-26T15:15:32Z</time>
      </trkpt>
      <trkpt lat="43.4316" lon="6.07265">
        <ele>259.60000610352</ele>
        <time>2013-01-26T15:15:34Z</time>
      </trkpt>
      <trkpt lat="43.43156" lon="6.07259">
        <ele>259.60000610352</ele>
        <time>2013-01-26T15:15:40Z</time>
      </trkpt>
      <trkpt lat="43.43153" lon="6.07255">
        <ele>260</ele>
        <time>2013-01-26T15:15:45Z</time>
      </trkpt>
      <trkpt lat="43.43144" lon="6.07246">
        <ele>261.60000610352</ele>
        <time>2013-01-26T15:15:56Z</time>
      </trkpt>
      <trkpt lat="43.43138" lon="6.07237">
        <ele>263.79998779297</ele>
        <time>2013-01-26T15:16:07Z</time>
      </trkpt>
      <trkpt lat="43.43133" lon="6.07232">
        <ele>264.20001220703</ele>
        <time>2013-01-26T15:16:13Z</time>
      </trkpt>
      <trkpt lat="43.43131" lon="6.07227">
        <ele>265.79998779297</ele>
        <time>2013-01-26T15:16:17Z</time>
      </trkpt>
      <trkpt lat="43.43129" lon="6.07226">
        <ele>265.79998779297</ele>
        <time>2013-01-26T15:16:19Z</time>
      </trkpt>
      <trkpt lat="43.43125" lon="6.07221">
        <ele>265.79998779297</ele>
        <time>2013-01-26T15:16:24Z</time>
      </trkpt>
      <trkpt lat="43.43121" lon="6.07217">
        <ele>266.20001220703</ele>
        <time>2013-01-26T15:16:29Z</time>
      </trkpt>
      <trkpt lat="43.43119" lon="6.07216">
        <ele>267.39999389648</ele>
        <time>2013-01-26T15:16:32Z</time>
      </trkpt>
      <trkpt lat="43.43117" lon="6.07214">
        <ele>267.79998779297</ele>
        <time>2013-01-26T15:16:36Z</time>
      </trkpt>
      <trkpt lat="43.43114" lon="6.07209">
        <ele>267.79998779297</ele>
        <time>2013-01-26T15:16:42Z</time>
      </trkpt>
      <trkpt lat="43.4311" lon="6.07206">
        <ele>267.79998779297</ele>
        <time>2013-01-26T15:16:47Z</time>
      </trkpt>
      <trkpt lat="43.43108" lon="6.07203">
        <ele>268.60000610352</ele>
        <time>2013-01-26T15:16:51Z</time>
      </trkpt>
      <trkpt lat="43.43107" lon="6.07201">
        <ele>269.20001220703</ele>
        <time>2013-01-26T15:16:52Z</time>
      </trkpt>
      <trkpt lat="43.43106" lon="6.07199">
        <ele>269.60000610352</ele>
        <time>2013-01-26T15:16:53Z</time>
      </trkpt>
      <trkpt lat="43.43105" lon="6.07197">
        <ele>270</ele>
        <time>2013-01-26T15:16:54Z</time>
      </trkpt>
      <trkpt lat="43.43101" lon="6.07191">
        <ele>270</ele>
        <time>2013-01-26T15:16:57Z</time>
      </trkpt>
      <trkpt lat="43.43098" lon="6.0719">
        <ele>270.79998779297</ele>
        <time>2013-01-26T15:16:59Z</time>
      </trkpt>
      <trkpt lat="43.43098" lon="6.07188">
        <ele>271.20001220703</ele>
        <time>2013-01-26T15:17:00Z</time>
      </trkpt>
      <trkpt lat="43.43098" lon="6.07188">
        <ele>271.60000610352</ele>
        <time>2013-01-26T15:17:01Z</time>
      </trkpt>
      <trkpt lat="43.43098" lon="6.07188">
        <ele>272</ele>
        <time>2013-01-26T15:17:03Z</time>
      </trkpt>
      <trkpt lat="43.43097" lon="6.07188">
        <ele>272</ele>
        <time>2013-01-26T15:17:07Z</time>
      </trkpt>
      <trkpt lat="43.43097" lon="6.07188">
        <ele>272</ele>
        <time>2013-01-26T15:17:21Z</time>
      </trkpt>
      <trkpt lat="43.43097" lon="6.07188">
        <ele>272</ele>
        <time>2013-01-26T15:17:34Z</time>
      </trkpt>
      <trkpt lat="43.43097" lon="6.07187">
        <ele>272</ele>
        <time>2013-01-26T15:17:43Z</time>
      </trkpt>
      <trkpt lat="43.43097" lon="6.07187">
        <ele>272</ele>
        <time>2013-01-26T15:17:52Z</time>
      </trkpt>
      <trkpt lat="43.43097" lon="6.07186">
        <ele>272</ele>
        <time>2013-01-26T15:17:56Z</time>
      </trkpt>
      <trkpt lat="43.43097" lon="6.07186">
        <ele>272</ele>
        <time>2013-01-26T15:18:19Z</time>
      </trkpt>
      <trkpt lat="43.43097" lon="6.07186">
        <ele>272</ele>
        <time>2013-01-26T15:18:39Z</time>
      </trkpt>
      <trkpt lat="43.43097" lon="6.07186">
        <ele>272</ele>
        <time>2013-01-26T15:19:02Z</time>
      </trkpt>
      <trkpt lat="43.43097" lon="6.07181">
        <ele>272</ele>
        <time>2013-01-26T15:19:10Z</time>
      </trkpt>
      <trkpt lat="43.43094" lon="6.07172">
        <ele>272</ele>
        <time>2013-01-26T15:19:15Z</time>
      </trkpt>
      <trkpt lat="43.43093" lon="6.07169">
        <ele>272</ele>
        <time>2013-01-26T15:19:17Z</time>
      </trkpt>
      <trkpt lat="43.43091" lon="6.07162">
        <ele>272.79998779297</ele>
        <time>2013-01-26T15:19:22Z</time>
      </trkpt>
      <trkpt lat="43.43089" lon="6.0715">
        <ele>274</ele>
        <time>2013-01-26T15:19:30Z</time>
      </trkpt>
      <trkpt lat="43.43081" lon="6.07151">
        <ele>274.79998779297</ele>
        <time>2013-01-26T15:19:37Z</time>
      </trkpt>
      <trkpt lat="43.43076" lon="6.07143">
        <ele>276</ele>
        <time>2013-01-26T15:19:45Z</time>
      </trkpt>
      <trkpt lat="43.43076" lon="6.07141">
        <ele>276.79998779297</ele>
        <time>2013-01-26T15:19:47Z</time>
      </trkpt>
      <trkpt lat="43.43075" lon="6.07137">
        <ele>278.20001220703</ele>
        <time>2013-01-26T15:19:50Z</time>
      </trkpt>
      <trkpt lat="43.43063" lon="6.07133">
        <ele>280.20001220703</ele>
        <time>2013-01-26T15:20:03Z</time>
      </trkpt>
      <trkpt lat="43.43055" lon="6.07135">
        <ele>280.20001220703</ele>
        <time>2013-01-26T15:20:12Z</time>
      </trkpt>
      <trkpt lat="43.43046" lon="6.07143">
        <ele>281.39999389648</ele>
        <time>2013-01-26T15:20:23Z</time>
      </trkpt>
      <trkpt lat="43.43044" lon="6.07143">
        <ele>282.39999389648</ele>
        <time>2013-01-26T15:20:25Z</time>
      </trkpt>
      <trkpt lat="43.43037" lon="6.07144">
        <ele>282.39999389648</ele>
        <time>2013-01-26T15:20:32Z</time>
      </trkpt>
      <trkpt lat="43.43029" lon="6.07145">
        <ele>282.79998779297</ele>
        <time>2013-01-26T15:20:39Z</time>
      </trkpt>
      <trkpt lat="43.43027" lon="6.07145">
        <ele>283.20001220703</ele>
        <time>2013-01-26T15:20:40Z</time>
      </trkpt>
      <trkpt lat="43.43027" lon="6.07145">
        <ele>283.60000610352</ele>
        <time>2013-01-26T15:20:41Z</time>
      </trkpt>
      <trkpt lat="43.43025" lon="6.07146">
        <ele>284.39999389648</ele>
        <time>2013-01-26T15:20:43Z</time>
      </trkpt>
      <trkpt lat="43.43023" lon="6.07146">
        <ele>284.39999389648</ele>
        <time>2013-01-26T15:20:46Z</time>
      </trkpt>
      <trkpt lat="43.43022" lon="6.07147">
        <ele>284.39999389648</ele>
        <time>2013-01-26T15:20:52Z</time>
      </trkpt>
      <trkpt lat="43.43022" lon="6.07147">
        <ele>284.39999389648</ele>
        <time>2013-01-26T15:20:56Z</time>
      </trkpt>
      <trkpt lat="43.43016" lon="6.07149">
        <ele>284.39999389648</ele>
        <time>2013-01-26T15:20:59Z</time>
      </trkpt>
      <trkpt lat="43.43008" lon="6.07149">
        <ele>284.39999389648</ele>
        <time>2013-01-26T15:21:02Z</time>
      </trkpt>
      <trkpt lat="43.43004" lon="6.07149">
        <ele>284.39999389648</ele>
        <time>2013-01-26T15:21:03Z</time>
      </trkpt>
      <trkpt lat="43.42988" lon="6.07147">
        <ele>284</ele>
        <time>2013-01-26T15:21:07Z</time>
      </trkpt>
      <trkpt lat="43.42985" lon="6.07146">
        <ele>283.39999389648</ele>
        <time>2013-01-26T15:21:08Z</time>
      </trkpt>
      <trkpt lat="43.42981" lon="6.07145">
        <ele>283</ele>
        <time>2013-01-26T15:21:09Z</time>
      </trkpt>
      <trkpt lat="43.42979" lon="6.07145">
        <ele>282.60000610352</ele>
        <time>2013-01-26T15:21:10Z</time>
      </trkpt>
      <trkpt lat="43.42975" lon="6.07145">
        <ele>282</ele>
        <time>2013-01-26T15:21:11Z</time>
      </trkpt>
      <trkpt lat="43.42971" lon="6.07146">
        <ele>281.60000610352</ele>
        <time>2013-01-26T15:21:12Z</time>
      </trkpt>
      <trkpt lat="43.42968" lon="6.07147">
        <ele>281.20001220703</ele>
        <time>2013-01-26T15:21:13Z</time>
      </trkpt>
      <trkpt lat="43.42964" lon="6.07148">
        <ele>280.79998779297</ele>
        <time>2013-01-26T15:21:14Z</time>
      </trkpt>
      <trkpt lat="43.42961" lon="6.0715">
        <ele>280.20001220703</ele>
        <time>2013-01-26T15:21:15Z</time>
      </trkpt>
      <trkpt lat="43.42959" lon="6.07151">
        <ele>279.79998779297</ele>
        <time>2013-01-26T15:21:16Z</time>
      </trkpt>
      <trkpt lat="43.42958" lon="6.07151">
        <ele>279.79998779297</ele>
        <time>2013-01-26T15:21:17Z</time>
      </trkpt>
      <trkpt lat="43.42955" lon="6.07152">
        <ele>279.39999389648</ele>
        <time>2013-01-26T15:21:19Z</time>
      </trkpt>
      <trkpt lat="43.42955" lon="6.07153">
        <ele>279</ele>
        <time>2013-01-26T15:21:20Z</time>
      </trkpt>
      <trkpt lat="43.42955" lon="6.07153">
        <ele>277.79998779297</ele>
        <time>2013-01-26T15:21:28Z</time>
      </trkpt>
      <trkpt lat="43.42951" lon="6.07154">
        <ele>277.79998779297</ele>
        <time>2013-01-26T15:21:33Z</time>
      </trkpt>
      <trkpt lat="43.42944" lon="6.07154">
        <ele>277.79998779297</ele>
        <time>2013-01-26T15:21:36Z</time>
      </trkpt>
      <trkpt lat="43.42937" lon="6.07153">
        <ele>277.79998779297</ele>
        <time>2013-01-26T15:21:38Z</time>
      </trkpt>
      <trkpt lat="43.42913" lon="6.07154">
        <ele>277.79998779297</ele>
        <time>2013-01-26T15:21:44Z</time>
      </trkpt>
      <trkpt lat="43.42891" lon="6.07154">
        <ele>277.79998779297</ele>
        <time>2013-01-26T15:21:49Z</time>
      </trkpt>
      <trkpt lat="43.42886" lon="6.07154">
        <ele>277.39999389648</ele>
        <time>2013-01-26T15:21:50Z</time>
      </trkpt>
      <trkpt lat="43.42876" lon="6.07155">
        <ele>276.60000610352</ele>
        <time>2013-01-26T15:21:52Z</time>
      </trkpt>
      <trkpt lat="43.42866" lon="6.07155">
        <ele>275.79998779297</ele>
        <time>2013-01-26T15:21:54Z</time>
      </trkpt>
      <trkpt lat="43.42822" lon="6.0716">
        <ele>275.79998779297</ele>
        <time>2013-01-26T15:22:02Z</time>
      </trkpt>
      <trkpt lat="43.42799" lon="6.0716">
        <ele>274.60000610352</ele>
        <time>2013-01-26T15:22:06Z</time>
      </trkpt>
      <trkpt lat="43.42787" lon="6.07159">
        <ele>273.79998779297</ele>
        <time>2013-01-26T15:22:08Z</time>
      </trkpt>
      <trkpt lat="43.42755" lon="6.07153">
        <ele>272.79998779297</ele>
        <time>2013-01-26T15:22:13Z</time>
      </trkpt>
      <trkpt lat="43.42734" lon="6.0715">
        <ele>271.60000610352</ele>
        <time>2013-01-26T15:22:16Z</time>
      </trkpt>
      <trkpt lat="43.42706" lon="6.07144">
        <ele>270.79998779297</ele>
        <time>2013-01-26T15:22:20Z</time>
      </trkpt>
      <trkpt lat="43.42683" lon="6.07141">
        <ele>269.60000610352</ele>
        <time>2013-01-26T15:22:23Z</time>
      </trkpt>
      <trkpt lat="43.42667" lon="6.07138">
        <ele>269.60000610352</ele>
        <time>2013-01-26T15:22:25Z</time>
      </trkpt>
      <trkpt lat="43.42659" lon="6.07137">
        <ele>269</ele>
        <time>2013-01-26T15:22:26Z</time>
      </trkpt>
      <trkpt lat="43.42651" lon="6.07135">
        <ele>268.60000610352</ele>
        <time>2013-01-26T15:22:27Z</time>
      </trkpt>
      <trkpt lat="43.42644" lon="6.07134">
        <ele>268.20001220703</ele>
        <time>2013-01-26T15:22:28Z</time>
      </trkpt>
      <trkpt lat="43.42636" lon="6.07133">
        <ele>267.79998779297</ele>
        <time>2013-01-26T15:22:29Z</time>
      </trkpt>
      <trkpt lat="43.42628" lon="6.07131">
        <ele>267.20001220703</ele>
        <time>2013-01-26T15:22:30Z</time>
      </trkpt>
      <trkpt lat="43.42612" lon="6.07128">
        <ele>266.79998779297</ele>
        <time>2013-01-26T15:22:32Z</time>
      </trkpt>
      <trkpt lat="43.42604" lon="6.07125">
        <ele>266.39999389648</ele>
        <time>2013-01-26T15:22:33Z</time>
      </trkpt>
      <trkpt lat="43.42588" lon="6.07122">
        <ele>265.39999389648</ele>
        <time>2013-01-26T15:22:35Z</time>
      </trkpt>
      <trkpt lat="43.4258" lon="6.07121">
        <ele>265</ele>
        <time>2013-01-26T15:22:36Z</time>
      </trkpt>
      <trkpt lat="43.42572" lon="6.0712">
        <ele>264</ele>
        <time>2013-01-26T15:22:37Z</time>
      </trkpt>
      <trkpt lat="43.42566" lon="6.07119">
        <ele>263.60000610352</ele>
        <time>2013-01-26T15:22:38Z</time>
      </trkpt>
      <trkpt lat="43.4256" lon="6.07119">
        <ele>263.20001220703</ele>
        <time>2013-01-26T15:22:39Z</time>
      </trkpt>
      <trkpt lat="43.42555" lon="6.07119">
        <ele>262.60000610352</ele>
        <time>2013-01-26T15:22:40Z</time>
      </trkpt>
      <trkpt lat="43.4255" lon="6.07119">
        <ele>262.20001220703</ele>
        <time>2013-01-26T15:22:41Z</time>
      </trkpt>
      <trkpt lat="43.42547" lon="6.0712">
        <ele>261.79998779297</ele>
        <time>2013-01-26T15:22:42Z</time>
      </trkpt>
      <trkpt lat="43.42535" lon="6.07123">
        <ele>260.39999389648</ele>
        <time>2013-01-26T15:22:45Z</time>
      </trkpt>
      <trkpt lat="43.42531" lon="6.07124">
        <ele>260.39999389648</ele>
        <time>2013-01-26T15:22:46Z</time>
      </trkpt>
      <trkpt lat="43.42522" lon="6.07116">
        <ele>260.39999389648</ele>
        <time>2013-01-26T15:22:49Z</time>
      </trkpt>
      <trkpt lat="43.42522" lon="6.07108">
        <ele>260.39999389648</ele>
        <time>2013-01-26T15:22:52Z</time>
      </trkpt>
      <trkpt lat="43.42522" lon="6.07106">
        <ele>260.39999389648</ele>
        <time>2013-01-26T15:22:53Z</time>
      </trkpt>
      <trkpt lat="43.42521" lon="6.071">
        <ele>260.39999389648</ele>
        <time>2013-01-26T15:22:56Z</time>
      </trkpt>
      <trkpt lat="43.42521" lon="6.07096">
        <ele>260.39999389648</ele>
        <time>2013-01-26T15:23:00Z</time>
      </trkpt>
      <trkpt lat="43.42521" lon="6.07096">
        <ele>260.39999389648</ele>
        <time>2013-01-26T15:23:28Z</time>
      </trkpt>
      <trkpt lat="43.42521" lon="6.07097">
        <ele>260.39999389648</ele>
        <time>2013-01-26T15:23:40Z</time>
      </trkpt>
      <trkpt lat="43.42521" lon="6.07097">
        <ele>260.39999389648</ele>
        <time>2013-01-26T15:23:57Z</time>
      </trkpt>
      <trkpt lat="43.42521" lon="6.07097">
        <ele>260.39999389648</ele>
        <time>2013-01-26T15:24:16Z</time>
      </trkpt>
      <trkpt lat="43.42521" lon="6.07097">
        <ele>260.39999389648</ele>
        <time>2013-01-26T15:24:20Z</time>
      </trkpt>
      <trkpt lat="43.42521" lon="6.07097">
        <ele>260.39999389648</ele>
        <time>2013-01-26T15:24:22Z</time>
      </trkpt>
      <trkpt lat="43.42521" lon="6.07096">
        <ele>260.39999389648</ele>
        <time>2013-01-26T15:24:28Z</time>
      </trkpt>
      <trkpt lat="43.4252" lon="6.07086">
        <ele>260.39999389648</ele>
        <time>2013-01-26T15:24:33Z</time>
      </trkpt>
      <trkpt lat="43.42519" lon="6.07079">
        <ele>260.39999389648</ele>
        <time>2013-01-26T15:24:36Z</time>
      </trkpt>
      <trkpt lat="43.42519" lon="6.07077">
        <ele>260.39999389648</ele>
        <time>2013-01-26T15:24:37Z</time>
      </trkpt>
      <trkpt lat="43.42517" lon="6.07057">
        <ele>260.39999389648</ele>
        <time>2013-01-26T15:24:44Z</time>
      </trkpt>
      <trkpt lat="43.42516" lon="6.07045">
        <ele>260.79998779297</ele>
        <time>2013-01-26T15:24:48Z</time>
      </trkpt>
      <trkpt lat="43.42516" lon="6.07042">
        <ele>261.20001220703</ele>
        <time>2013-01-26T15:24:49Z</time>
      </trkpt>
      <trkpt lat="43.42516" lon="6.07039">
        <ele>261.60000610352</ele>
        <time>2013-01-26T15:24:50Z</time>
      </trkpt>
      <trkpt lat="43.42516" lon="6.07032">
        <ele>262.39999389648</ele>
        <time>2013-01-26T15:24:52Z</time>
      </trkpt>
      <trkpt lat="43.42516" lon="6.0702">
        <ele>262.39999389648</ele>
        <time>2013-01-26T15:24:56Z</time>
      </trkpt>
      <trkpt lat="43.42514" lon="6.07">
        <ele>264.39999389648</ele>
        <time>2013-01-26T15:25:03Z</time>
      </trkpt>
      <trkpt lat="43.42516" lon="6.06993">
        <ele>264.39999389648</ele>
        <time>2013-01-26T15:25:06Z</time>
      </trkpt>
      <trkpt lat="43.42511" lon="6.06962">
        <ele>265.20001220703</ele>
        <time>2013-01-26T15:25:17Z</time>
      </trkpt>
      <trkpt lat="43.42509" lon="6.06956">
        <ele>266.60000610352</ele>
        <time>2013-01-26T15:25:20Z</time>
      </trkpt>
      <trkpt lat="43.42506" lon="6.06951">
        <ele>266.60000610352</ele>
        <time>2013-01-26T15:25:23Z</time>
      </trkpt>
      <trkpt lat="43.42504" lon="6.06938">
        <ele>266.60000610352</ele>
        <time>2013-01-26T15:25:28Z</time>
      </trkpt>
      <trkpt lat="43.42504" lon="6.06926">
        <ele>267</ele>
        <time>2013-01-26T15:25:32Z</time>
      </trkpt>
      <trkpt lat="43.42503" lon="6.06915">
        <ele>268.60000610352</ele>
        <time>2013-01-26T15:25:36Z</time>
      </trkpt>
      <trkpt lat="43.42503" lon="6.06906">
        <ele>268.60000610352</ele>
        <time>2013-01-26T15:25:40Z</time>
      </trkpt>
      <trkpt lat="43.42501" lon="6.06887">
        <ele>269.60000610352</ele>
        <time>2013-01-26T15:25:47Z</time>
      </trkpt>
      <trkpt lat="43.42501" lon="6.0688">
        <ele>270.79998779297</ele>
        <time>2013-01-26T15:25:50Z</time>
      </trkpt>
      <trkpt lat="43.42502" lon="6.06873">
        <ele>270.79998779297</ele>
        <time>2013-01-26T15:25:53Z</time>
      </trkpt>
      <trkpt lat="43.42502" lon="6.06861">
        <ele>270.79998779297</ele>
        <time>2013-01-26T15:25:59Z</time>
      </trkpt>
      <trkpt lat="43.42504" lon="6.06854">
        <ele>270.79998779297</ele>
        <time>2013-01-26T15:26:04Z</time>
      </trkpt>
      <trkpt lat="43.42504" lon="6.0685">
        <ele>271.20001220703</ele>
        <time>2013-01-26T15:26:06Z</time>
      </trkpt>
      <trkpt lat="43.42505" lon="6.06841">
        <ele>272.79998779297</ele>
        <time>2013-01-26T15:26:12Z</time>
      </trkpt>
      <trkpt lat="43.42507" lon="6.06834">
        <ele>272.79998779297</ele>
        <time>2013-01-26T15:26:17Z</time>
      </trkpt>
      <trkpt lat="43.42508" lon="6.06827">
        <ele>273.20001220703</ele>
        <time>2013-01-26T15:26:22Z</time>
      </trkpt>
      <trkpt lat="43.42509" lon="6.06822">
        <ele>274.60000610352</ele>
        <time>2013-01-26T15:26:25Z</time>
      </trkpt>
      <trkpt lat="43.42512" lon="6.06806">
        <ele>275</ele>
        <time>2013-01-26T15:26:33Z</time>
      </trkpt>
      <trkpt lat="43.42513" lon="6.06802">
        <ele>275</ele>
        <time>2013-01-26T15:26:35Z</time>
      </trkpt>
      <trkpt lat="43.42513" lon="6.06798">
        <ele>275.79998779297</ele>
        <time>2013-01-26T15:26:37Z</time>
      </trkpt>
      <trkpt lat="43.42518" lon="6.06781">
        <ele>277</ele>
        <time>2013-01-26T15:26:46Z</time>
      </trkpt>
      <trkpt lat="43.42522" lon="6.06767">
        <ele>277</ele>
        <time>2013-01-26T15:26:53Z</time>
      </trkpt>
      <trkpt lat="43.42525" lon="6.06756">
        <ele>279</ele>
        <time>2013-01-26T15:27:00Z</time>
      </trkpt>
      <trkpt lat="43.42527" lon="6.0675">
        <ele>279</ele>
        <time>2013-01-26T15:27:03Z</time>
      </trkpt>
      <trkpt lat="43.42526" lon="6.06741">
        <ele>279</ele>
        <time>2013-01-26T15:27:08Z</time>
      </trkpt>
      <trkpt lat="43.42526" lon="6.06735">
        <ele>279.39999389648</ele>
        <time>2013-01-26T15:27:11Z</time>
      </trkpt>
      <trkpt lat="43.42529" lon="6.0671">
        <ele>281.60000610352</ele>
        <time>2013-01-26T15:27:25Z</time>
      </trkpt>
      <trkpt lat="43.42529" lon="6.067">
        <ele>283.20001220703</ele>
        <time>2013-01-26T15:27:31Z</time>
      </trkpt>
      <trkpt lat="43.4253" lon="6.06689">
        <ele>283.20001220703</ele>
        <time>2013-01-26T15:27:37Z</time>
      </trkpt>
      <trkpt lat="43.4253" lon="6.06679">
        <ele>283.20001220703</ele>
        <time>2013-01-26T15:27:44Z</time>
      </trkpt>
      <trkpt lat="43.4253" lon="6.06675">
        <ele>283.20001220703</ele>
        <time>2013-01-26T15:27:49Z</time>
      </trkpt>
      <trkpt lat="43.42531" lon="6.0667">
        <ele>283.20001220703</ele>
        <time>2013-01-26T15:27:54Z</time>
      </trkpt>
      <trkpt lat="43.42534" lon="6.06666">
        <ele>283.20001220703</ele>
        <time>2013-01-26T15:27:59Z</time>
      </trkpt>
      <trkpt lat="43.42537" lon="6.06661">
        <ele>283.20001220703</ele>
        <time>2013-01-26T15:28:05Z</time>
      </trkpt>
      <trkpt lat="43.42538" lon="6.06661">
        <ele>283.20001220703</ele>
        <time>2013-01-26T15:28:07Z</time>
      </trkpt>
      <trkpt lat="43.42538" lon="6.06659">
        <ele>283.20001220703</ele>
        <time>2013-01-26T15:28:08Z</time>
      </trkpt>
      <trkpt lat="43.42541" lon="6.06654">
        <ele>283.20001220703</ele>
        <time>2013-01-26T15:28:13Z</time>
      </trkpt>
      <trkpt lat="43.42544" lon="6.06646">
        <ele>283.20001220703</ele>
        <time>2013-01-26T15:28:18Z</time>
      </trkpt>
      <trkpt lat="43.42547" lon="6.06633">
        <ele>283.20001220703</ele>
        <time>2013-01-26T15:28:24Z</time>
      </trkpt>
      <trkpt lat="43.42555" lon="6.0662">
        <ele>283.20001220703</ele>
        <time>2013-01-26T15:28:29Z</time>
      </trkpt>
      <trkpt lat="43.42569" lon="6.06609">
        <ele>283.20001220703</ele>
        <time>2013-01-26T15:28:35Z</time>
      </trkpt>
      <trkpt lat="43.42572" lon="6.06597">
        <ele>283.20001220703</ele>
        <time>2013-01-26T15:28:40Z</time>
      </trkpt>
      <trkpt lat="43.42574" lon="6.06593">
        <ele>283.20001220703</ele>
        <time>2013-01-26T15:28:41Z</time>
      </trkpt>
      <trkpt lat="43.42576" lon="6.06571">
        <ele>283.20001220703</ele>
        <time>2013-01-26T15:28:47Z</time>
      </trkpt>
      <trkpt lat="43.42579" lon="6.06553">
        <ele>283.20001220703</ele>
        <time>2013-01-26T15:28:52Z</time>
      </trkpt>
      <trkpt lat="43.42584" lon="6.06533">
        <ele>283.20001220703</ele>
        <time>2013-01-26T15:28:56Z</time>
      </trkpt>
      <trkpt lat="43.42588" lon="6.06522">
        <ele>282.79998779297</ele>
        <time>2013-01-26T15:28:58Z</time>
      </trkpt>
      <trkpt lat="43.42593" lon="6.06512">
        <ele>282</ele>
        <time>2013-01-26T15:29:00Z</time>
      </trkpt>
      <trkpt lat="43.42594" lon="6.06508">
        <ele>281.60000610352</ele>
        <time>2013-01-26T15:29:01Z</time>
      </trkpt>
      <trkpt lat="43.42595" lon="6.06503">
        <ele>281</ele>
        <time>2013-01-26T15:29:02Z</time>
      </trkpt>
      <trkpt lat="43.42596" lon="6.06497">
        <ele>281</ele>
        <time>2013-01-26T15:29:03Z</time>
      </trkpt>
      <trkpt lat="43.42585" lon="6.06471">
        <ele>280.20001220703</ele>
        <time>2013-01-26T15:29:09Z</time>
      </trkpt>
      <trkpt lat="43.42584" lon="6.06467">
        <ele>279.60000610352</ele>
        <time>2013-01-26T15:29:10Z</time>
      </trkpt>
      <trkpt lat="43.42583" lon="6.06465">
        <ele>279.20001220703</ele>
        <time>2013-01-26T15:29:11Z</time>
      </trkpt>
      <trkpt lat="43.4258" lon="6.06461">
        <ele>278.60000610352</ele>
        <time>2013-01-26T15:29:13Z</time>
      </trkpt>
      <trkpt lat="43.42577" lon="6.0646">
        <ele>278.20001220703</ele>
        <time>2013-01-26T15:29:14Z</time>
      </trkpt>
      <trkpt lat="43.42573" lon="6.06458">
        <ele>277.79998779297</ele>
        <time>2013-01-26T15:29:15Z</time>
      </trkpt>
      <trkpt lat="43.42572" lon="6.06454">
        <ele>277.39999389648</ele>
        <time>2013-01-26T15:29:16Z</time>
      </trkpt>
      <trkpt lat="43.4257" lon="6.06451">
        <ele>276.79998779297</ele>
        <time>2013-01-26T15:29:17Z</time>
      </trkpt>
      <trkpt lat="43.42572" lon="6.06447">
        <ele>276.39999389648</ele>
        <time>2013-01-26T15:29:18Z</time>
      </trkpt>
      <trkpt lat="43.42572" lon="6.06439">
        <ele>276.39999389648</ele>
        <time>2013-01-26T15:29:20Z</time>
      </trkpt>
      <trkpt lat="43.42571" lon="6.06436">
        <ele>276.39999389648</ele>
        <time>2013-01-26T15:29:21Z</time>
      </trkpt>
      <trkpt lat="43.42566" lon="6.06422">
        <ele>276</ele>
        <time>2013-01-26T15:29:25Z</time>
      </trkpt>
      <trkpt lat="43.42559" lon="6.06413">
        <ele>275.20001220703</ele>
        <time>2013-01-26T15:29:27Z</time>
      </trkpt>
      <trkpt lat="43.42554" lon="6.06402">
        <ele>274.39999389648</ele>
        <time>2013-01-26T15:29:29Z</time>
      </trkpt>
      <trkpt lat="43.42549" lon="6.06392">
        <ele>274.39999389648</ele>
        <time>2013-01-26T15:29:31Z</time>
      </trkpt>
      <trkpt lat="43.42534" lon="6.0637">
        <ele>274.39999389648</ele>
        <time>2013-01-26T15:29:37Z</time>
      </trkpt>
      <trkpt lat="43.42527" lon="6.06365">
        <ele>274.39999389648</ele>
        <time>2013-01-26T15:29:40Z</time>
      </trkpt>
      <trkpt lat="43.42521" lon="6.06363">
        <ele>274.39999389648</ele>
        <time>2013-01-26T15:29:43Z</time>
      </trkpt>
      <trkpt lat="43.42504" lon="6.06369">
        <ele>274.39999389648</ele>
        <time>2013-01-26T15:29:48Z</time>
      </trkpt>
      <trkpt lat="43.42487" lon="6.06377">
        <ele>272.60000610352</ele>
        <time>2013-01-26T15:29:52Z</time>
      </trkpt>
      <trkpt lat="43.42482" lon="6.06378">
        <ele>272.20001220703</ele>
        <time>2013-01-26T15:29:53Z</time>
      </trkpt>
      <trkpt lat="43.42477" lon="6.06377">
        <ele>272.20001220703</ele>
        <time>2013-01-26T15:29:54Z</time>
      </trkpt>
      <trkpt lat="43.42467" lon="6.06377">
        <ele>272.20001220703</ele>
        <time>2013-01-26T15:29:56Z</time>
      </trkpt>
      <trkpt lat="43.42458" lon="6.06379">
        <ele>272.20001220703</ele>
        <time>2013-01-26T15:29:58Z</time>
      </trkpt>
      <trkpt lat="43.42448" lon="6.06383">
        <ele>272.20001220703</ele>
        <time>2013-01-26T15:30:00Z</time>
      </trkpt>
      <trkpt lat="43.42429" lon="6.06397">
        <ele>271</ele>
        <time>2013-01-26T15:30:05Z</time>
      </trkpt>
      <trkpt lat="43.42422" lon="6.06402">
        <ele>270.20001220703</ele>
        <time>2013-01-26T15:30:07Z</time>
      </trkpt>
      <trkpt lat="43.42415" lon="6.06406">
        <ele>270.20001220703</ele>
        <time>2013-01-26T15:30:09Z</time>
      </trkpt>
      <trkpt lat="43.424" lon="6.06404">
        <ele>270.20001220703</ele>
        <time>2013-01-26T15:30:13Z</time>
      </trkpt>
      <trkpt lat="43.42384" lon="6.06398">
        <ele>270.20001220703</ele>
        <time>2013-01-26T15:30:16Z</time>
      </trkpt>
      <trkpt lat="43.42379" lon="6.06398">
        <ele>270.20001220703</ele>
        <time>2013-01-26T15:30:17Z</time>
      </trkpt>
      <trkpt lat="43.42369" lon="6.06401">
        <ele>269.79998779297</ele>
        <time>2013-01-26T15:30:19Z</time>
      </trkpt>
      <trkpt lat="43.42365" lon="6.06407">
        <ele>269.20001220703</ele>
        <time>2013-01-26T15:30:20Z</time>
      </trkpt>
      <trkpt lat="43.42361" lon="6.06411">
        <ele>268.79998779297</ele>
        <time>2013-01-26T15:30:21Z</time>
      </trkpt>
      <trkpt lat="43.42352" lon="6.0642">
        <ele>268</ele>
        <time>2013-01-26T15:30:23Z</time>
      </trkpt>
      <trkpt lat="43.42329" lon="6.06438">
        <ele>268</ele>
        <time>2013-01-26T15:30:29Z</time>
      </trkpt>
      <trkpt lat="43.42307" lon="6.06461">
        <ele>268</ele>
        <time>2013-01-26T15:30:35Z</time>
      </trkpt>
      <trkpt lat="43.42295" lon="6.06475">
        <ele>266.60000610352</ele>
        <time>2013-01-26T15:30:38Z</time>
      </trkpt>
      <trkpt lat="43.42288" lon="6.06488">
        <ele>265.79998779297</ele>
        <time>2013-01-26T15:30:40Z</time>
      </trkpt>
      <trkpt lat="43.42279" lon="6.06499">
        <ele>265.39999389648</ele>
        <time>2013-01-26T15:30:42Z</time>
      </trkpt>
      <trkpt lat="43.42267" lon="6.06507">
        <ele>264.39999389648</ele>
        <time>2013-01-26T15:30:44Z</time>
      </trkpt>
      <trkpt lat="43.42262" lon="6.0651">
        <ele>264</ele>
        <time>2013-01-26T15:30:45Z</time>
      </trkpt>
      <trkpt lat="43.42257" lon="6.06511">
        <ele>263.60000610352</ele>
        <time>2013-01-26T15:30:46Z</time>
      </trkpt>
      <trkpt lat="43.42251" lon="6.06513">
        <ele>263</ele>
        <time>2013-01-26T15:30:47Z</time>
      </trkpt>
      <trkpt lat="43.42245" lon="6.06513">
        <ele>262.60000610352</ele>
        <time>2013-01-26T15:30:48Z</time>
      </trkpt>
      <trkpt lat="43.4224" lon="6.06512">
        <ele>262</ele>
        <time>2013-01-26T15:30:49Z</time>
      </trkpt>
      <trkpt lat="43.42233" lon="6.0651">
        <ele>261.39999389648</ele>
        <time>2013-01-26T15:30:50Z</time>
      </trkpt>
      <trkpt lat="43.42221" lon="6.06507">
        <ele>261.39999389648</ele>
        <time>2013-01-26T15:30:52Z</time>
      </trkpt>
      <trkpt lat="43.42214" lon="6.06507">
        <ele>260.60000610352</ele>
        <time>2013-01-26T15:30:53Z</time>
      </trkpt>
      <trkpt lat="43.42208" lon="6.06507">
        <ele>260.20001220703</ele>
        <time>2013-01-26T15:30:54Z</time>
      </trkpt>
      <trkpt lat="43.42204" lon="6.06508">
        <ele>259.60000610352</ele>
        <time>2013-01-26T15:30:55Z</time>
      </trkpt>
      <trkpt lat="43.422" lon="6.06509">
        <ele>259.20001220703</ele>
        <time>2013-01-26T15:30:56Z</time>
      </trkpt>
      <trkpt lat="43.42197" lon="6.06509">
        <ele>258.60000610352</ele>
        <time>2013-01-26T15:30:57Z</time>
      </trkpt>
      <trkpt lat="43.42192" lon="6.06504">
        <ele>257.39999389648</ele>
        <time>2013-01-26T15:30:59Z</time>
      </trkpt>
      <trkpt lat="43.42192" lon="6.06501">
        <ele>257</ele>
        <time>2013-01-26T15:31:00Z</time>
      </trkpt>
      <trkpt lat="43.42188" lon="6.06487">
        <ele>257</ele>
        <time>2013-01-26T15:31:04Z</time>
      </trkpt>
      <trkpt lat="43.42186" lon="6.06479">
        <ele>257</ele>
        <time>2013-01-26T15:31:06Z</time>
      </trkpt>
      <trkpt lat="43.42181" lon="6.0645">
        <ele>257</ele>
        <time>2013-01-26T15:31:12Z</time>
      </trkpt>
      <trkpt lat="43.42172" lon="6.06404">
        <ele>257</ele>
        <time>2013-01-26T15:31:21Z</time>
      </trkpt>
      <trkpt lat="43.42165" lon="6.06369">
        <ele>257</ele>
        <time>2013-01-26T15:31:28Z</time>
      </trkpt>
      <trkpt lat="43.42161" lon="6.06342">
        <ele>257</ele>
        <time>2013-01-26T15:31:34Z</time>
      </trkpt>
      <trkpt lat="43.42156" lon="6.06315">
        <ele>257</ele>
        <time>2013-01-26T15:31:40Z</time>
      </trkpt>
      <trkpt lat="43.42154" lon="6.06288">
        <ele>257</ele>
        <time>2013-01-26T15:31:45Z</time>
      </trkpt>
      <trkpt lat="43.42154" lon="6.06279">
        <ele>257.39999389648</ele>
        <time>2013-01-26T15:31:47Z</time>
      </trkpt>
      <trkpt lat="43.42154" lon="6.06274">
        <ele>257.79998779297</ele>
        <time>2013-01-26T15:31:48Z</time>
      </trkpt>
      <trkpt lat="43.42154" lon="6.06269">
        <ele>258.20001220703</ele>
        <time>2013-01-26T15:31:49Z</time>
      </trkpt>
      <trkpt lat="43.42154" lon="6.06264">
        <ele>258.79998779297</ele>
        <time>2013-01-26T15:31:50Z</time>
      </trkpt>
      <trkpt lat="43.42154" lon="6.06259">
        <ele>259.20001220703</ele>
        <time>2013-01-26T15:31:51Z</time>
      </trkpt>
      <trkpt lat="43.42154" lon="6.06251">
        <ele>259.60000610352</ele>
        <time>2013-01-26T15:31:53Z</time>
      </trkpt>
      <trkpt lat="43.42154" lon="6.06242">
        <ele>260.39999389648</ele>
        <time>2013-01-26T15:31:55Z</time>
      </trkpt>
      <trkpt lat="43.42152" lon="6.06235">
        <ele>261.20001220703</ele>
        <time>2013-01-26T15:31:57Z</time>
      </trkpt>
      <trkpt lat="43.42152" lon="6.06225">
        <ele>261.20001220703</ele>
        <time>2013-01-26T15:32:00Z</time>
      </trkpt>
      <trkpt lat="43.4215" lon="6.06221">
        <ele>261.20001220703</ele>
        <time>2013-01-26T15:32:02Z</time>
      </trkpt>
      <trkpt lat="43.42148" lon="6.06219">
        <ele>261.20001220703</ele>
        <time>2013-01-26T15:32:04Z</time>
      </trkpt>
      <trkpt lat="43.42147" lon="6.06218">
        <ele>261.20001220703</ele>
        <time>2013-01-26T15:32:05Z</time>
      </trkpt>
      <trkpt lat="43.42144" lon="6.06218">
        <ele>261.20001220703</ele>
        <time>2013-01-26T15:32:07Z</time>
      </trkpt>
      <trkpt lat="43.4214" lon="6.06219">
        <ele>261.20001220703</ele>
        <time>2013-01-26T15:32:09Z</time>
      </trkpt>
      <trkpt lat="43.42133" lon="6.06223">
        <ele>261.20001220703</ele>
        <time>2013-01-26T15:32:12Z</time>
      </trkpt>
      <trkpt lat="43.42123" lon="6.06224">
        <ele>261.20001220703</ele>
        <time>2013-01-26T15:32:15Z</time>
      </trkpt>
      <trkpt lat="43.42111" lon="6.06227">
        <ele>261.20001220703</ele>
        <time>2013-01-26T15:32:18Z</time>
      </trkpt>
      <trkpt lat="43.42096" lon="6.06232">
        <ele>261.20001220703</ele>
        <time>2013-01-26T15:32:21Z</time>
      </trkpt>
      <trkpt lat="43.42078" lon="6.06238">
        <ele>260.79998779297</ele>
        <time>2013-01-26T15:32:24Z</time>
      </trkpt>
      <trkpt lat="43.42071" lon="6.0624">
        <ele>260.20001220703</ele>
        <time>2013-01-26T15:32:25Z</time>
      </trkpt>
      <trkpt lat="43.42063" lon="6.06244">
        <ele>259.79998779297</ele>
        <time>2013-01-26T15:32:26Z</time>
      </trkpt>
      <trkpt lat="43.42055" lon="6.06247">
        <ele>259.39999389648</ele>
        <time>2013-01-26T15:32:27Z</time>
      </trkpt>
      <trkpt lat="43.42046" lon="6.06249">
        <ele>258.79998779297</ele>
        <time>2013-01-26T15:32:28Z</time>
      </trkpt>
      <trkpt lat="43.42036" lon="6.06252">
        <ele>258.20001220703</ele>
        <time>2013-01-26T15:32:29Z</time>
      </trkpt>
      <trkpt lat="43.42026" lon="6.06255">
        <ele>257.60000610352</ele>
        <time>2013-01-26T15:32:30Z</time>
      </trkpt>
      <trkpt lat="43.42016" lon="6.06259">
        <ele>257</ele>
        <time>2013-01-26T15:32:31Z</time>
      </trkpt>
      <trkpt lat="43.42005" lon="6.06262">
        <ele>255.60000610352</ele>
        <time>2013-01-26T15:32:32Z</time>
      </trkpt>
      <trkpt lat="43.41994" lon="6.06266">
        <ele>254.60000610352</ele>
        <time>2013-01-26T15:32:33Z</time>
      </trkpt>
      <trkpt lat="43.41983" lon="6.06269">
        <ele>253.60000610352</ele>
        <time>2013-01-26T15:32:34Z</time>
      </trkpt>
      <trkpt lat="43.41972" lon="6.06273">
        <ele>252.39999389648</ele>
        <time>2013-01-26T15:32:35Z</time>
      </trkpt>
      <trkpt lat="43.4196" lon="6.06277">
        <ele>251.19999694824</ele>
        <time>2013-01-26T15:32:36Z</time>
      </trkpt>
      <trkpt lat="43.41948" lon="6.06281">
        <ele>250</ele>
        <time>2013-01-26T15:32:37Z</time>
      </trkpt>
      <trkpt lat="43.41938" lon="6.06285">
        <ele>248.80000305176</ele>
        <time>2013-01-26T15:32:38Z</time>
      </trkpt>
      <trkpt lat="43.41929" lon="6.0629">
        <ele>247.80000305176</ele>
        <time>2013-01-26T15:32:39Z</time>
      </trkpt>
      <trkpt lat="43.4192" lon="6.06293">
        <ele>247</ele>
        <time>2013-01-26T15:32:40Z</time>
      </trkpt>
      <trkpt lat="43.4191" lon="6.06294">
        <ele>246</ele>
        <time>2013-01-26T15:32:41Z</time>
      </trkpt>
      <trkpt lat="43.41901" lon="6.06295">
        <ele>245</ele>
        <time>2013-01-26T15:32:42Z</time>
      </trkpt>
      <trkpt lat="43.4187" lon="6.06292">
        <ele>242.39999389648</ele>
        <time>2013-01-26T15:32:45Z</time>
      </trkpt>
      <trkpt lat="43.4185" lon="6.06292">
        <ele>241</ele>
        <time>2013-01-26T15:32:47Z</time>
      </trkpt>
      <trkpt lat="43.4184" lon="6.06292">
        <ele>240.60000610352</ele>
        <time>2013-01-26T15:32:48Z</time>
      </trkpt>
      <trkpt lat="43.41808" lon="6.0629">
        <ele>239.19999694824</ele>
        <time>2013-01-26T15:32:51Z</time>
      </trkpt>
      <trkpt lat="43.41798" lon="6.06286">
        <ele>238.60000610352</ele>
        <time>2013-01-26T15:32:52Z</time>
      </trkpt>
      <trkpt lat="43.4179" lon="6.06277">
        <ele>237.60000610352</ele>
        <time>2013-01-26T15:32:53Z</time>
      </trkpt>
      <trkpt lat="43.41783" lon="6.06269">
        <ele>236.80000305176</ele>
        <time>2013-01-26T15:32:54Z</time>
      </trkpt>
      <trkpt lat="43.41774" lon="6.06263">
        <ele>235.80000305176</ele>
        <time>2013-01-26T15:32:55Z</time>
      </trkpt>
      <trkpt lat="43.41766" lon="6.06258">
        <ele>234</ele>
        <time>2013-01-26T15:32:56Z</time>
      </trkpt>
      <trkpt lat="43.41757" lon="6.06254">
        <ele>234</ele>
        <time>2013-01-26T15:32:57Z</time>
      </trkpt>
      <trkpt lat="43.41748" lon="6.0625">
        <ele>234</ele>
        <time>2013-01-26T15:32:58Z</time>
      </trkpt>
      <trkpt lat="43.41738" lon="6.06248">
        <ele>234</ele>
        <time>2013-01-26T15:32:59Z</time>
      </trkpt>
      <trkpt lat="43.41719" lon="6.06247">
        <ele>233</ele>
        <time>2013-01-26T15:33:01Z</time>
      </trkpt>
      <trkpt lat="43.41702" lon="6.06248">
        <ele>231.80000305176</ele>
        <time>2013-01-26T15:33:03Z</time>
      </trkpt>
      <trkpt lat="43.41693" lon="6.06248">
        <ele>231.39999389648</ele>
        <time>2013-01-26T15:33:04Z</time>
      </trkpt>
      <trkpt lat="43.41685" lon="6.06248">
        <ele>230.80000305176</ele>
        <time>2013-01-26T15:33:05Z</time>
      </trkpt>
      <trkpt lat="43.41679" lon="6.06247">
        <ele>230.19999694824</ele>
        <time>2013-01-26T15:33:06Z</time>
      </trkpt>
      <trkpt lat="43.41672" lon="6.06246">
        <ele>229.60000610352</ele>
        <time>2013-01-26T15:33:07Z</time>
      </trkpt>
      <trkpt lat="43.41666" lon="6.06246">
        <ele>229</ele>
        <time>2013-01-26T15:33:08Z</time>
      </trkpt>
      <trkpt lat="43.4166" lon="6.06245">
        <ele>229</ele>
        <time>2013-01-26T15:33:09Z</time>
      </trkpt>
      <trkpt lat="43.41651" lon="6.06241">
        <ele>229</ele>
        <time>2013-01-26T15:33:11Z</time>
      </trkpt>
      <trkpt lat="43.41644" lon="6.06241">
        <ele>229</ele>
        <time>2013-01-26T15:33:13Z</time>
      </trkpt>
      <trkpt lat="43.41638" lon="6.06241">
        <ele>229</ele>
        <time>2013-01-26T15:33:16Z</time>
      </trkpt>
      <trkpt lat="43.41638" lon="6.06241">
        <ele>229</ele>
        <time>2013-01-26T15:33:17Z</time>
      </trkpt>
      <trkpt lat="43.41638" lon="6.06241">
        <ele>229</ele>
        <time>2013-01-26T15:33:20Z</time>
      </trkpt>
      <trkpt lat="43.41636" lon="6.06239">
        <ele>229</ele>
        <time>2013-01-26T15:33:21Z</time>
      </trkpt>
      <trkpt lat="43.41629" lon="6.06232">
        <ele>229</ele>
        <time>2013-01-26T15:33:24Z</time>
      </trkpt>
      <trkpt lat="43.41609" lon="6.06207">
        <ele>229</ele>
        <time>2013-01-26T15:33:31Z</time>
      </trkpt>
      <trkpt lat="43.41605" lon="6.06204">
        <ele>229</ele>
        <time>2013-01-26T15:33:32Z</time>
      </trkpt>
      <trkpt lat="43.41601" lon="6.06201">
        <ele>228.60000610352</ele>
        <time>2013-01-26T15:33:33Z</time>
      </trkpt>
      <trkpt lat="43.41597" lon="6.062">
        <ele>228.19999694824</ele>
        <time>2013-01-26T15:33:34Z</time>
      </trkpt>
      <trkpt lat="43.4159" lon="6.06203">
        <ele>227.39999389648</ele>
        <time>2013-01-26T15:33:36Z</time>
      </trkpt>
      <trkpt lat="43.41587" lon="6.06203">
        <ele>226.80000305176</ele>
        <time>2013-01-26T15:33:37Z</time>
      </trkpt>
      <trkpt lat="43.41582" lon="6.06196">
        <ele>226.80000305176</ele>
        <time>2013-01-26T15:33:39Z</time>
      </trkpt>
      <trkpt lat="43.41576" lon="6.0618">
        <ele>226.80000305176</ele>
        <time>2013-01-26T15:33:44Z</time>
      </trkpt>
      <trkpt lat="43.41567" lon="6.06179">
        <ele>226.80000305176</ele>
        <time>2013-01-26T15:33:47Z</time>
      </trkpt>
      <trkpt lat="43.41565" lon="6.06179">
        <ele>226.80000305176</ele>
        <time>2013-01-26T15:33:49Z</time>
      </trkpt>
      <trkpt lat="43.41562" lon="6.06177">
        <ele>226.80000305176</ele>
        <time>2013-01-26T15:33:52Z</time>
      </trkpt>
      <trkpt lat="43.41551" lon="6.06175">
        <ele>226.80000305176</ele>
        <time>2013-01-26T15:33:57Z</time>
      </trkpt>
      <trkpt lat="43.41535" lon="6.06179">
        <ele>226.80000305176</ele>
        <time>2013-01-26T15:34:02Z</time>
      </trkpt>
      <trkpt lat="43.41531" lon="6.06181">
        <ele>226.39999389648</ele>
        <time>2013-01-26T15:34:05Z</time>
      </trkpt>
      <trkpt lat="43.41527" lon="6.06182">
        <ele>225.60000610352</ele>
        <time>2013-01-26T15:34:07Z</time>
      </trkpt>
      <trkpt lat="43.41525" lon="6.06183">
        <ele>225.19999694824</ele>
        <time>2013-01-26T15:34:08Z</time>
      </trkpt>
      <trkpt lat="43.41524" lon="6.06183">
        <ele>224.80000305176</ele>
        <time>2013-01-26T15:34:09Z</time>
      </trkpt>
      <trkpt lat="43.41524" lon="6.06183">
        <ele>224.80000305176</ele>
        <time>2013-01-26T15:34:11Z</time>
      </trkpt>
      <trkpt lat="43.41524" lon="6.06183">
        <ele>224.80000305176</ele>
        <time>2013-01-26T15:34:32Z</time>
      </trkpt>
      <trkpt lat="43.41524" lon="6.06183">
        <ele>224.80000305176</ele>
        <time>2013-01-26T15:34:46Z</time>
      </trkpt>
      <trkpt lat="43.41524" lon="6.06183">
        <ele>224.80000305176</ele>
        <time>2013-01-26T15:34:51Z</time>
      </trkpt>
      <trkpt lat="43.41524" lon="6.06183">
        <ele>224.80000305176</ele>
        <time>2013-01-26T15:35:03Z</time>
      </trkpt>
      <trkpt lat="43.41524" lon="6.06183">
        <ele>224.80000305176</ele>
        <time>2013-01-26T15:35:19Z</time>
      </trkpt>
      <trkpt lat="43.4152" lon="6.06183">
        <ele>224.80000305176</ele>
        <time>2013-01-26T15:35:23Z</time>
      </trkpt>
      <trkpt lat="43.41518" lon="6.06184">
        <ele>224.80000305176</ele>
        <time>2013-01-26T15:35:24Z</time>
      </trkpt>
      <trkpt lat="43.41513" lon="6.06184">
        <ele>224.80000305176</ele>
        <time>2013-01-26T15:35:26Z</time>
      </trkpt>
      <trkpt lat="43.41502" lon="6.06187">
        <ele>224.80000305176</ele>
        <time>2013-01-26T15:35:30Z</time>
      </trkpt>
      <trkpt lat="43.4149" lon="6.06185">
        <ele>224.80000305176</ele>
        <time>2013-01-26T15:35:34Z</time>
      </trkpt>
      <trkpt lat="43.41481" lon="6.06183">
        <ele>224.80000305176</ele>
        <time>2013-01-26T15:35:37Z</time>
      </trkpt>
      <trkpt lat="43.41447" lon="6.06175">
        <ele>223.19999694824</ele>
        <time>2013-01-26T15:35:46Z</time>
      </trkpt>
      <trkpt lat="43.41428" lon="6.06168">
        <ele>222.80000305176</ele>
        <time>2013-01-26T15:35:51Z</time>
      </trkpt>
      <trkpt lat="43.41415" lon="6.06163">
        <ele>222.39999389648</ele>
        <time>2013-01-26T15:35:54Z</time>
      </trkpt>
      <trkpt lat="43.41402" lon="6.06154">
        <ele>220.80000305176</ele>
        <time>2013-01-26T15:35:57Z</time>
      </trkpt>
      <trkpt lat="43.41398" lon="6.0615">
        <ele>220.39999389648</ele>
        <time>2013-01-26T15:35:58Z</time>
      </trkpt>
      <trkpt lat="43.41372" lon="6.06123">
        <ele>220.39999389648</ele>
        <time>2013-01-26T15:36:04Z</time>
      </trkpt>
      <trkpt lat="43.41362" lon="6.06113">
        <ele>219.39999389648</ele>
        <time>2013-01-26T15:36:06Z</time>
      </trkpt>
      <trkpt lat="43.41352" lon="6.06103">
        <ele>218.60000610352</ele>
        <time>2013-01-26T15:36:08Z</time>
      </trkpt>
      <trkpt lat="43.41347" lon="6.06097">
        <ele>218</ele>
        <time>2013-01-26T15:36:09Z</time>
      </trkpt>
      <trkpt lat="43.41332" lon="6.06082">
        <ele>218</ele>
        <time>2013-01-26T15:36:12Z</time>
      </trkpt>
      <trkpt lat="43.41306" lon="6.06059">
        <ele>218</ele>
        <time>2013-01-26T15:36:17Z</time>
      </trkpt>
      <trkpt lat="43.41294" lon="6.0606">
        <ele>217.19999694824</ele>
        <time>2013-01-26T15:36:19Z</time>
      </trkpt>
      <trkpt lat="43.41278" lon="6.06069">
        <ele>216</ele>
        <time>2013-01-26T15:36:22Z</time>
      </trkpt>
      <trkpt lat="43.41246" lon="6.06087">
        <ele>216</ele>
        <time>2013-01-26T15:36:28Z</time>
      </trkpt>
      <trkpt lat="43.41234" lon="6.06094">
        <ele>216</ele>
        <time>2013-01-26T15:36:30Z</time>
      </trkpt>
      <trkpt lat="43.41224" lon="6.06099">
        <ele>215.60000610352</ele>
        <time>2013-01-26T15:36:32Z</time>
      </trkpt>
      <trkpt lat="43.41217" lon="6.06103">
        <ele>215.19999694824</ele>
        <time>2013-01-26T15:36:33Z</time>
      </trkpt>
      <trkpt lat="43.41212" lon="6.06106">
        <ele>214.60000610352</ele>
        <time>2013-01-26T15:36:34Z</time>
      </trkpt>
      <trkpt lat="43.41207" lon="6.06109">
        <ele>214.19999694824</ele>
        <time>2013-01-26T15:36:35Z</time>
      </trkpt>
      <trkpt lat="43.41202" lon="6.06112">
        <ele>213.80000305176</ele>
        <time>2013-01-26T15:36:36Z</time>
      </trkpt>
      <trkpt lat="43.41197" lon="6.06115">
        <ele>213.80000305176</ele>
        <time>2013-01-26T15:36:38Z</time>
      </trkpt>
      <trkpt lat="43.41195" lon="6.06116">
        <ele>213.80000305176</ele>
        <time>2013-01-26T15:36:42Z</time>
      </trkpt>
      <trkpt lat="43.41194" lon="6.06117">
        <ele>213.80000305176</ele>
        <time>2013-01-26T15:36:49Z</time>
      </trkpt>
      <trkpt lat="43.4119" lon="6.06123">
        <ele>213.39999389648</ele>
        <time>2013-01-26T15:36:52Z</time>
      </trkpt>
      <trkpt lat="43.41188" lon="6.06126">
        <ele>213</ele>
        <time>2013-01-26T15:36:53Z</time>
      </trkpt>
      <trkpt lat="43.41188" lon="6.06128">
        <ele>212.60000610352</ele>
        <time>2013-01-26T15:36:54Z</time>
      </trkpt>
      <trkpt lat="43.41187" lon="6.06131">
        <ele>212.19999694824</ele>
        <time>2013-01-26T15:36:55Z</time>
      </trkpt>
      <trkpt lat="43.41188" lon="6.06135">
        <ele>211.80000305176</ele>
        <time>2013-01-26T15:36:56Z</time>
      </trkpt>
      <trkpt lat="43.4119" lon="6.06145">
        <ele>211.80000305176</ele>
        <time>2013-01-26T15:36:59Z</time>
      </trkpt>
      <trkpt lat="43.41193" lon="6.06167">
        <ele>211.80000305176</ele>
        <time>2013-01-26T15:37:04Z</time>
      </trkpt>
      <trkpt lat="43.41196" lon="6.06197">
        <ele>211.80000305176</ele>
        <time>2013-01-26T15:37:11Z</time>
      </trkpt>
      <trkpt lat="43.41193" lon="6.06202">
        <ele>211.80000305176</ele>
        <time>2013-01-26T15:37:13Z</time>
      </trkpt>
      <trkpt lat="43.41172" lon="6.06206">
        <ele>211.80000305176</ele>
        <time>2013-01-26T15:37:19Z</time>
      </trkpt>
      <trkpt lat="43.4115" lon="6.0621">
        <ele>211.80000305176</ele>
        <time>2013-01-26T15:37:25Z</time>
      </trkpt>
      <trkpt lat="43.4113" lon="6.06218">
        <ele>211.80000305176</ele>
        <time>2013-01-26T15:37:30Z</time>
      </trkpt>
      <trkpt lat="43.41101" lon="6.06231">
        <ele>211.80000305176</ele>
        <time>2013-01-26T15:37:37Z</time>
      </trkpt>
      <trkpt lat="43.41073" lon="6.06242">
        <ele>211.80000305176</ele>
        <time>2013-01-26T15:37:44Z</time>
      </trkpt>
      <trkpt lat="43.41042" lon="6.06251">
        <ele>211.80000305176</ele>
        <time>2013-01-26T15:37:51Z</time>
      </trkpt>
      <trkpt lat="43.41021" lon="6.06255">
        <ele>211.39999389648</ele>
        <time>2013-01-26T15:37:56Z</time>
      </trkpt>
      <trkpt lat="43.41012" lon="6.06256">
        <ele>210.60000610352</ele>
        <time>2013-01-26T15:37:58Z</time>
      </trkpt>
      <trkpt lat="43.41004" lon="6.06257">
        <ele>209.80000305176</ele>
        <time>2013-01-26T15:38:00Z</time>
      </trkpt>
      <trkpt lat="43.40985" lon="6.0626">
        <ele>209.80000305176</ele>
        <time>2013-01-26T15:38:05Z</time>
      </trkpt>
      <trkpt lat="43.4097" lon="6.06258">
        <ele>209.80000305176</ele>
        <time>2013-01-26T15:38:10Z</time>
      </trkpt>
      <trkpt lat="43.40967" lon="6.06256">
        <ele>209.80000305176</ele>
        <time>2013-01-26T15:38:11Z</time>
      </trkpt>
      <trkpt lat="43.40958" lon="6.06253">
        <ele>209.80000305176</ele>
        <time>2013-01-26T15:38:15Z</time>
      </trkpt>
      <trkpt lat="43.40958" lon="6.06253">
        <ele>209.80000305176</ele>
        <time>2013-01-26T15:38:16Z</time>
      </trkpt>
      <trkpt lat="43.40958" lon="6.06253">
        <ele>209.80000305176</ele>
        <time>2013-01-26T15:38:24Z</time>
      </trkpt>
      <trkpt lat="43.40955" lon="6.06256">
        <ele>209.80000305176</ele>
        <time>2013-01-26T15:38:33Z</time>
      </trkpt>
      <trkpt lat="43.40952" lon="6.06257">
        <ele>209.80000305176</ele>
        <time>2013-01-26T15:38:39Z</time>
      </trkpt>
      <trkpt lat="43.40952" lon="6.06257">
        <ele>209.80000305176</ele>
        <time>2013-01-26T15:38:52Z</time>
      </trkpt>
      <trkpt lat="43.40952" lon="6.06257">
        <ele>209.80000305176</ele>
        <time>2013-01-26T15:39:04Z</time>
      </trkpt>
      <trkpt lat="43.40951" lon="6.06271">
        <ele>209.80000305176</ele>
        <time>2013-01-26T15:39:09Z</time>
      </trkpt>
      <trkpt lat="43.40945" lon="6.06289">
        <ele>209.80000305176</ele>
        <time>2013-01-26T15:39:14Z</time>
      </trkpt>
      <trkpt lat="43.40932" lon="6.06305">
        <ele>209.80000305176</ele>
        <time>2013-01-26T15:39:19Z</time>
      </trkpt>
      <trkpt lat="43.4091" lon="6.06333">
        <ele>209.80000305176</ele>
        <time>2013-01-26T15:39:27Z</time>
      </trkpt>
      <trkpt lat="43.4089" lon="6.06361">
        <ele>209.80000305176</ele>
        <time>2013-01-26T15:39:34Z</time>
      </trkpt>
      <trkpt lat="43.40868" lon="6.06389">
        <ele>209.80000305176</ele>
        <time>2013-01-26T15:39:40Z</time>
      </trkpt>
      <trkpt lat="43.40864" lon="6.06394">
        <ele>209.39999389648</ele>
        <time>2013-01-26T15:39:41Z</time>
      </trkpt>
      <trkpt lat="43.40855" lon="6.06402">
        <ele>208.39999389648</ele>
        <time>2013-01-26T15:39:43Z</time>
      </trkpt>
      <trkpt lat="43.4085" lon="6.06405">
        <ele>208</ele>
        <time>2013-01-26T15:39:44Z</time>
      </trkpt>
      <trkpt lat="43.40845" lon="6.06408">
        <ele>207.60000610352</ele>
        <time>2013-01-26T15:39:45Z</time>
      </trkpt>
      <trkpt lat="43.40834" lon="6.06415">
        <ele>207.60000610352</ele>
        <time>2013-01-26T15:39:47Z</time>
      </trkpt>
      <trkpt lat="43.40822" lon="6.06418">
        <ele>207.60000610352</ele>
        <time>2013-01-26T15:39:49Z</time>
      </trkpt>
      <trkpt lat="43.40811" lon="6.06415">
        <ele>207.60000610352</ele>
        <time>2013-01-26T15:39:51Z</time>
      </trkpt>
      <trkpt lat="43.40793" lon="6.06406">
        <ele>207.60000610352</ele>
        <time>2013-01-26T15:39:55Z</time>
      </trkpt>
      <trkpt lat="43.40785" lon="6.06406">
        <ele>207.60000610352</ele>
        <time>2013-01-26T15:39:57Z</time>
      </trkpt>
      <trkpt lat="43.40767" lon="6.06413">
        <ele>207.60000610352</ele>
        <time>2013-01-26T15:40:01Z</time>
      </trkpt>
      <trkpt lat="43.40728" lon="6.06423">
        <ele>207.60000610352</ele>
        <time>2013-01-26T15:40:11Z</time>
      </trkpt>
      <trkpt lat="43.40714" lon="6.06423">
        <ele>208</ele>
        <time>2013-01-26T15:40:15Z</time>
      </trkpt>
      <trkpt lat="43.40704" lon="6.06425">
        <ele>209.39999389648</ele>
        <time>2013-01-26T15:40:18Z</time>
      </trkpt>
      <trkpt lat="43.40701" lon="6.06427">
        <ele>209.80000305176</ele>
        <time>2013-01-26T15:40:19Z</time>
      </trkpt>
      <trkpt lat="43.40685" lon="6.06435">
        <ele>210.19999694824</ele>
        <time>2013-01-26T15:40:24Z</time>
      </trkpt>
      <trkpt lat="43.40674" lon="6.06448">
        <ele>211.80000305176</ele>
        <time>2013-01-26T15:40:29Z</time>
      </trkpt>
      <trkpt lat="43.40661" lon="6.0646">
        <ele>211.80000305176</ele>
        <time>2013-01-26T15:40:35Z</time>
      </trkpt>
      <trkpt lat="43.40645" lon="6.06474">
        <ele>214</ele>
        <time>2013-01-26T15:40:42Z</time>
      </trkpt>
      <trkpt lat="43.40634" lon="6.06485">
        <ele>214</ele>
        <time>2013-01-26T15:40:47Z</time>
      </trkpt>
      <trkpt lat="43.4063" lon="6.06489">
        <ele>214.80000305176</ele>
        <time>2013-01-26T15:40:49Z</time>
      </trkpt>
      <trkpt lat="43.4062" lon="6.06499">
        <ele>216</ele>
        <time>2013-01-26T15:40:55Z</time>
      </trkpt>
      <trkpt lat="43.4061" lon="6.06501">
        <ele>216.39999389648</ele>
        <time>2013-01-26T15:40:59Z</time>
      </trkpt>
      <trkpt lat="43.40599" lon="6.065">
        <ele>218</ele>
        <time>2013-01-26T15:41:03Z</time>
      </trkpt>
      <trkpt lat="43.40594" lon="6.06499">
        <ele>218</ele>
        <time>2013-01-26T15:41:05Z</time>
      </trkpt>
      <trkpt lat="43.40585" lon="6.06497">
        <ele>218.39999389648</ele>
        <time>2013-01-26T15:41:09Z</time>
      </trkpt>
      <trkpt lat="43.40583" lon="6.06496">
        <ele>218.80000305176</ele>
        <time>2013-01-26T15:41:10Z</time>
      </trkpt>
      <trkpt lat="43.40577" lon="6.06493">
        <ele>220.19999694824</ele>
        <time>2013-01-26T15:41:13Z</time>
      </trkpt>
      <trkpt lat="43.40573" lon="6.06491">
        <ele>220.19999694824</ele>
        <time>2013-01-26T15:41:15Z</time>
      </trkpt>
      <trkpt lat="43.4056" lon="6.06488">
        <ele>220.19999694824</ele>
        <time>2013-01-26T15:41:21Z</time>
      </trkpt>
      <trkpt lat="43.40548" lon="6.06486">
        <ele>220.19999694824</ele>
        <time>2013-01-26T15:41:26Z</time>
      </trkpt>
      <trkpt lat="43.40536" lon="6.06482">
        <ele>221</ele>
        <time>2013-01-26T15:41:31Z</time>
      </trkpt>
      <trkpt lat="43.40527" lon="6.0648">
        <ele>222.19999694824</ele>
        <time>2013-01-26T15:41:34Z</time>
      </trkpt>
      <trkpt lat="43.4052" lon="6.06479">
        <ele>222.19999694824</ele>
        <time>2013-01-26T15:41:37Z</time>
      </trkpt>
      <trkpt lat="43.40508" lon="6.06476">
        <ele>222.19999694824</ele>
        <time>2013-01-26T15:41:42Z</time>
      </trkpt>
      <trkpt lat="43.40492" lon="6.06471">
        <ele>222.60000610352</ele>
        <time>2013-01-26T15:41:49Z</time>
      </trkpt>
      <trkpt lat="43.40459" lon="6.0646">
        <ele>224.19999694824</ele>
        <time>2013-01-26T15:42:02Z</time>
      </trkpt>
      <trkpt lat="43.40443" lon="6.06454">
        <ele>224.19999694824</ele>
        <time>2013-01-26T15:42:08Z</time>
      </trkpt>
      <trkpt lat="43.40435" lon="6.06452">
        <ele>224.60000610352</ele>
        <time>2013-01-26T15:42:11Z</time>
      </trkpt>
      <trkpt lat="43.40429" lon="6.06451">
        <ele>225.39999389648</ele>
        <time>2013-01-26T15:42:13Z</time>
      </trkpt>
      <trkpt lat="43.40426" lon="6.06451">
        <ele>225.80000305176</ele>
        <time>2013-01-26T15:42:14Z</time>
      </trkpt>
      <trkpt lat="43.40417" lon="6.06461">
        <ele>226.19999694824</ele>
        <time>2013-01-26T15:42:18Z</time>
      </trkpt>
      <trkpt lat="43.40409" lon="6.06485">
        <ele>226.19999694824</ele>
        <time>2013-01-26T15:42:24Z</time>
      </trkpt>
      <trkpt lat="43.40404" lon="6.06503">
        <ele>226.19999694824</ele>
        <time>2013-01-26T15:42:28Z</time>
      </trkpt>
      <trkpt lat="43.404" lon="6.06516">
        <ele>226.19999694824</ele>
        <time>2013-01-26T15:42:31Z</time>
      </trkpt>
      <trkpt lat="43.40396" lon="6.06532">
        <ele>226.19999694824</ele>
        <time>2013-01-26T15:42:35Z</time>
      </trkpt>
      <trkpt lat="43.40397" lon="6.06539">
        <ele>226.19999694824</ele>
        <time>2013-01-26T15:42:37Z</time>
      </trkpt>
      <trkpt lat="43.40398" lon="6.0654">
        <ele>226.19999694824</ele>
        <time>2013-01-26T15:42:38Z</time>
      </trkpt>
      <trkpt lat="43.40401" lon="6.06541">
        <ele>226.19999694824</ele>
        <time>2013-01-26T15:42:41Z</time>
      </trkpt>
      <trkpt lat="43.40401" lon="6.06541">
        <ele>226.19999694824</ele>
        <time>2013-01-26T15:42:47Z</time>
      </trkpt>
      <trkpt lat="43.40401" lon="6.06541">
        <ele>226.19999694824</ele>
        <time>2013-01-26T15:42:59Z</time>
      </trkpt>
    </trkseg>
  </trk>
</gpx>